[[{"header":{"parameterUnit":"m.s-1","parameterCategory":1,"la1":30.6,"la2":29.2853,"lo1":-89.7004,"lo2":-87.6739,"dy":0.0162,"dx":0.0183,"nx":112,"ny":82,"refTime":"2023-10-17T12:00:00:Z","depth":0,"parameterNumber":2,"parameterNumberName":"U-component_of_WINDS"},"data":[0.0,0.0,0.0,0.0,0.0,0.0,0.0,0.0,0.0,0.0,0.0,0.0,0.0,0.0,0.0,0.0,0.0,0.0,0.0,0.0,0.0,0.0,0.0,0.0,0.0,0.0,0.0,0.0,0.0,0.0,0.0,0.0,0.0,0.0,0.0,0.0,0.0,0.0,0.0,0.0,0.0,0.0,0.0,0.0,0.0,0.0,0.0,0.0,0.0,0.0,0.0,0.0,0.0,0.0,0.0,0.0,0.0,0.0,0.0,0.0,0.0,0.0,0.0,0.0,0.0,0.0,0.0,0.0,0.0,0.0,0.0,0.0,0.0,0.0,0.0,0.0,0.0,0.0,0.0,0.0,0.0,0.0,0.0,0.0,0.0,0.0,0.0,0.0,0.0,0.0,0.0,1.1603,0.0773,-0.8843,-1.5372,-2.412,-2.4834,-1.4456,0.0,0.0,0.0,0.0,0.0,0.0,0.0,0.0,0.0,0.0,0.0,0.0,0.0,0.0,0.0,0.0,0.0,0.0,0.0,0.0,0.0,0.0,0.0,0.0,0.0,0.0,0.0,0.0,0.0,0.0,0.0,0.0,0.0,0.0,0.0,0.0,0.0,0.0,0.0,0.0,0.0,0.0,0.0,0.0,0.0,0.0,0.0,0.0,0.0,0.0,0.0,0.0,0.0,0.0,0.0,0.0,0.0,0.0,0.0,0.0,0.0,0.0,0.0,0.0,0.0,0.0,0.0,0.0,0.0,0.0,0.0,0.0,0.0,0.0,0.0,0.0,0.0,0.0,0.0,0.0,0.0,0.0,0.0,0.0,0.0,0.0,0.0,0.0,0.0,0.0,0.0,0.0,0.0,0.0,0.0,0.0,0.0,0.0,0.0,0.0,0.0,0.0,0.0,0.0,1.3568,-0.0434,-0.8246,-1.5989,-2.4766,-2.7446,-2.4393,-1.4419,0.0,0.0,0.0,0.0,0.0,0.0,0.0,0.0,0.0,0.0,0.0,0.0,0.0,0.0,0.0,0.0,0.0,0.0,0.0,0.0,0.0,0.0,0.0,0.0,0.0,0.0,0.0,0.0,0.0,0.0,0.0,0.0,0.0,0.0,0.0,0.0,0.0,0.0,0.0,0.0,0.0,0.0,0.0,0.0,0.0,0.0,0.0,0.0,0.0,0.0,0.0,0.0,0.0,0.0,0.0,0.0,0.0,0.0,0.0,0.0,0.0,0.0,0.0,0.0,0.0,0.0,0.0,0.0,0.0,0.0,0.0,0.0,0.0,0.0,0.0,0.0,0.0,0.0,0.0,0.0,0.0,0.0,0.0,0.0,0.0,0.0,0.0,0.0,0.0,0.0,0.0,0.0,0.0,0.0,0.0,0.0,0.0,0.0,0.0,0.0,0.0,0.0,0.0,1.3137,0.8653,-0.453,-1.0651,-1.7862,-2.7897,-2.859,-2.4273,-1.443,-1.4629,0.0,0.0,0.0,0.0,0.0,0.0,0.0,0.0,0.0,0.0,0.0,0.0,0.0,0.0,0.0,0.0,0.0,0.0,0.0,0.0,0.0,0.0,0.0,0.0,0.0,0.0,0.0,0.0,0.0,0.0,0.0,0.0,0.0,0.0,0.0,0.0,0.0,0.0,0.0,0.0,0.0,0.0,0.0,0.0,0.0,0.0,0.0,0.0,0.0,0.0,0.0,0.0,0.0,0.0,0.0,0.0,0.0,0.0,0.0,0.0,0.0,0.0,0.0,0.0,0.0,0.0,0.0,0.0,0.0,0.0,0.0,0.0,0.0,0.0,0.0,0.0,0.0,0.0,0.0,0.0,0.0,0.0,0.0,0.0,0.0,0.0,0.0,0.0,0.0,0.0,0.0,0.0,0.0,0.0,0.0,0.0,0.0,0.0,0.0,0.0,0.0,0.0,0.9991,0.4499,-0.7267,-1.0408,-1.6425,-2.8206,-2.864,-2.4134,-1.4406,-1.4226,0.0,0.0,0.0,0.0,0.0,0.0,0.0,0.0,0.0,0.0,0.0,0.0,0.0,0.0,0.0,0.0,0.0,0.0,0.0,0.0,0.0,0.0,0.0,0.0,0.0,0.0,0.0,0.0,0.0,0.0,0.0,0.0,0.0,0.0,0.0,0.0,0.0,0.0,0.0,0.0,0.0,0.0,0.0,0.0,0.0,0.0,0.0,0.0,0.0,0.0,0.0,0.0,0.0,0.0,0.0,0.0,0.0,0.0,0.0,0.0,0.0,0.0,0.0,0.0,0.0,0.0,0.0,0.0,0.0,0.0,0.0,0.0,0.0,0.0,0.0,0.0,0.0,0.0,0.0,0.0,0.0,0.0,0.0,0.0,0.0,0.0,0.0,0.0,0.0,0.0,0.0,0.0,0.0,0.0,0.0,0.0,0.0,0.0,0.0,0.0,0.0,0.0,0.8893,0.3255,-1.1711,-0.8588,-1.1482,-2.6484,-2.7705,-2.3703,-1.4393,-1.3847,0.0,0.0,0.0,0.0,0.0,0.0,0.0,0.0,0.0,0.0,0.0,0.0,0.0,0.0,0.0,0.0,0.0,0.0,0.0,0.0,0.0,0.0,0.0,0.0,0.0,0.0,0.0,0.0,0.0,0.0,0.0,0.0,0.0,0.0,0.0,0.0,0.0,0.0,0.0,0.0,0.0,0.0,0.0,0.0,0.0,0.0,0.0,0.0,0.0,0.0,0.0,0.0,0.0,0.0,0.0,0.0,0.0,0.0,0.0,0.0,0.0,0.0,0.0,0.0,0.0,0.0,0.0,0.0,0.0,0.0,0.0,0.0,0.0,0.0,0.0,0.0,0.0,0.0,0.0,0.0,0.0,0.0,0.0,0.0,0.0,0.0,0.0,0.0,0.0,0.0,0.0,0.0,0.0,0.0,0.0,0.0,0.0,0.0,0.0,0.0,0.0,0.0,0.8293,0.4254,0.0,-1.0041,-1.3896,-2.2548,-2.5954,-2.3667,-1.4393,0.0,0.0,0.0,0.0,0.0,0.0,0.0,0.0,0.0,0.0,0.0,0.0,0.0,0.0,0.0,0.0,0.0,0.0,0.0,0.0,0.0,0.0,0.0,0.0,0.0,0.0,0.0,0.0,0.0,0.0,0.0,0.0,0.0,0.0,0.0,0.0,0.0,0.0,0.0,0.0,0.0,0.0,0.0,0.0,0.0,0.0,0.0,0.0,0.0,0.0,0.0,0.0,0.0,0.0,0.0,0.0,0.0,0.0,0.0,0.0,0.0,0.0,0.0,0.0,0.0,0.0,0.0,0.0,0.0,0.0,0.0,0.0,0.0,0.0,0.0,0.0,0.0,0.0,0.0,0.0,0.0,0.0,0.0,0.0,0.0,0.0,0.0,0.0,0.0,0.0,0.0,0.0,0.0,0.0,0.0,0.0,0.0,0.0,0.0,0.0,0.0,0.0,0.713,0.8003,0.4365,0.0,-1.0202,-1.4192,-2.2206,-2.5766,-2.3646,-1.4376,0.0,0.0,0.0,0.0,0.0,0.0,0.0,0.0,0.0,0.0,0.0,0.0,0.0,0.0,0.0,0.0,0.0,0.0,0.0,0.0,0.0,0.0,0.0,0.0,0.0,0.0,0.0,0.0,0.0,0.0,0.0,0.0,0.0,0.0,0.0,0.0,0.0,0.0,0.0,0.0,0.0,0.0,0.0,0.0,0.0,0.0,0.0,0.0,0.0,0.0,0.0,0.0,0.0,0.0,0.0,0.0,0.0,0.0,0.0,0.0,0.0,0.0,0.0,0.0,0.0,0.0,0.0,0.0,0.0,0.0,0.0,0.0,0.0,0.0,0.0,0.0,0.0,0.0,0.0,0.0,0.0,0.0,0.0,0.0,0.0,0.0,0.0,0.0,0.0,0.0,0.0,0.0,0.0,0.0,0.0,0.0,0.0,0.0,0.0,0.0,0.0,0.0,0.6605,0.7933,0.312,-1.2021,-0.8362,-1.0962,-2.6134,-2.7479,-2.3579,0.0,0.0,0.0,0.0,0.0,0.0,0.0,0.0,0.0,0.0,0.0,0.0,0.0,0.0,0.0,0.0,0.0,0.0,0.0,0.0,0.0,0.0,0.0,0.0,0.0,0.0,0.0,0.0,0.0,0.0,0.0,0.0,0.0,0.0,0.0,0.0,0.0,0.0,0.0,0.0,0.0,0.0,0.0,0.0,0.0,0.0,0.0,0.0,0.0,0.0,0.0,0.0,0.0,0.0,0.0,0.0,0.0,0.0,0.0,0.0,0.0,0.0,0.0,0.0,0.0,0.0,0.0,0.0,0.0,0.0,0.0,0.0,0.0,0.0,0.0,0.0,0.0,0.0,0.0,0.0,0.0,0.0,0.0,0.0,0.0,0.0,0.0,0.0,0.0,0.0,0.0,0.0,0.0,0.0,0.0,0.0,0.0,0.0,0.0,0.0,0.0,0.0,0.0,0.6605,0.4293,0.093,-0.3599,-0.538,-0.9427,-1.7215,-1.9817,-1.8967,-1.4101,0.0,0.0,0.0,0.0,0.0,0.0,0.0,0.0,0.0,0.0,0.0,0.0,0.0,0.0,0.0,0.0,0.0,0.0,0.0,0.0,0.0,0.0,0.0,0.0,0.0,0.0,0.0,0.0,0.0,0.0,0.0,0.0,0.0,0.0,0.0,0.0,0.0,0.0,0.0,0.0,0.0,0.0,0.0,0.0,0.0,0.0,0.0,0.0,0.0,0.0,0.0,0.0,0.0,0.0,0.0,0.0,0.0,0.0,0.0,0.0,0.0,0.0,0.0,0.0,0.0,0.0,0.0,0.0,0.0,0.0,0.0,0.0,0.0,0.0,0.0,0.0,0.0,0.0,0.0,0.0,0.0,0.0,0.0,0.0,0.0,0.0,0.0,0.0,0.0,0.0,0.0,0.0,0.0,0.0,0.0,0.0,0.0,0.0,0.0,0.0,0.0,0.0,0.683,0.2833,-0.0701,-0.2549,-0.5243,-0.8777,-1.3413,-1.5464,-1.4945,-1.1284,0.0,0.0,0.0,0.0,0.0,0.0,0.0,0.0,0.0,0.0,0.0,0.0,0.0,0.0,0.0,0.0,0.0,0.0,0.0,0.0,0.0,0.0,0.0,0.0,0.0,0.0,0.0,0.0,0.0,0.0,0.0,0.0,0.0,0.0,0.0,0.0,0.0,0.0,0.0,0.0,0.0,0.0,0.0,0.0,0.0,0.0,0.0,0.0,0.0,0.0,0.0,0.0,0.0,0.0,0.0,0.0,0.0,0.0,0.0,0.0,0.0,0.0,0.0,0.0,0.0,0.0,0.0,0.0,0.0,0.0,0.0,0.0,0.0,0.0,0.0,0.0,0.0,0.0,0.0,0.0,0.0,0.0,0.0,0.0,0.0,0.0,0.0,0.0,0.0,0.0,0.0,0.0,0.0,0.0,0.0,0.0,0.0,0.0,0.0,0.0,0.0,0.0,0.7147,0.298,-0.1616,-0.5798,-0.6248,-0.8148,-1.2767,-1.3012,-1.1212,-0.7153,0.0,0.0,0.0,0.0,0.0,0.0,0.0,0.0,0.0,0.0,0.0,0.0,0.0,0.0,0.0,0.0,0.0,0.0,0.0,0.0,0.0,0.0,0.0,0.0,0.0,0.0,0.0,0.0,0.0,0.0,0.0,0.0,0.0,0.0,0.0,0.0,0.0,0.0,0.0,0.0,0.0,0.0,0.0,0.0,0.0,0.0,0.0,0.0,0.0,0.0,0.0,0.0,0.0,0.0,0.0,0.0,0.0,0.0,0.0,0.0,-1.811,0.0,0.0,0.0,0.0,0.0,0.0,0.0,0.0,0.0,0.0,0.0,0.0,0.0,0.0,0.0,0.0,0.0,0.0,0.0,0.0,0.0,0.0,0.0,0.0,0.0,0.0,0.0,0.0,0.0,0.0,0.0,0.0,0.0,0.0,0.0,0.0,0.0,0.0,0.0,0.0,0.0,0.7185,0.298,-0.0391,-0.1351,-0.1465,-0.3355,-0.7976,-0.7218,-0.6607,-0.6885,0.0,0.0,0.0,0.0,0.0,0.0,0.0,0.0,0.0,0.0,0.0,0.0,0.0,0.0,0.0,0.0,0.0,0.0,0.0,0.0,0.0,0.0,0.0,0.0,0.0,0.0,0.0,0.0,0.0,0.0,0.0,0.0,0.0,0.0,0.0,0.0,0.0,0.0,0.0,0.0,0.0,0.0,0.0,0.0,0.0,0.0,0.0,0.0,0.0,0.0,0.0,0.0,0.0,0.0,0.0,0.0,0.0,0.0,0.0,0.0,0.0,-1.8436,0.0,0.0,0.0,0.0,0.0,0.0,0.0,0.0,0.0,0.0,0.0,0.0,0.0,0.0,0.0,0.0,0.0,0.0,0.0,0.0,0.0,0.0,0.0,0.0,0.0,0.0,0.0,0.0,0.0,0.0,0.0,0.0,0.0,0.0,0.0,0.0,0.0,0.0,0.0,0.0,0.6747,0.281,0.0,0.0,0.0,-0.097,-0.339,-0.1474,-0.0738,-0.1998,0.1236,0.0,0.0,0.0,0.0,0.0,0.0,0.0,0.0,0.0,0.0,0.0,0.0,0.0,0.0,0.0,0.0,0.0,0.0,0.0,0.0,0.0,0.0,0.0,0.0,0.0,0.0,0.0,0.0,0.0,0.0,0.0,0.0,0.0,0.0,0.0,0.0,0.0,0.0,0.0,0.0,0.0,0.0,0.0,0.0,0.0,0.0,0.0,0.0,0.0,0.0,0.0,0.0,0.0,-1.973,-2.0116,-2.0543,-2.0543,-2.0621,-2.0748,-2.1073,-2.1383,-2.1565,0.0,0.0,0.0,0.0,0.0,0.0,0.0,0.0,0.0,0.0,0.0,0.0,0.0,0.0,0.0,0.0,0.0,0.0,0.0,0.0,0.0,0.0,0.0,0.0,0.0,-1.5914,-1.5393,0.0,0.0,0.0,0.0,0.0,0.0,0.0,0.0,0.0,0.0,0.0,0.0,0.6929,0.3597,0.1367,0.1993,0.2071,0.1996,0.1805,0.3868,0.4884,0.4262,0.7194,0.8748,0.0,0.0,0.0,0.0,0.0,0.0,0.0,0.0,0.0,0.0,0.0,0.0,0.0,0.0,0.0,0.0,0.0,0.0,0.0,0.0,0.0,0.0,0.0,0.0,0.0,0.0,0.0,0.0,0.0,0.0,0.0,0.0,-1.8255,-1.9586,0.0,0.0,0.0,0.0,0.0,0.0,0.0,0.0,0.0,0.0,0.0,0.0,0.0,-1.8196,-1.8254,-1.985,-2.0698,-2.0767,-2.2268,-2.3336,-2.3962,-2.3962,-2.4261,-2.4754,-2.3672,0.0,-2.166,-2.0968,0.0,0.0,0.0,0.0,0.0,0.0,0.0,0.0,0.0,0.0,0.0,0.0,0.0,0.0,0.0,0.0,0.0,0.0,0.0,0.0,0.0,0.0,-2.1646,-2.1091,-1.9529,-1.8194,0.0,-1.3542,-0.9008,-0.8133,-0.4819,0.0,0.0,0.0,0.0,0.0,0.0,0.0,0.9642,0.7464,0.6885,0.9904,1.0231,0.9886,0.9004,0.8198,0.8,0.8685,0.7418,0.7456,0.9235,1.0503,0.0,0.0,0.0,0.0,0.0,0.0,0.0,0.0,0.0,0.0,0.0,0.0,0.0,0.0,0.0,0.0,0.0,0.0,0.0,0.0,0.0,0.0,0.0,0.0,0.0,0.0,0.0,0.0,0.0,-1.6704,-1.8367,-1.8946,-1.8211,-1.7243,0.0,0.0,0.0,0.0,0.0,0.0,0.0,0.0,0.0,-1.8157,-2.0006,-2.0883,-2.072,-2.2622,-2.3585,-2.3585,-2.4358,-2.4881,-2.5158,-2.5158,-2.5307,-2.557,-2.4986,-2.4418,-2.3812,-2.285,-2.2596,-2.2646,0.0,0.0,0.0,0.0,-1.9821,-2.0445,-1.9643,-2.0854,0.0,0.0,0.0,0.0,0.0,0.0,0.0,0.0,0.0,0.0,0.0,0.0,0.0,-2.1037,-2.0055,-1.8922,-1.8622,-1.5357,-1.2105,0.0,-0.8577,-0.5026,0.0378,0.0,0.0,0.0,0.0,0.0,1.1115,0.8269,0.7077,1.0578,1.0975,1.0767,1.0344,1.1295,1.1872,1.1725,1.214,1.2582,1.3035,1.2904,1.2554,0.0,0.0,0.0,0.0,0.0,0.0,0.0,0.0,0.0,0.0,0.0,0.0,0.0,0.0,0.0,0.0,0.0,0.0,0.0,0.0,0.0,0.0,0.0,0.0,0.0,0.0,0.0,0.0,-1.7503,-1.8998,-1.9274,-1.8901,-1.8258,0.0,0.0,0.0,0.0,0.0,0.0,-1.8174,-1.9249,-1.9886,-1.9925,-2.2345,-2.3551,-2.3293,-2.4836,-2.5615,-2.5615,-2.5615,-2.5689,-2.5854,-2.5854,-2.5959,-2.6108,-2.6108,-2.6108,-2.6004,-2.4657,-2.4103,-2.4088,-2.3924,-2.3281,-2.2372,-2.186,-2.2105,-2.2581,-2.1772,-2.3076,-2.4911,-2.3856,0.0,-2.1468,-1.9922,0.0,0.0,0.0,0.0,-1.4769,-1.6618,-1.7677,-1.8627,-1.9931,-1.9585,-1.8703,-1.7794,-1.584,-1.4076,0.0,-1.1812,-0.843,-0.153,0.0,0.0,0.0,0.0,0.6239,1.2983,1.0514,0.9429,1.2907,1.305,1.2908,1.2921,1.4421,1.5256,1.5073,1.6282,1.6725,1.6175,1.4872,1.3623,1.2517,0.0,0.0,0.0,0.0,0.0,0.0,0.0,0.0,0.0,0.0,0.0,0.0,0.0,0.0,0.0,0.0,0.0,0.0,0.0,0.0,0.0,0.0,0.0,0.0,0.0,0.0,0.0,0.0,0.0,-2.2255,-2.3512,0.0,0.0,0.0,0.0,-2.0203,-2.0681,-2.15,-2.2613,-2.3227,-2.4052,-2.5191,-2.538,-2.5463,-2.5425,-2.5546,-2.5615,-2.5615,-2.5615,-2.5929,-2.6542,-2.6542,-2.6911,-2.7495,-2.7495,-2.7495,-2.7405,-2.6048,-2.551,-2.545,-2.4799,-2.4515,-2.438,-2.3723,-2.4291,-2.5405,-2.5352,-2.5806,-2.6393,-2.6323,-2.3699,-1.9924,-1.6304,-1.5297,0.0,0.0,-1.6267,-1.7582,-1.6886,-1.7947,-1.9154,-1.9262,-1.8601,-1.7697,-1.6695,-1.4749,-1.3799,0.0,-1.384,-1.0238,-0.5567,0.0,-0.0971,0.6683,0.7542,0.9602,1.59,1.6465,1.7623,2.1045,2.0485,1.9918,2.0081,1.8069,1.7588,1.9468,1.7581,1.6653,1.7117,1.6186,1.5893,1.6312,1.4665,0.0,0.0,0.0,0.0,0.0,0.0,0.0,0.0,0.0,0.0,0.0,0.0,0.0,0.0,0.0,0.0,0.0,0.0,0.0,0.0,0.0,0.0,0.0,0.0,0.0,0.0,0.0,0.0,-2.1264,-2.1469,0.0,0.0,-2.0979,-2.0928,-2.0068,-2.1232,-2.1999,-2.2021,-2.3,-2.3512,-2.346,-2.4767,-2.5467,-2.5467,-2.5922,-2.6434,-2.6896,-2.6896,-2.7016,-2.724,-2.724,-2.7375,-2.76,-2.76,-2.76,-2.7555,-2.7091,-2.6896,-2.6866,-2.6617,-2.6512,-2.6497,-2.6267,-2.6184,-2.6167,-2.6167,-2.6017,-2.5701,-2.5231,-2.3721,-2.1766,-1.9954,-1.8715,-1.7916,-1.7759,-1.785,-1.7908,-1.7551,-1.7486,-1.7523,-1.7431,-1.6787,-1.5878,-1.4812,-1.3509,-1.2382,-1.1859,-1.0207,-0.7905,-0.5026,-0.2597,0.1332,0.8456,0.8201,0.9627,1.6283,1.5247,1.5197,1.8611,1.9268,1.9522,1.9559,1.9372,1.9608,2.0294,1.9288,1.8723,1.8936,1.6867,1.5822,1.6019,1.2649,1.1055,0.0,0.0,0.0,0.0,0.0,0.0,0.0,0.0,0.0,0.0,0.0,0.0,0.0,0.0,0.0,0.0,0.0,0.0,0.0,0.0,0.0,0.0,0.0,0.0,0.0,0.0,-2.095,-2.1538,-2.1891,-2.197,-2.172,-2.232,-2.2449,-2.1747,-2.2935,-2.3658,-2.3519,-2.45,-2.4824,-2.4323,-2.5953,-2.6539,-2.5935,-2.6719,-2.7211,-2.7397,-2.7706,-2.7853,-2.7838,-2.7906,-2.7588,-2.703,-2.7419,-2.723,-2.6693,-2.733,-2.76,-2.76,-2.76,-2.76,-2.76,-2.76,-2.7111,-2.6431,-2.5933,-2.5425,-2.4866,-2.3829,-2.2887,-2.2041,-2.1247,-2.0009,-1.8844,-1.8844,-1.8462,-1.7852,-1.7176,-1.6566,-1.5948,-1.5161,-1.4593,-1.3822,-1.2419,-1.1357,-1.0164,-0.8447,-0.7707,-0.6538,-0.3971,-0.1835,0.1874,0.887,0.8561,0.9753,1.5856,1.5195,1.5023,1.7286,1.8398,1.9164,1.952,1.9459,1.9902,2.0999,2.0071,1.9783,2.0369,1.7883,1.6368,1.6044,1.1559,0.9609,1.0344,0.0,0.0,0.0,0.0,0.0,0.0,0.0,0.0,0.0,0.0,0.0,0.0,0.0,0.0,0.0,0.0,0.0,0.0,0.0,0.0,0.0,0.0,0.0,-1.844,-2.0834,-2.2789,-2.3314,-2.5161,-2.6122,-2.5398,-2.6001,-2.6123,-2.5398,-2.5849,-2.6523,-2.7365,-2.7867,-2.8154,-2.8154,-2.8956,-2.8606,-2.6919,-2.7781,-2.7838,-2.7063,-2.7896,-2.8297,-2.8311,-2.8545,-2.7617,-2.5912,-2.7104,-2.6569,-2.5024,-2.6822,-2.7575,-2.7575,-2.76,-2.76,-2.7575,-2.7575,-2.7086,-2.6229,-2.4712,-2.4224,-2.4018,-2.2451,-2.1333,-2.043,-1.9595,-1.8721,-1.8008,-1.8008,-1.8008,-1.7579,-1.5693,-1.5163,-1.4641,-1.2627,-1.2128,-1.1563,-0.9526,-0.8279,-0.725,-0.6201,-0.6785,-0.6345,-0.2772,-0.1949,0.0572,0.7613,0.8765,0.0,1.4879,1.6944,1.7983,1.8018,1.8574,1.9386,2.0547,1.8512,1.8588,2.1837,2.0019,1.9579,2.1361,1.9338,1.767,1.6596,1.1876,0.9959,1.106,0.0,0.0,0.0,0.0,0.0,0.0,0.0,0.0,0.0,0.0,0.0,0.0,0.0,0.0,0.0,0.0,0.0,0.0,0.0,0.0,0.0,0.0,-2.0249,-2.0571,-2.1643,-2.2588,-2.3119,-2.3693,-2.3946,-2.3754,-2.432,-2.4597,-2.44,-2.4867,-2.527,-2.5537,-2.4913,-2.4534,-2.4534,-2.4757,-2.4933,-2.5034,-2.6058,-2.7031,-2.7968,-2.8183,-2.8297,-2.8325,-2.9003,-2.8429,-2.6911,-2.7343,-2.7269,-2.6837,-2.681,-2.68,-2.6852,-2.7382,-2.728,-2.68,-2.68,-2.6,-2.466,-2.2881,-2.2767,-2.3365,-2.2914,-2.1803,-2.0558,-2.0333,-1.9199,-1.8008,-1.8008,-1.8008,-1.7579,-1.5693,-1.4617,-1.3548,-1.1649,-1.0686,-0.9648,-0.7493,-0.6887,-0.5717,-0.222,-0.1774,-0.1885,-0.16,0.3199,0.7676,0.9664,1.2794,0.0,1.6618,1.7192,1.7772,1.8504,1.7999,1.8694,2.1329,2.0195,2.0432,2.2941,2.1813,2.1303,2.179,2.0262,1.7677,1.393,1.269,1.0818,0.0,0.0,0.0,0.0,0.0,0.0,0.0,0.0,0.0,0.0,0.0,0.0,0.0,0.0,0.0,0.0,0.0,0.0,0.0,0.0,0.0,0.0,-1.9106,-2.0988,-2.157,-2.2242,-2.2892,-2.3535,-2.3808,-2.3949,-2.3949,-2.4461,-2.4682,-2.4375,-2.4845,-2.5297,-2.564,-2.5262,-2.4813,-2.4368,-2.5162,-2.5219,-2.4533,-2.5934,-2.696,-2.7554,-2.7892,-2.8044,-2.8061,-2.8654,-2.8011,0.0,-2.6807,-2.6534,-2.5842,-2.5967,-2.6041,0.0,0.0,0.0,0.0,0.0,-2.5035,-2.4113,-2.2687,-2.235,-2.2641,-2.2975,-2.1729,-2.0107,-2.0494,-1.9019,-1.7165,-1.6927,-1.6447,-1.5731,-1.4371,-1.3244,-1.2087,-1.0599,-0.9552,-0.8291,-0.6118,-0.5368,-0.4048,-0.047,0.1348,0.0,0.2238,0.5803,0.9266,1.093,1.3024,1.5093,1.6919,1.734,1.8081,1.9505,1.9727,2.0539,2.2396,2.1486,0.0,0.0,0.0,2.1051,2.0643,1.8741,0.0,0.0,0.0,0.9169,0.6543,0.0,0.0,0.0,1.1587,1.2781,0.0,0.0,0.0,0.0,0.0,0.0,0.0,0.0,0.0,0.0,0.0,0.0,0.0,0.0,0.0,0.0,-1.9312,-2.1342,-2.2056,-2.2757,-2.3466,-2.4181,-2.4721,-2.5074,-2.5074,-2.5559,-2.5599,-2.494,-2.5398,-2.6052,-2.681,0.0,0.0,0.0,0.0,-2.7325,-2.4833,-2.6627,-2.7263,-2.6658,-2.7351,-2.7703,-2.771,-2.7981,-2.7111,-2.5385,-2.6022,-2.5287,-2.3815,-2.4913,-2.5328,-2.5342,-2.6014,-2.5837,-2.5161,-2.4178,-2.3913,-2.3917,-2.3064,0.0,0.0,-2.2702,-2.131,-1.9431,-2.0236,-1.8428,-1.6054,-1.5579,-1.4554,-1.3418,-1.278,-1.1762,-1.0736,-0.976,-0.8599,-0.7141,-0.5144,-0.377,-0.2244,0.0128,0.3248,0.5934,0.7256,0.7383,0.8449,1.1971,1.2008,1.3012,1.6832,1.7777,1.8917,2.0968,0.0,0.0,2.3795,2.2527,2.2692,2.5015,2.2286,2.0115,1.9107,1.636,1.3781,1.1433,0.8624,0.6826,0.6135,0.6896,0.8847,1.1885,1.1167,1.2725,0.0,0.0,0.0,0.0,0.0,0.0,0.0,0.0,0.0,0.0,0.0,0.0,0.0,0.0,0.0,-1.8674,-2.0452,-2.2161,-2.343,-2.3735,-2.389,-2.4044,-2.4538,-2.4868,-2.4868,-2.5337,-2.5588,-2.5448,-2.5975,-2.6391,-2.6561,-2.58,0.0,-2.5065,-2.5416,-2.5332,-2.482,-2.6068,-2.6973,-2.7484,0.0,0.0,-2.7736,-2.8466,-2.7922,-2.6433,-2.6648,-2.6351,-2.5637,-2.5309,-2.4906,-2.4538,-2.4681,-2.4652,-2.4218,-2.1857,-2.1576,-2.2207,-2.1127,-2.0808,-2.0974,-2.1846,-2.0846,-1.9332,-1.9497,-1.8132,0.0,-1.6394,-1.5765,-1.4944,-1.4095,-1.2587,-1.1033,-1.0067,-0.7702,-0.5294,-0.3996,-0.2068,0.0087,0.2473,0.5024,0.7425,0.9568,1.2069,1.4044,1.482,1.7038,1.8938,1.9772,1.9984,2.0798,2.28,2.0984,2.1357,2.5575,2.334,2.2983,2.6027,2.4096,2.2404,2.1392,1.8353,1.602,1.4577,1.1313,0.9513,0.9326,0.8528,0.8974,1.0615,1.2252,1.4996,0.0,0.0,0.0,0.0,0.0,0.0,0.0,0.0,0.0,0.0,0.0,-1.4991,0.0,0.0,-1.697,-1.785,-1.9275,-2.0638,-2.1776,-2.318,-2.4177,-2.438,-2.4883,-2.5209,-2.5209,-2.5711,-2.6059,-2.6059,-2.6587,-2.6901,-2.6901,-2.6615,-2.6214,-2.5661,-2.5912,-2.5787,-2.5222,-2.6072,-2.6679,-2.7095,-2.7095,-2.7095,-2.7095,-2.7537,-2.7314,-2.6578,-2.6361,-2.5979,-2.5424,-2.4486,-2.3936,-2.3649,-2.3267,-2.3088,-2.2922,-2.1572,-2.1139,-2.1158,-2.0607,-2.0196,-2.0074,-2.0985,-2.0074,-1.8721,-1.9177,-1.766,-1.5661,-1.4798,-1.3614,-1.2409,-1.1511,-1.0213,-0.915,-0.9146,-0.7088,-0.4813,-0.3727,-0.1636,0.0712,0.3121,0.5943,0.8692,1.0989,1.4192,1.6456,1.6456,1.7865,1.9541,2.1106,2.0817,2.1247,2.3294,2.2499,2.2914,2.5531,2.4731,2.4572,2.5673,2.4325,2.3036,2.2027,1.784,1.552,1.5514,1.0464,0.8094,0.8567,0.8429,0.89,0.9988,1.3355,1.5883,0.0,0.0,0.0,0.0,0.0,0.0,0.0,0.0,-1.4413,-1.4777,-1.4969,-1.5263,-1.5818,-1.5918,-1.6202,-1.7155,-1.8167,-1.9227,-2.0279,-2.2605,-2.4364,-2.4797,-2.5398,-2.5762,-2.5762,-2.6323,-2.665,-2.665,-2.7165,-2.7444,-2.7444,-2.7871,-2.7695,-2.6839,-2.7241,-2.6954,-2.5937,-2.6424,-2.66,-2.6499,-2.6499,-2.6499,-2.6499,-2.6499,-2.6499,-2.6461,-2.585,-2.5198,-2.4462,-2.3623,-2.3117,-2.2793,-2.2156,-2.1815,-2.1628,-2.1459,-2.0942,-2.0365,-2.0365,-1.9792,-1.9166,-1.9857,-1.9042,-1.7909,-1.8407,-1.6914,-1.4647,-1.305,-1.1369,-0.9856,-0.8958,-0.8007,-0.7418,-0.801,-0.642,-0.4457,-0.3198,-0.1024,0.1424,0.3829,0.6903,0.9818,1.1864,1.5043,1.7374,1.7585,1.7827,1.8841,2.1382,2.0969,2.1151,2.3025,2.3927,2.4564,2.4969,2.5908,2.6164,2.5335,2.4145,2.3147,2.2328,1.6902,1.4552,1.5886,0.9009,0.6355,0.828,0.8425,0.928,1.0866,1.4675,1.637,-1.1948,-1.2237,-1.313,-1.313,-1.4494,-1.5699,0.0,0.0,-1.7301,-1.658,-1.7057,-1.7614,-1.7681,-1.7725,-1.8097,-1.9328,-1.9656,-2.0379,-2.2132,-2.3433,-2.4386,-2.4931,-2.582,-2.6399,-2.6399,-2.6901,-2.7228,-2.7228,-2.7708,-2.8009,-2.8009,-2.8072,-2.8047,-2.7921,-2.7984,-2.772,-2.714,-2.719,-2.6977,-2.6499,-2.6499,-2.6499,-2.6499,-2.6499,-2.6499,-2.6461,-2.585,-2.4876,-2.3664,-2.3827,-2.3145,-2.2044,-2.1939,-2.1428,-2.0655,-1.9879,-1.9529,-1.9464,-1.9464,-1.8877,-1.8158,-1.8194,-1.7716,-1.6965,-1.6253,-1.5391,-1.4416,-1.3183,-1.228,-1.1376,-1.028,-0.9321,-0.8445,-0.7494,-0.5447,-0.3157,-0.089,0.1514,0.3874,0.6254,0.8713,1.0816,1.206,1.5079,1.7626,1.8678,1.9638,2.0362,2.0712,2.0673,2.1001,2.2027,2.2253,2.3073,2.4862,2.5908,2.6465,2.6349,2.4552,2.3441,2.3331,1.7278,1.4903,1.7074,0.9397,0.8011,1.3286,1.0224,1.0905,1.5054,1.6507,1.7296,-1.38,-1.4175,0.0,0.0,-1.6423,-1.7148,-1.6963,-1.749,-1.791,-1.7516,-1.7764,-1.8086,-1.8295,-1.7978,-1.8075,0.0,-1.9823,-2.0271,-2.0975,-2.3151,-2.4543,-2.4158,-2.4966,-2.5624,-2.5959,-2.6766,-2.719,-2.6864,-2.7908,-2.8586,-2.8586,-2.89,-2.9089,-2.9089,-2.8762,-2.8323,-2.777,-2.7444,-2.704,-2.6499,-2.6499,-2.6499,-2.6499,-2.6499,-2.6164,-2.5627,-2.5601,-2.4764,-2.3387,-2.3276,-2.2713,-2.1815,-2.0782,-2.0171,-1.9814,-1.9431,-1.8977,-1.8519,-1.8519,-1.8462,-1.823,-1.7579,-1.7396,-1.7229,-1.6155,-1.5389,-1.4518,-1.2658,-1.1645,-1.0724,-0.8888,-0.8134,-0.757,-0.641,-0.4812,-0.2942,-0.0534,0.1915,0.4101,0.5786,0.8551,1.0945,1.2062,1.4518,1.6968,1.8709,1.9923,2.0605,2.0605,2.0605,2.1193,2.2702,2.2888,2.3697,2.5699,2.5734,2.5886,2.6452,2.4061,2.2888,2.3489,1.7317,1.4993,1.7253,0.8767,0.6906,1.208,0.9143,0.98,1.3728,1.617,1.803,-1.4504,0.0,0.0,-1.6889,-1.7519,-1.7871,-1.7978,-1.8008,-1.8047,-1.812,-1.8184,-1.8276,-1.8705,-1.832,0.0,-1.9287,-1.9792,-2.0058,-2.0103,-2.268,-2.4196,-2.3181,-2.4222,-2.5008,-2.4921,-2.6214,-2.7115,-2.7165,-2.8114,-2.8835,-2.9126,-2.9271,-2.9495,-2.9792,-2.939,-2.89,-2.8335,-2.7783,-2.7112,-2.6305,-2.6458,-2.6349,-2.6094,-2.6094,-2.5699,-2.4981,-2.5006,-2.4098,-2.2604,-2.2546,-2.1978,-2.1069,-1.9781,-1.9299,-1.9266,-1.9044,-1.8519,-1.7959,-1.7791,-1.7916,-1.796,-1.6715,-1.6638,-1.6784,-1.5653,-1.5091,-1.4329,-1.1993,-1.0969,-1.0048,-0.7705,-0.6874,-0.6337,-0.5179,-0.3746,-0.1959,0.049,0.2629,0.455,0.6062,0.8646,1.094,1.2051,1.4149,1.6224,1.7859,1.9274,2.0284,2.0566,2.0605,2.1346,2.3294,2.3514,2.4325,2.6349,2.5594,2.5441,2.643,2.3686,2.244,2.3441,1.7317,1.4993,1.7253,0.8276,0.6239,1.1551,0.8806,0.9586,1.3688,1.6734,1.927,0.0,0.0,-1.48,-1.6345,-1.708,-1.751,-1.792,-1.8008,-1.8125,-1.85,-1.8588,-1.8715,-1.9189,-1.9248,-1.9375,-1.9824,-1.9883,-2.0067,-2.0527,-2.2291,-2.3167,-2.2076,-2.409,-2.4946,0.0,-2.5197,-2.7178,-2.87,-2.8414,-2.8612,-2.9728,-2.8755,-2.8648,-2.9753,-2.9779,-2.949,-2.8875,-2.8348,-2.7335,-2.5827,-2.6295,-2.599,-2.5052,-2.5052,-2.5052,-2.4933,-2.3988,-2.2559,-2.0931,-2.168,-2.0983,-1.9365,-1.9299,-1.9299,-1.921,-1.8337,-1.8008,-1.7895,-1.725,-1.7027,-1.6808,-1.5172,-1.4894,-1.501,-1.3987,-1.3876,-1.3633,-1.1289,-1.0605,-1.0048,-0.7705,-0.6293,-0.5134,-0.3927,-0.1826,0.0534,0.2986,0.4463,0.6021,0.836,0.9792,1.095,1.2109,1.4176,1.5737,1.5779,1.7649,1.9402,2.0489,2.0605,2.1346,2.3294,2.3514,2.4325,2.6349,2.5594,2.5441,2.643,2.3686,2.244,2.3441,1.7317,1.4993,1.7253,0.8276,0.7028,1.3997,1.0421,1.1595,1.7204,1.93,2.1435,0.0,0.0,-1.5575,-1.6851,-1.748,-1.791,-1.8295,-1.8393,-1.851,-1.8984,-1.8613,-1.8315,-1.8779,-1.8398,-1.835,-1.9336,-1.9575,-1.9859,-2.0496,-2.1289,-2.181,-2.1962,-2.2397,0.0,0.0,0.0,0.0,-2.6215,-2.737,-2.7976,-2.7637,-2.725,-2.7209,-2.7597,-2.7597,-2.734,-2.6725,-2.6938,-2.6263,-2.4731,-2.4568,-2.466,-2.4981,-2.4301,-2.4,-2.4,-2.3672,-2.2426,-2.0719,-2.1061,-2.0437,-1.9233,-1.8654,-1.8608,-1.8789,-1.8522,-1.8613,-1.8686,-1.7415,-1.7376,-1.752,-1.556,-1.5197,-1.53,-1.4261,-1.3435,-1.2595,-1.1042,-1.0053,-0.91,-0.7533,-0.6248,-0.509,-0.3881,-0.1737,0.0668,0.3077,0.4552,0.5847,0.7397,0.927,1.074,1.1123,1.3105,1.5137,1.6568,1.802,1.9402,2.044,2.0605,2.1088,2.2366,2.311,2.377,2.4433,2.4181,2.4145,2.4469,2.1694,2.0759,2.244,1.6243,1.3818,1.6147,0.9413,0.7872,1.1783,1.1256,1.2816,1.6228,1.9067,2.1501,-1.3641,-1.4872,-1.6016,-1.7286,-1.793,-1.8266,-1.8539,-1.8724,-1.8994,-1.9424,-1.9072,-1.8721,-1.8848,-1.8428,-1.8365,-1.916,-1.9374,-1.9717,-2.0477,-2.1009,-2.1326,-2.1439,-2.1756,0.0,0.0,0.0,0.0,-2.5575,-2.647,-2.6747,-2.6078,-2.5662,-2.5746,-2.6472,-2.6524,-2.6315,-2.595,-2.5929,-2.5291,-2.3959,-2.3301,-2.3478,-2.4409,-2.3404,-2.2725,-2.23,-2.2412,-2.1313,-1.952,-2.0037,-1.9698,-1.8798,-1.837,-1.8364,-1.8582,-1.8371,-1.855,-1.8751,-1.7379,-1.7278,-1.7393,-1.54,-1.4937,-1.5019,-1.4292,-1.3252,-1.2066,-1.0913,-0.9792,-0.8627,-0.7404,-0.5935,-0.4552,-0.3792,-0.1113,0.1692,0.3256,0.4863,0.6204,0.6962,0.9008,1.0611,1.0611,1.2565,1.4824,1.6976,1.7908,1.8917,2.0401,2.0605,2.0972,2.1886,2.259,2.3257,2.3963,2.3368,2.3257,2.4,2.1219,2.0285,2.1914,1.6096,1.3686,1.5576,0.9604,0.8269,1.1835,1.2049,1.3918,1.7394,2.0188,2.2424,-1.4854,-1.5707,-1.6169,-1.7654,-1.8305,-1.8617,-1.8656,-1.9023,-1.9424,-1.9805,-1.9844,-1.9678,0.0,0.0,-1.9121,-1.9209,-1.9189,-1.9463,-2.038,-2.1253,-2.1428,0.0,0.0,0.0,0.0,0.0,0.0,-2.6538,0.0,-2.5172,-2.5094,-2.4086,-2.4333,-2.6284,-2.6318,-2.6318,-2.6318,-2.5338,-2.4347,-2.3404,-2.2403,-2.244,-2.3404,-2.2403,-2.1288,-2.0194,-2.0472,-1.9431,-1.7578,-1.8789,-1.8799,-1.8086,-1.8451,-1.8627,-1.8608,-1.7972,-1.7979,-1.8157,-1.7041,-1.664,-1.6389,-1.4643,-1.4046,-1.3997,-1.4088,-1.316,-1.1895,-1.0869,-0.9749,-0.854,-0.7401,-0.5351,-0.3614,-0.3614,0.0089,0.3614,0.3614,0.544,0.7095,0.7095,0.9008,1.0654,1.074,1.2687,1.4901,1.6976,1.7342,1.8181,2.0323,2.0605,2.0934,2.1849,2.1952,2.2739,2.46,2.3073,2.2776,2.4671,2.2038,2.0847,2.18,1.6718,1.4386,1.5412,0.9177,0.8518,1.3807,1.2881,1.5165,2.0372,2.251,2.4036,-1.4678,-1.6036,-1.7591,-1.827,-1.852,-1.8773,-1.9407,-1.9668,-1.9697,-1.9482,-1.8945,-1.8237,0.0,0.0,0.0,-1.8125,-1.7803,0.0,-1.8965,-1.9061,0.0,0.0,0.0,-2.174,-2.2938,-2.4113,0.0,0.0,-2.4697,-2.4535,-2.3681,-2.334,-2.345,-2.3973,-2.3973,-2.3973,-2.3973,-2.3102,-2.2587,-2.2366,-2.1413,-2.1451,-2.2366,-2.1375,-2.1154,-2.1497,-2.0861,-1.993,-1.8828,-1.916,-1.8965,-1.8451,-1.8559,-1.8987,-1.9451,-1.8485,-1.8422,-1.8558,-1.6621,-1.5937,-1.5748,-1.451,-1.347,-1.2942,-1.3822,-1.2089,-0.9879,-1.0438,-0.9139,-0.7489,-0.7183,-0.5351,-0.3614,-0.3614,0.0089,0.3614,0.3614,0.544,0.7095,0.7095,0.9008,1.1176,1.2912,1.4384,1.5745,1.709,1.8029,1.9076,2.0401,2.0605,2.0673,2.0934,2.1593,2.1924,2.1756,2.1886,2.1924,2.1718,1.9483,1.8621,1.9728,1.605,1.3684,1.3065,1.2998,1.2451,1.139,1.5327,1.788,1.9212,2.2147,2.4036,-1.5701,-1.6788,-1.7808,-1.8434,-1.889,-1.9192,-1.929,-1.9502,-1.9463,-1.8848,-1.835,0.0,0.0,0.0,0.0,0.0,0.0,0.0,-1.8734,-1.8721,-1.8662,0.0,-1.9893,0.0,-2.2635,-2.3572,-2.3835,0.0,-2.3878,-2.3752,-2.2631,-2.2588,-2.2754,-2.3081,-2.3091,-2.2916,-2.2598,-2.1934,-2.152,-2.1375,-2.0857,-2.0895,-2.1375,-2.0828,-2.0577,-2.0531,0.0,-1.9901,-1.8769,-1.9326,-1.9307,-1.8936,-1.9085,-1.9455,-1.9743,-1.8356,-1.8047,-1.794,-1.5752,-1.5019,-1.4894,-1.4292,-1.3294,-1.2413,-1.3118,-1.1262,-0.9021,-0.9666,-0.8532,-0.7095,-0.7095,-0.5351,-0.3614,-0.3614,0.0089,0.3614,0.3614,0.544,0.7401,0.8444,0.9701,1.1348,1.3695,1.4615,1.5338,1.6437,1.7536,1.863,1.9766,2.0323,2.0605,2.0605,2.1078,2.1336,2.1221,2.1336,2.1336,2.1231,1.9207,1.835,1.8957,1.576,1.341,1.2228,1.3442,1.3394,1.1993,1.6621,1.9529,2.0865,2.3095,2.4707,-1.6729,-1.7406,-1.7558,-1.8311,-1.9216,-1.9736,-1.9017,-1.902,-1.8899,-1.8012,0.0,-1.7431,-1.6664,0.0,-1.698,-1.7871,0.0,-1.8203,-1.8779,-1.9111,-1.9228,-1.9053,-1.993,-2.0889,-2.1797,-2.2448,-2.2916,-2.3081,-2.3337,-2.3063,-2.2134,-2.2051,-2.2383,-2.3071,-2.3042,-2.2676,-2.1894,-2.1414,-2.1016,-2.0605,-2.0605,-2.0605,-2.0605,-2.0605,-1.9951,-1.8919,0.0,0.0,-1.835,-1.9453,-1.9697,-1.9404,-1.9775,-1.9828,-1.9573,-1.79,-1.7212,-1.6813,-1.4776,-1.4088,-1.4088,-1.4088,-1.316,-1.2114,-1.2237,-1.0605,-0.8715,-0.8846,-0.8013,-0.7095,-0.7095,-0.5351,-0.3614,-0.3614,0.0089,0.3614,0.3614,0.544,0.7793,1.0135,1.0611,1.1348,1.3695,1.4208,1.4615,1.5579,1.6723,1.7868,1.8877,1.9923,2.0605,2.0605,2.0605,2.0934,2.1735,2.1088,2.0934,2.1773,1.9914,1.8758,1.8758,1.5849,1.3584,1.2246,1.2656,1.3274,1.4124,1.7246,2.037,2.3514,2.4373,2.5406,-1.4874,-1.6446,-1.8285,-1.8082,-1.8975,-1.9971,-2.0185,-1.924,0.0,0.0,0.0,-1.5891,-1.5744,-1.6265,0.0,-1.7871,0.0,0.0,0.0,0.0,-1.8896,0.0,0.0,0.0,0.0,0.0,0.0,0.0,0.0,-2.3083,-2.292,-2.2877,-2.2945,-2.3091,-2.276,-2.2383,-2.1894,-2.1414,-2.1016,-2.0605,-2.0605,-2.0605,-2.0605,-2.0605,-2.0478,-2.0282,-2.0507,0.0,-1.96,-1.9824,-1.9873,-1.9814,-1.9883,-1.9583,-1.9025,-1.7762,-1.6723,-1.5786,-1.4538,-1.4088,-1.4088,-1.4088,-1.265,-1.108,-1.2023,-0.9995,-0.7621,-0.8627,-0.8013,-0.7095,-0.7095,-0.5351,-0.3614,-0.3614,0.0089,0.3614,0.3614,0.544,0.7793,1.0135,1.0611,1.1348,1.3695,1.4852,1.5504,1.5655,1.7407,1.8798,1.8957,1.9923,2.0605,2.0605,2.0605,2.0673,2.0828,2.0673,2.0673,2.0818,1.878,1.7577,1.7577,1.6183,1.442,1.231,1.5016,1.6039,1.5315,1.7774,2.0526,2.3514,2.3672,2.4731,-1.4333,-1.5438,-1.6745,-1.7161,-1.8371,-1.9133,-1.8053,0.0,0.0,0.0,0.0,-1.4337,-1.4741,0.0,0.0,0.0,0.0,0.0,0.0,0.0,0.0,0.0,0.0,0.0,0.0,0.0,0.0,0.0,0.0,-2.2676,-2.3071,-2.3091,-2.3091,-2.3091,-2.2519,-2.209,-2.1885,-2.1221,-2.0781,-2.0605,-2.0605,-2.0605,-2.0605,-2.0605,-2.0605,-2.0605,-2.0605,0.0,-1.8775,-1.982,-1.9666,-1.8747,-1.925,-1.9266,-1.8789,-1.709,-1.615,-1.5538,-1.4447,-1.4088,-1.4088,-1.4088,-1.2516,-1.0697,-1.1252,-0.9392,-0.7228,-0.7797,-0.7132,-0.6204,-0.6204,-0.4463,-0.2681,-0.2681,0.0535,0.3926,0.5174,0.629,0.7617,0.9362,1.0183,1.1171,1.2857,1.409,1.4859,1.4859,1.6723,1.8109,1.8109,1.955,2.0605,2.0605,2.0605,2.0362,1.9795,2.0284,2.0362,1.9805,1.8221,1.7302,1.7302,1.5711,1.4077,1.2328,1.5584,1.6724,1.5617,1.8928,2.1552,2.3514,2.4036,2.5063,-1.3956,-1.4694,-1.5289,-1.6181,-1.7539,-1.807,-1.5939,-1.5813,0.0,0.0,-1.287,-1.2989,-1.3821,0.0,0.0,0.0,0.0,0.0,0.0,0.0,0.0,0.0,0.0,0.0,0.0,0.0,0.0,0.0,0.0,0.0,-2.3062,-2.3091,-2.3052,-2.2964,-2.2275,-2.1836,-2.1748,-2.0997,-2.0605,-2.0605,-2.0605,-2.0605,-2.0605,-2.0605,-2.0605,-2.0605,-2.0605,0.0,0.0,-1.9554,-1.9241,-1.7752,-1.8407,-1.8638,-1.839,-1.6429,-1.5538,-1.5255,-1.4412,-1.4088,-1.4088,-1.4088,-1.2516,-1.0611,-1.0611,-0.8965,-0.7095,-0.7095,-0.6293,-0.5403,-0.5403,-0.3619,-0.161,-0.0849,0.1517,0.4237,0.6602,0.7095,0.7533,0.8973,0.9966,1.1042,1.2462,1.347,1.4088,1.4088,1.5711,1.705,1.7253,1.9027,2.0362,2.0566,2.0605,2.0167,1.9076,1.9756,1.9883,1.9036,1.7948,1.7423,1.7658,1.5587,1.4013,1.3044,1.5632,1.6651,1.5968,1.9819,2.2269,2.3514,2.4528,2.5546,-1.2966,-1.4486,-1.5974,-1.5525,-1.6469,-1.7239,-1.6463,0.0,0.0,-1.323,-1.2455,-1.2171,-1.3026,-1.3794,-1.4546,0.0,0.0,0.0,0.0,0.0,0.0,0.0,0.0,0.0,0.0,0.0,0.0,0.0,0.0,0.0,-2.3091,-2.3091,-2.2916,-2.2578,-2.2129,-2.1699,-2.1259,-2.081,-2.0605,-2.0605,-2.0605,-2.0605,-2.0605,-2.0605,-2.0605,-2.0605,-2.0605,0.0,0.0,-1.8848,-1.8702,-1.7998,-1.7601,-1.7464,-1.7293,-1.615,-1.5095,-1.425,-1.4124,-1.4088,-1.4088,-1.4088,-1.2516,-1.0611,-1.0611,-0.8965,-0.7095,-0.7095,-0.6293,-0.5403,-0.5403,-0.3619,-0.0983,0.232,0.3347,0.4237,0.6602,0.7095,0.7749,1.0005,1.0524,1.1305,1.3561,1.4046,1.4088,1.4088,1.5103,1.6191,1.7172,1.839,1.952,2.0489,2.0605,2.0167,1.9076,1.9076,1.9116,1.9006,1.7948,1.7738,1.8798,1.6723,1.5496,1.5406,1.5696,1.6273,1.7163,1.9418,2.1549,2.3514,2.4528,2.5546,-1.2058,-1.3278,-1.4627,-1.4598,-1.5449,-1.5905,-1.4282,0.0,0.0,-1.1916,-1.1316,-1.1336,-1.2155,-1.2576,-1.3212,0.0,0.0,0.0,0.0,0.0,0.0,0.0,0.0,0.0,0.0,0.0,0.0,0.0,0.0,0.0,-2.2353,-2.2627,-2.2685,-2.2519,-2.1846,-2.1375,-2.119,-2.0791,-2.0605,-2.0605,-2.0605,-2.0605,-2.0605,-2.0605,-2.0605,-2.0566,-1.9923,0.0,0.0,-1.7458,-1.686,-1.5184,-1.6,-1.6355,-1.6191,-1.5137,-1.4454,-1.3997,-1.3288,-1.347,-1.387,-1.2431,-1.1343,-1.0611,-1.0611,-0.8965,-0.7095,-0.7095,-0.5755,-0.433,-0.433,-0.2504,-0.0179,0.2012,0.3081,0.4061,0.5714,0.6605,0.7356,0.8313,0.9614,1.0913,1.1821,1.3173,1.4088,1.4088,1.5012,1.5861,1.6273,1.7293,1.839,1.952,2.0196,1.9883,1.8149,1.8598,1.843,1.7082,1.6593,1.6846,1.7948,1.5876,1.5345,1.6642,1.6642,1.7212,1.831,1.9806,2.1229,2.2627,2.3624,2.4636,-1.1724,-1.2607,-1.3673,-1.4015,-1.4518,-1.4488,0.0,0.0,-1.2654,-1.0955,-1.0593,-1.0776,-1.1351,-1.1437,-1.187,-1.321,0.0,-1.4553,0.0,0.0,0.0,0.0,0.0,0.0,0.0,0.0,0.0,0.0,0.0,0.0,0.0,-2.2051,-2.2139,-2.2139,-2.1512,-2.1132,-2.1035,-2.0723,-2.0605,-2.0605,-2.0284,-2.0033,-1.988,-2.0052,-1.9858,-1.9351,0.0,0.0,0.0,-1.6257,-1.5543,-1.3719,-1.4812,-1.5421,-1.5579,-1.4489,-1.4088,-1.3913,-1.2723,-1.2857,-1.3252,-1.1257,-1.0351,-1.0096,-1.0096,-0.8707,-0.7095,-0.7095,-0.5395,-0.3436,-0.2726,-0.1254,0.0314,0.1522,0.2458,0.3482,0.5045,0.6027,0.6782,0.7489,0.8969,1.0308,1.0999,1.2467,1.3688,1.4039,1.4734,1.5338,1.5662,1.6355,1.7253,1.839,1.9155,1.9146,1.7908,1.8559,1.8181,1.6273,1.6191,1.6519,1.7253,1.5545,1.5262,1.6805,1.7131,1.7698,1.851,2.0177,2.1336,2.2027,2.3331,2.448,-1.2058,-1.2914,-1.3673,-1.4015,-1.3647,-1.3053,0.0,0.0,-1.1269,-1.0713,-1.0593,-1.0593,-1.0624,-1.0624,-1.078,-1.1329,-1.2139,0.0,0.0,0.0,0.0,0.0,0.0,0.0,0.0,0.0,0.0,0.0,0.0,0.0,0.0,-2.1444,-2.121,-2.121,-2.12,-2.1025,-2.0615,-2.0605,-2.0605,-2.0605,-1.952,-1.8706,-1.8156,-1.8722,-1.8087,0.0,0.0,0.0,0.0,-1.5468,-1.5348,-1.473,-1.4289,-1.4776,-1.5579,-1.4489,-1.4088,-1.3913,-1.2723,-1.2328,-1.2109,-1.095,-0.9836,-0.8934,-0.8934,-0.8057,-0.7095,-0.7095,-0.5395,-0.3037,-0.0673,0.0,0.0314,0.1522,0.179,0.2459,0.4868,0.5403,0.611,0.8448,0.889,0.9623,1.1895,1.2285,1.2723,1.3913,1.413,1.4489,1.5579,1.5703,1.615,1.7212,1.7342,1.7779,1.8877,1.8997,1.851,1.7374,1.7302,1.7302,1.7302,1.6273,1.5696,1.5737,1.6764,1.7302,1.7334,2.0469,2.1989,2.2027,2.4036,2.5511,-1.1122,-1.1904,-1.2746,-1.2846,-1.2726,-1.2432,-1.1837,0.0,-1.1263,-1.0713,-1.0593,-1.0593,-1.0593,-1.0593,-1.0787,-1.1295,-1.1628,0.0,0.0,0.0,0.0,0.0,0.0,0.0,0.0,0.0,0.0,0.0,0.0,0.0,0.0,-1.9789,-1.9805,-2.0123,-2.0561,-2.038,-1.952,-2.0235,-2.0235,-1.9481,-1.9155,-1.83,-1.698,-1.7559,0.0,0.0,0.0,0.0,0.0,-1.4595,-1.4122,-1.3495,-1.3933,-1.4292,-1.4573,-1.4208,-1.4088,-1.3822,-1.1821,-1.1638,-1.1852,-0.9091,-0.8536,-0.8759,-0.7929,-0.7401,-0.6782,-0.5174,-0.3571,-0.2013,-0.0404,0.0,0.009,0.0494,0.121,0.2236,0.3838,0.4821,0.5847,0.7356,0.8324,0.9366,1.0869,1.1766,1.2723,1.3913,1.4088,1.4208,1.4573,1.4615,1.5019,1.6108,1.6191,1.6642,1.7747,1.7172,1.6593,1.6232,1.5511,1.5428,1.6191,1.5179,1.567,1.79,1.7536,1.802,1.9559,2.0576,2.1745,2.3073,2.4373,2.5546,0.0,-1.1496,-1.2305,-1.2305,-1.2131,0.0,0.0,0.0,-1.0995,-1.0667,-1.0767,-1.0854,-1.0633,-1.0774,-1.0929,-1.1076,-1.147,0.0,0.0,0.0,0.0,0.0,0.0,0.0,0.0,0.0,0.0,0.0,0.0,0.0,0.0,-1.835,-1.8293,-1.815,-1.8914,-1.9027,-1.835,-1.9027,-1.9027,-1.835,-1.794,-1.7065,-1.5833,-1.6437,0.0,0.0,0.0,0.0,0.0,-1.4138,-1.3795,-1.3347,-1.3868,-1.4088,-1.4088,-1.4088,-1.3822,-1.316,-1.1262,-1.0783,-1.0562,-0.7965,-0.7621,-0.8013,-0.6823,-0.6473,-0.6068,-0.415,-0.2726,-0.1522,-0.0314,0.0,0.0,0.0,0.0584,0.1567,0.326,0.4194,0.5176,0.6782,0.8057,0.9279,1.0394,1.1552,1.2723,1.3913,1.4088,1.4088,1.4088,1.4088,1.437,1.5019,1.5095,1.5545,1.6601,1.6478,1.6314,1.6314,1.567,1.5587,1.6273,1.567,1.6281,1.831,1.8069,1.8771,2.0518,2.0914,2.1973,2.3514,2.4145,2.5182,0.0,-1.1557,0.0,0.0,0.0,0.0,0.0,0.0,0.0,-1.0646,-1.1049,-1.1263,-1.0754,-1.1096,-1.1296,-1.0747,-1.157,0.0,0.0,0.0,0.0,0.0,0.0,0.0,0.0,0.0,0.0,0.0,0.0,0.0,0.0,-1.7172,-1.6683,-1.5621,-1.656,-1.7098,-1.7172,-1.7261,-1.7228,-1.7098,-1.6167,-1.533,-1.4633,-1.5301,0.0,0.0,0.0,0.0,0.0,-1.4088,-1.4088,-1.4088,-1.4088,-1.4088,-1.4088,-1.3997,-1.3252,-1.2109,-1.0907,-0.9792,-0.8715,-0.7489,-0.7095,-0.6874,-0.5758,-0.5359,-0.5001,-0.3794,-0.2592,-0.1433,-0.0269,0.0,0.0,0.0,0.0,0.0673,0.3081,0.3614,0.4281,0.6647,0.8057,0.9279,1.0394,1.1552,1.2723,1.3913,1.4088,1.4088,1.4088,1.4088,1.4088,1.4088,1.4088,1.4489,1.5496,1.6478,1.709,1.7172,1.7098,1.7098,1.7172,1.7172,1.7261,1.7415,1.8559,1.9522,2.0439,2.1552,2.259,2.3514,2.3672,2.4731,-1.0573,0.0,-1.1002,-1.1002,-1.0894,0.0,0.0,0.0,0.0,0.0,0.0,0.0,0.0,-1.1703,-1.1904,-1.1316,-1.183,0.0,0.0,0.0,0.0,0.0,0.0,0.0,0.0,0.0,0.0,0.0,0.0,0.0,0.0,-1.6067,-1.5579,-1.4496,-1.4741,-1.5269,-1.6067,-1.6887,-1.6653,-1.5388,-1.5579,-1.47,-1.2914,-1.3994,0.0,0.0,0.0,0.0,-1.4088,-1.4088,-1.4088,-1.4088,-1.4088,-1.4088,-1.3997,-1.3069,-1.2547,-1.2023,-1.0009,-0.9104,-0.8715,-0.7489,-0.7095,-0.6874,-0.5758,-0.4776,-0.3749,-0.2547,-0.1344,-0.0359,-0.009,0.0,0.0,0.0,0.0,0.0673,0.3081,0.3614,0.4281,0.6647,0.8057,0.9279,1.0394,1.1552,1.2723,1.3913,1.4088,1.4088,1.4088,1.4088,1.4088,1.4088,1.4088,1.4208,1.4447,1.4699,1.5186,1.6026,1.5304,1.522,1.6026,1.6067,1.6879,1.855,1.9678,2.0313,2.0576,2.2291,2.3257,2.3551,2.5099,2.606,-1.0412,-1.0593,-1.066,-1.0928,-1.0787,-1.066,0.0,0.0,0.0,0.0,0.0,0.0,0.0,0.0,0.0,0.0,0.0,0.0,0.0,0.0,0.0,0.0,0.0,0.0,0.0,0.0,0.0,0.0,0.0,0.0,0.0,-1.4977,-1.4692,-1.413,-1.4088,-1.437,-1.4977,-1.5553,-1.5227,-1.4091,-1.4678,-1.4149,-1.2746,-1.3667,-1.3915,0.0,0.0,0.0,-1.4068,-1.3794,-1.3841,-1.4088,-1.4088,-1.3779,-1.3203,-1.2547,-1.1638,-1.0567,-0.9318,-0.854,-0.7973,-0.7316,-0.7095,-0.6782,-0.5087,-0.4105,-0.3349,-0.2147,-0.0942,0.0,0.0,0.0,0.0,0.0,0.0,0.0673,0.3081,0.3614,0.4281,0.6647,0.8057,0.9279,1.0394,1.1552,1.2723,1.3913,1.4088,1.4088,1.4088,1.4088,1.4088,1.4088,1.4088,1.4088,1.4088,1.4088,1.4573,1.5613,1.5179,1.5304,1.6396,1.6919,1.802,1.9678,2.0731,2.1039,2.0605,2.2075,2.3036,2.3514,2.4624,2.5616,-1.0103,-1.0396,-1.0566,-1.1249,-1.0989,-1.0747,-1.1289,0.0,0.0,0.0,0.0,0.0,0.0,0.0,0.0,0.0,0.0,0.0,0.0,0.0,0.0,0.0,0.0,0.0,0.0,0.0,0.0,0.0,0.0,0.0,0.0,-1.4088,-1.4088,-1.4088,-1.4088,-1.4088,-1.4088,-1.4088,-1.3794,-1.322,-1.3808,-1.3781,-1.3227,-1.3821,-1.4088,0.0,0.0,0.0,-1.4048,-1.3337,-1.347,-1.4088,-1.3913,-1.3203,-1.2242,-1.1895,-1.0567,-0.889,-0.8671,-0.7973,-0.7095,-0.7095,-0.6962,-0.6425,-0.4239,-0.3481,-0.3081,-0.1879,-0.0807,0.0,0.0,0.0,0.0,0.0,0.0135,0.0897,0.3126,0.3748,0.4505,0.6694,0.8057,0.9192,1.0183,1.1295,1.2462,1.3646,1.3822,1.3913,1.4088,1.4088,1.4088,1.4088,1.4088,1.4173,1.4328,1.4328,1.4817,1.5869,1.5779,1.6273,1.7496,1.863,1.9678,2.0566,2.1375,2.1403,2.0605,2.1555,2.244,2.3294,2.3588,2.4624,-0.9256,-0.9498,-0.9819,-1.1073,-1.0989,-1.0747,0.0,0.0,0.0,0.0,0.0,0.0,0.0,0.0,0.0,0.0,0.0,0.0,0.0,0.0,0.0,0.0,0.0,0.0,0.0,0.0,0.0,0.0,0.0,0.0,0.0,-1.4088,-1.4088,-1.4088,-1.4088,-1.4088,-1.4088,-1.4088,-1.3794,-1.322,-1.3808,-1.3781,-1.3227,-1.3821,-1.4088,0.0,0.0,-1.3079,-1.399,-1.2898,-1.3085,-1.3997,-1.2984,-1.2456,-1.2072,-1.0139,-0.9192,-0.8759,-0.7709,-0.7272,-0.7095,-0.7095,-0.6428,-0.5403,-0.4016,-0.2903,-0.1835,-0.0628,-0.0135,0.0,0.0,0.0,0.0,0.0,0.0762,0.1924,0.3303,0.4419,0.5534,0.683,0.8057,0.8978,0.9148,1.0096,1.1252,1.2419,1.2589,1.2942,1.3955,1.4088,1.4088,1.4088,1.4088,1.4454,1.5379,1.5455,1.591,1.6968,1.6191,1.6593,1.863,1.9766,2.044,2.0605,2.075,2.075,2.0605,2.1555,2.2065,2.2253,2.3963,2.4933,-0.8941,-0.9306,-0.9723,-1.146,-1.1223,-1.0914,0.0,0.0,0.0,0.0,0.0,0.0,0.0,0.0,0.0,0.0,0.0,0.0,0.0,0.0,0.0,0.0,0.0,0.0,0.0,0.0,0.0,0.0,0.0,0.0,0.0,0.0,-1.4088,-1.4088,-1.4088,-1.4088,-1.4088,-1.4088,-1.3794,-1.322,-1.3808,-1.3781,-1.3227,-1.3821,-1.373,-1.3099,0.0,-1.1992,-1.2188,-1.1951,-1.1997,-1.2211,-1.2285,-1.1552,-1.0265,-0.8536,-0.7929,-0.7841,-0.7272,-0.7095,-0.7007,-0.6381,-0.5849,-0.5045,-0.3172,-0.2236,-0.1567,-0.0359,0.0,0.0,0.0,0.0,0.0,0.0,0.0942,0.2147,0.3347,0.4552,0.5714,0.6874,0.7533,0.8145,0.8803,0.9323,1.0265,1.2029,1.2285,1.2723,1.3955,1.4088,1.4088,1.4088,1.4088,1.4292,1.4768,1.5379,1.615,1.7212,1.6846,1.7293,1.8917,1.9481,2.0001,2.0605,2.0605,2.0605,2.0605,2.1039,2.1517,2.2027,2.2962,2.3963,-0.8291,-0.8844,-0.9452,-1.1333,-1.1187,0.0,0.0,0.0,0.0,0.0,0.0,0.0,0.0,0.0,0.0,0.0,0.0,0.0,0.0,0.0,0.0,0.0,0.0,0.0,0.0,0.0,0.0,0.0,0.0,0.0,0.0,0.0,-1.4088,-1.4088,-1.3822,-1.3822,-1.4088,-1.3822,-1.3598,-1.342,-1.3874,-1.3848,-1.3434,-1.3618,-1.316,-1.2262,-1.1291,-1.0799,-1.0628,-1.0829,-1.0768,-1.0654,-1.1252,-1.0265,-0.8364,-0.7445,-0.7095,-0.7095,-0.7095,-0.6918,-0.6561,-0.5672,-0.5001,-0.4198,-0.237,-0.1612,-0.1165,-0.0269,0.0,0.0,0.0,0.0,0.0,0.0,0.1121,0.2458,0.3392,0.4774,0.6071,0.6918,0.7095,0.7401,0.8321,0.8715,0.9579,1.1595,1.2109,1.2723,1.3955,1.4088,1.4088,1.4088,1.4088,1.4208,1.4447,1.5462,1.656,1.7617,1.7212,1.7658,1.9313,1.9116,1.9481,2.0566,2.0605,2.0605,2.0605,2.0605,2.0972,2.1669,2.1886,2.2813,-0.6625,-0.747,-0.8439,-0.9909,-1.0413,0.0,-1.2806,-1.1837,0.0,0.0,0.0,0.0,0.0,0.0,0.0,0.0,0.0,0.0,0.0,0.0,0.0,0.0,0.0,0.0,0.0,0.0,0.0,0.0,0.0,0.0,0.0,0.0,0.0,-1.4088,-1.3027,-1.2984,-1.4088,-1.2984,-1.2966,-1.4028,-1.4068,-1.4068,-1.3979,-1.2923,-1.237,-1.2194,-1.0019,-0.9682,-1.0519,-0.9504,-0.9682,-1.0481,-0.9536,-0.8364,-0.7228,-0.7139,-0.7095,-0.7095,-0.7095,-0.6425,-0.5492,-0.5447,-0.3887,-0.2013,-0.1835,-0.1031,-0.009,-0.0045,0.0,0.0,0.0,0.0,0.0,0.0,0.179,0.3481,0.357,0.5395,0.7007,0.7095,0.7095,0.7139,0.7228,0.8145,0.9323,1.0524,1.1638,1.2723,1.3955,1.4088,1.4088,1.4088,1.4088,1.4489,1.5496,1.656,1.7658,1.8798,1.696,1.7236,2.0362,1.952,1.9481,2.0566,2.0605,2.0605,2.0605,2.0605,2.0644,2.0712,2.1593,2.2065,-0.7116,-0.7767,-0.8563,-1.0906,-1.1019,0.0,0.0,-1.2118,-1.1603,0.0,0.0,0.0,0.0,0.0,0.0,0.0,0.0,0.0,0.0,0.0,0.0,0.0,0.0,0.0,0.0,0.0,0.0,0.0,0.0,0.0,0.0,0.0,0.0,-1.1912,-1.1472,-1.1472,-1.1912,-1.2157,-1.2157,-1.1912,-1.2638,-1.2984,-1.2942,-1.1772,-1.0864,-1.0139,-0.9279,-0.8711,-0.8444,-0.8759,-0.8711,-0.84,-0.7969,-0.7489,-0.7095,-0.7095,-0.665,-0.6027,-0.6027,-0.5265,-0.4152,-0.3395,-0.2549,-0.1657,-0.0897,-0.0359,0.0,0.0,0.0,0.0,0.0,0.0,0.0,0.0,0.1835,0.3614,0.3614,0.544,0.7095,0.7095,0.7095,0.7095,0.7095,0.8105,0.9279,1.0438,1.1552,1.2723,1.3955,1.4088,1.4088,1.4088,1.4088,1.4531,1.5621,1.6067,1.709,1.8877,1.8221,1.8621,2.0527,2.0196,2.0206,2.0605,2.0605,2.0605,2.0605,2.0605,2.0605,2.0605,2.0972,2.1783,-0.7274,-0.78,-0.8569,-1.0985,0.0,0.0,-1.2729,-1.2285,-1.1877,0.0,0.0,0.0,0.0,0.0,0.0,0.0,0.0,0.0,0.0,0.0,0.0,0.0,0.0,0.0,0.0,0.0,0.0,0.0,0.0,0.0,0.0,0.0,0.0,0.0,-1.0265,-1.0226,-1.0611,-1.1042,-1.1042,-1.0611,-1.1037,-1.1423,-1.1724,-1.0567,-0.9623,-0.889,-0.8496,-0.7885,-0.7183,-0.7973,-0.7841,-0.7095,-0.7095,-0.7095,-0.7051,-0.6694,-0.6071,-0.5359,-0.4954,-0.4063,-0.2903,-0.2057,-0.1522,-0.1076,-0.0269,0.0,0.0,0.0,0.0,0.009,0.0449,0.0584,0.0584,0.0584,0.2415,0.415,0.415,0.5711,0.7095,0.7095,0.7095,0.7228,0.7621,0.8667,0.9836,1.095,1.2114,1.316,1.3997,1.4088,1.4088,1.4088,1.4088,1.4412,1.5137,1.5496,1.647,1.835,1.8798,1.9481,2.0566,2.0284,2.0245,2.0605,2.0605,2.0605,2.0605,2.0605,2.075,2.1039,2.1039,2.1935,-0.6691,-0.7344,-0.833,0.0,0.0,0.0,-1.26,-1.2241,0.0,0.0,0.0,0.0,0.0,0.0,0.0,0.0,0.0,0.0,0.0,0.0,0.0,0.0,0.0,0.0,0.0,0.0,0.0,0.0,0.0,0.0,0.0,0.0,0.0,0.0,-0.9449,-0.9405,-1.0567,-0.9449,-0.9449,-1.0567,-0.9449,-0.9492,-1.0567,-0.9405,-0.889,-0.8803,-0.7621,-0.7095,-0.7095,-0.7095,-0.7095,-0.7095,-0.7095,-0.7095,-0.6962,-0.5802,-0.5403,-0.5179,-0.4016,-0.2814,-0.179,-0.179,-0.0986,0.0,0.0,0.0,0.0,0.0,0.0,0.0314,0.1478,0.1835,0.1835,0.1835,0.3664,0.5403,0.5403,0.6293,0.7095,0.7095,0.7095,0.7489,0.8671,0.9836,1.0999,1.2109,1.3336,1.4088,1.4088,1.4088,1.4088,1.4088,1.413,1.413,1.413,1.5095,1.6191,1.7253,1.839,1.9481,2.0566,1.9559,1.952,2.0566,2.0605,2.0605,2.0605,2.0605,2.1078,2.1989,2.2027,2.2553,-0.6777,-0.7463,0.0,0.0,0.0,0.0,0.0,0.0,0.0,0.0,0.0,0.0,0.0,0.0,0.0,0.0,0.0,0.0,0.0,0.0,0.0,0.0,0.0,0.0,0.0,0.0,0.0,0.0,0.0,0.0,0.0,0.0,0.0,0.0,-0.7793,-0.7793,-0.8137,-0.8623,-0.8623,-0.8141,-0.8667,-0.9065,-0.9362,-0.8189,-0.7621,-0.7621,-0.7272,-0.7095,-0.7095,-0.7095,-0.7095,-0.7095,-0.7095,-0.6605,-0.5849,-0.5536,-0.4332,-0.2816,-0.2458,-0.1522,-0.0539,-0.0539,-0.0269,0.0,0.0,0.0,0.0,0.0,0.0628,0.1344,0.1701,0.304,0.4109,0.326,0.4241,0.5403,0.5403,0.6293,0.7095,0.7095,0.7095,0.7489,0.8671,0.9836,1.0999,1.2109,1.3336,1.4088,1.4088,1.4088,1.4088,1.4088,1.4776,1.522,1.522,1.6919,1.8149,1.8479,1.952,2.0284,2.0605,2.0284,2.0284,2.0605,2.0605,2.0605,2.0605,2.126,2.1735,2.2027,2.2739,2.3588,-0.7995,0.0,0.0,0.0,0.0,0.0,0.0,0.0,0.0,0.0,0.0,0.0,0.0,0.0,0.0,0.0,0.0,0.0,0.0,0.0,0.0,0.0,0.0,0.0,0.0,0.0,0.0,0.0,0.0,0.0,0.0,0.0,0.0,0.0,-0.7095,-0.7095,-0.7095,-0.7841,-0.7841,-0.7095,-0.7841,-0.8189,-0.8145,-0.7448,-0.7095,-0.7095,-0.7095,-0.7095,-0.7095,-0.7095,-0.6827,-0.6428,-0.6428,-0.5714,-0.4643,-0.4154,-0.304,-0.1746,-0.1254,-0.0628,0.0,0.0,0.0,0.0,0.0,0.0,0.009,0.0584,0.1254,0.2013,0.2995,0.4332,0.5223,0.4508,0.522,0.6071,0.6071,0.6605,0.7095,0.7095,0.7489,0.8189,0.9362,1.0524,1.1686,1.2857,1.3646,1.4088,1.4088,1.4088,1.4088,1.4088,1.4692,1.5054,1.5054,1.6683,1.7698,1.7698,1.9116,1.9962,1.9962,2.0362,2.0605,2.0605,2.0605,2.0605,2.0605,2.1155,2.1631,2.2027,2.2627,2.3672,-0.9484,0.0,0.0,0.0,0.0,0.0,0.0,0.0,0.0,0.0,0.0,0.0,0.0,0.0,0.0,0.0,0.0,0.0,0.0,0.0,0.0,0.0,0.0,0.0,0.0,0.0,0.0,0.0,0.0,0.0,0.0,0.0,0.0,-0.7095,-0.7095,-0.7095,-0.7095,-0.7095,-0.7095,0.0,-0.7095,-0.7095,-0.7095,-0.7095,-0.7095,-0.7095,-0.7095,-0.7095,-0.7095,-0.7007,-0.6337,-0.5403,-0.527,-0.4508,-0.3303,-0.2191,-0.1746,-0.1478,-0.0359,0.0,0.0,0.0,0.0,0.0,0.0135,0.018,0.0404,0.1612,0.2058,0.2638,0.4823,0.5492,0.5536,0.5536,0.6337,0.7095,0.7095,0.7095,0.7095,0.7095,0.7969,0.9148,1.0394,1.1466,1.2589,1.3906,1.4088,1.4088,1.4088,1.4088,1.4088,1.4088,1.4173,1.425,1.425,1.522,1.5902,1.5985,1.79,1.9036,1.9155,2.0079,2.0605,2.0605,2.0605,2.0605,2.0605,2.0683,2.1155,2.1989,2.2103,2.311,0.0,-0.857,0.0,0.0,0.0,0.0,0.0,0.0,0.0,0.0,0.0,0.0,0.0,0.0,0.0,0.0,0.0,0.0,0.0,0.0,0.0,0.0,0.0,0.0,0.0,0.0,0.0,0.0,0.0,0.0,0.0,0.0,0.0,-0.7095,-0.7095,-0.7095,-0.7095,-0.7095,-0.7095,0.0,-0.7095,-0.7095,-0.7095,-0.7095,-0.7095,-0.7095,-0.7095,-0.7095,-0.7051,-0.6115,-0.5625,-0.5314,-0.4374,-0.326,-0.2147,-0.1879,-0.121,-0.0359,-0.009,0.0,0.0,0.0,0.0,0.018,0.1121,0.1433,0.1657,0.2858,0.3885,0.4732,0.527,0.6071,0.6738,0.6738,0.6918,0.7095,0.7095,0.7095,0.7095,0.7095,0.7316,0.8141,1.0221,1.0783,1.1692,1.3779,1.4088,1.4088,1.4088,1.4088,1.4088,1.4088,1.4852,1.5379,1.5379,1.6355,1.7334,1.8221,1.8758,1.9362,2.0206,2.0479,2.0605,2.0605,2.0605,2.0605,2.0605,2.1336,2.1811,2.2027,2.2813,2.3404,0.0,0.0,0.0,0.0,0.0,0.0,0.0,0.0,0.0,0.0,0.0,0.0,0.0,0.0,0.0,0.0,0.0,0.0,0.0,0.0,0.0,0.0,0.0,0.0,0.0,0.0,0.0,0.0,0.0,0.0,0.0,-0.7095,-0.7095,-0.7095,-0.7095,-0.7095,-0.7095,-0.7095,-0.7095,-0.7095,-0.6561,-0.6293,-0.6293,-0.6874,-0.7095,-0.7095,-0.7095,-0.6786,-0.6248,-0.5625,-0.4734,-0.3619,-0.2994,-0.2013,-0.0942,-0.0942,-0.0539,0.0,0.0,0.0,0.009,0.0673,0.0852,0.1076,0.228,0.2681,0.2903,0.4107,0.4912,0.5536,0.6071,0.665,0.7095,0.7095,0.7095,0.7095,0.7095,0.7095,0.7095,0.7095,0.7577,0.8536,1.0308,1.152,1.2693,1.3913,1.4088,1.4088,1.4088,1.4088,1.4088,1.4088,1.4615,1.4936,1.4936,1.547,1.6239,1.7366,1.79,1.8669,1.9805,2.0323,2.0605,2.0605,2.0605,2.0605,2.0605,2.1078,2.1336,2.1336,2.1859,2.2339,0.0,0.0,0.0,0.0,0.0,0.0,0.0,0.0,0.0,0.0,0.0,0.0,0.0,0.0,0.0,0.0,0.0,0.0,0.0,0.0,0.0,0.0,0.0,0.0,0.0,0.0,0.0,0.0,0.0,0.0,-0.7095,-0.7095,-0.7095,-0.7095,-0.7095,-0.7095,-0.7095,-0.6918,-0.6827,-0.6786,-0.5625,-0.5179,-0.5403,-0.616,-0.6605,-0.6827,-0.6827,-0.6157,-0.509,-0.4868,-0.3619,-0.179,-0.1567,-0.0897,0.0,0.0,0.0,0.0,0.0,0.0135,0.0494,0.1478,0.1924,0.2325,0.3527,0.3927,0.415,0.5356,0.5672,0.5894,0.6874,0.7095,0.7095,0.7095,0.7095,0.7095,0.7095,0.7095,0.7139,0.736,0.8536,0.9792,1.074,1.2693,1.4088,1.4088,1.4088,1.4088,1.4088,1.4088,1.4088,1.4088,1.4088,1.4088,1.4088,1.425,1.4817,1.5902,1.7009,1.8109,1.9234,2.0128,2.0605,2.0605,2.0605,2.0605,2.0605,2.0605,2.0605,2.0605,2.0605,2.1011,0.0,0.0,0.0,0.0,0.0,0.0,0.0,0.0,0.0,0.0,0.0,0.0,0.0,0.0,0.0,0.0,0.0,0.0,0.0,0.0,0.0,0.0,0.0,0.0,0.0,0.0,0.0,0.0,0.0,0.0,-0.7095,-0.7095,-0.7095,-0.7095,-0.7095,-0.7095,-0.7095,-0.6115,-0.5625,-0.5625,-0.4419,-0.4374,-0.5359,-0.4461,-0.4641,-0.5625,-0.5625,-0.4954,-0.3749,-0.2726,-0.2103,-0.1701,-0.0628,-0.0135,0.0,0.0,0.0,0.0,0.0,0.0673,0.1567,0.1746,0.2503,0.3571,0.4776,0.5179,0.5403,0.6561,0.6874,0.6918,0.7051,0.7095,0.7095,0.7095,0.7095,0.7095,0.7095,0.7095,0.7401,0.8452,1.0394,1.1895,1.2066,1.3209,1.4088,1.4088,1.4088,1.4088,1.4088,1.4088,1.4088,1.4088,1.4088,1.4088,1.4088,1.4936,1.5944,1.7009,1.8149,1.9283,2.0323,2.0527,2.0605,2.0605,2.0605,2.0605,2.0605,2.0605,2.0605,2.0605,2.0605,2.0673,0.0,0.0,0.0,0.0,0.0,0.0,0.0,0.0,0.0,0.0,0.0,0.0,0.0,0.0,0.0,0.0,0.0,0.0,0.0,0.0,0.0,0.0,0.0,0.0,0.0,0.0,0.0,0.0,0.0,-0.6428,-0.7051,-0.6517,-0.6428,-0.7095,-0.7095,-0.7095,-0.7095,-0.5983,-0.4734,-0.3396,-0.286,-0.286,-0.3352,-0.2815,-0.3618,-0.5359,-0.4688,-0.3707,-0.2547,-0.2013,-0.1388,-0.0718,-0.0225,0.0,0.0,0.0,0.0449,0.1031,0.1031,0.179,0.2903,0.3618,0.4196,0.4819,0.598,0.634,0.6473,0.6962,0.7095,0.7095,0.7095,0.7095,0.7095,0.7095,0.7621,0.8105,0.8105,0.8105,0.8452,0.9618,1.1166,1.2285,1.2285,1.3294,1.4088,1.4088,1.4088,1.4088,1.4088,1.4088,1.4088,1.4088,1.4657,1.5019,1.5019,1.5992,1.709,1.8189,1.8718,1.9481,2.0566,2.0605,2.0605,2.0605,2.0605,2.0605,2.0605,2.0605,2.0605,2.0605,2.0605,2.0605,0.0,0.0,0.0,0.0,0.0,0.0,0.0,0.0,0.0,0.0,0.0,0.0,0.0,0.0,0.0,0.0,0.0,0.0,0.0,0.0,0.0,0.0,0.0,0.0,0.0,0.0,0.0,0.0,0.0,-0.5312,-0.6157,-0.5401,-0.5312,-0.6201,-0.6201,-0.6201,-0.6201,-0.5043,-0.3441,-0.1344,-0.1344,-0.1522,-0.179,-0.1478,-0.2505,-0.4421,-0.3527,-0.2458,-0.1344,-0.1344,-0.0807,0.0,0.0,0.0,0.0045,0.0359,0.1031,0.1835,0.2147,0.3037,0.4196,0.509,0.5581,0.5983,0.6827,0.7095,0.7095,0.7095,0.7095,0.7095,0.7095,0.7095,0.7183,0.7489,0.8237,0.8978,0.9279,0.9579,1.0009,1.0869,1.1992,1.2766,1.2766,1.3512,1.4088,1.4088,1.4088,1.4088,1.4088,1.4088,1.4208,1.4489,1.522,1.582,1.6067,1.709,1.8109,1.8957,1.9283,1.9766,2.0566,2.0605,2.0605,2.0605,2.0605,2.0605,2.0605,2.0605,2.0605,2.0605,2.0605,2.0605,0.0,0.0,0.0,0.0,0.0,0.0,0.0,0.0,0.0,0.0,0.0,0.0,0.0,0.0,0.0,0.0,0.0,0.0,0.0,0.0,0.0,0.0,0.0,0.0,0.0,0.0,0.0,0.0,0.0,-0.3703,-0.3792,-0.3748,-0.3703,-0.3792,-0.3792,-0.3792,-0.3792,-0.2592,-0.1344,-0.009,-0.009,-0.0673,-0.1745,-0.0628,-0.0807,-0.1969,-0.1924,-0.121,-0.009,-0.009,-0.0045,0.0,0.0,0.0,0.0135,0.1299,0.1746,0.1969,0.3126,0.4283,0.5314,0.5359,0.6115,0.7007,0.7095,0.7095,0.7095,0.7095,0.7095,0.7095,0.7095,0.7095,0.7404,0.854,0.8846,0.9192,1.0265,1.1338,1.2157,1.22,1.316,1.3997,1.3997,1.4046,1.4088,1.4088,1.4088,1.4088,1.4088,1.4088,1.4496,1.5496,1.5662,1.6108,1.7131,1.827,1.8957,1.8997,1.9962,2.0527,2.0605,2.0605,2.0605,2.0605,2.0605,2.0605,2.0605,2.0605,2.0605,2.0605,2.0605,2.0605,0.0,0.0,0.0,0.0,0.0,0.0,0.0,0.0,0.0,0.0,0.0,0.0,0.0,0.0,0.0,0.0,0.0,0.0,0.0,0.0,0.0,0.0,0.0,0.0,0.0,0.0,0.0,0.0,0.0,0.0,-0.3561,-0.2877,-0.2781,-0.3565,-0.3614,-0.3215,-0.2458,-0.2013,-0.121,0.0,0.0,-0.0225,-0.0628,-0.018,-0.0225,-0.0628,-0.0628,-0.0404,0.0,0.0,0.0,0.0,0.0,0.0494,0.121,0.1657,0.2772,0.4154,0.4599,0.5534,0.6473,0.6473,0.6782,0.7095,0.7095,0.7095,0.7095,0.7095,0.7095,0.7095,0.7095,0.7665,0.8755,1.0649,1.108,1.1429,1.2607,1.2553,1.2547,1.3294,1.3779,1.4088,1.4088,1.4088,1.4088,1.4088,1.4088,1.4088,1.4088,1.4088,1.425,1.4608,1.5918,1.6887,1.7253,1.8988,2.004,2.004,2.0401,2.0605,2.0605,2.0605,2.0605,2.0605,2.0605,2.0605,2.0605,2.0605,2.0605,2.0605,2.0605,2.0605,0.0,0.0,0.0,0.0,0.0,0.0,0.0,0.0,0.0,0.0,0.0,0.0,0.0,0.0,0.0,0.0,0.0,0.0,0.0,0.0,0.0,0.0,0.0,0.0,0.0,0.0,0.0,0.0,0.0,0.0,-0.2364,-0.1632,-0.1584,-0.2367,-0.2413,-0.2013,-0.121,-0.121,-0.0807,0.0,0.0,0.0,0.0,0.0,0.0,0.0,0.0,0.0,0.0,0.0,0.0225,0.0583,0.0583,0.1344,0.2458,0.2861,0.402,0.5447,0.5849,0.647,0.7095,0.7095,0.7095,0.7095,0.7095,0.7095,0.7095,0.7095,0.7095,0.7095,0.7095,0.8273,0.9966,1.1852,1.2589,1.3118,1.3913,1.347,1.316,1.3955,1.4088,1.4088,1.4088,1.4088,1.4088,1.4088,1.4088,1.4088,1.4088,1.4088,1.425,1.4615,1.591,1.6927,1.7253,1.8669,1.9678,2.004,2.004,2.0206,2.0605,2.0605,2.0605,2.0605,2.0605,2.0605,2.0605,2.0605,2.0605,2.0605,2.0605,2.0789,0.0,0.0,0.0,0.0,0.0,0.0,0.0,0.0,0.0,0.0,0.0,0.0,0.0,0.0,0.0,0.0,0.0,0.0,0.0,0.0,0.0,0.0,0.0,0.0,0.0,0.0,0.0,0.0,0.0,0.0,0.0,0.0,0.0,0.0,0.0,0.0,0.0,0.0,0.0,0.0,0.0,0.0,0.0,0.0,0.0,0.0,0.0,0.0,0.0045,0.0045,0.0763,0.1835,0.1835,0.2592,0.3792,0.4954,0.5403,0.5628,0.6694,0.7095,0.7095,0.7095,0.7095,0.7095,0.7095,0.7095,0.7095,0.7095,0.7095,0.7095,0.7139,0.8877,1.0869,1.2023,1.3209,1.4088,1.4088,1.4088,1.4088,1.4088,1.4088,1.4088,1.4088,1.4088,1.4088,1.4088,1.4088,1.4088,1.4088,1.4088,1.4489,1.5538,1.5696,1.6108,1.7172,1.7293,1.7819,1.8917,1.9045,1.952,2.0566,2.0605,2.0605,2.0605,2.0605,2.0605,2.0605,2.0605,2.0605,2.0605,2.0644,2.1155,-0.0609,0.0,0.0,0.0,0.0,0.0,-0.1504,0.0,0.0,0.0,0.0,0.0,0.0,0.0,0.0,0.0,0.0,0.0,0.0,0.0,0.0,0.0,0.0,0.0,0.0,0.0,0.0,0.0,0.0,0.0,0.0,0.0,0.0,0.0,0.0,0.0,0.0,0.0,0.0,0.0,0.0,0.0,0.0,0.0,0.0,0.0,0.0,0.0494,0.1299,0.1299,0.2013,0.3081,0.3081,0.3838,0.4956,0.527,0.5938,0.6694,0.7007,0.7095,0.7095,0.7095,0.7095,0.7095,0.7095,0.7095,0.7095,0.7095,0.7095,0.7316,0.8189,0.9488,1.0869,1.2023,1.3209,1.4088,1.4088,1.4088,1.4088,1.4088,1.4088,1.4088,1.4088,1.4088,1.4088,1.4088,1.4088,1.4088,1.4088,1.4088,1.4208,1.4489,1.5255,1.582,1.6108,1.7617,1.8678,1.8997,1.9726,2.0284,2.0605,2.0605,2.0605,2.0605,2.0605,2.0605,2.0605,2.0605,2.0605,2.0605,2.1298,2.2151,0.0,0.0,0.0,0.0,0.0,0.0,-0.0643,-0.0653,0.0,0.0,0.0,0.0,0.0,0.0,0.0,0.0,0.0,0.0,0.0,0.0,0.0,0.0,0.0,0.0,0.0,0.0,0.0,0.0,0.0,0.0,0.0,0.0,0.0,0.0,0.0,0.0,0.0,0.0,0.0,0.0,0.0,0.0,0.0,0.0,0.0,0.0,0.0,0.0986,0.2547,0.2547,0.326,0.433,0.433,0.5087,0.6115,0.6115,0.6517,0.7095,0.7095,0.7095,0.7095,0.7095,0.7095,0.7095,0.7095,0.7095,0.7095,0.7095,0.7445,0.8017,0.8715,1.0096,1.1466,1.2157,1.3209,1.4088,1.4088,1.4088,1.4088,1.4088,1.4088,1.4088,1.4088,1.4088,1.4088,1.4088,1.4088,1.4088,1.4088,1.4088,1.4088,1.4088,1.465,1.5213,1.5662,1.6879,1.802,1.8957,1.9599,2.0118,2.0566,2.0605,2.0605,2.0605,2.0605,2.0605,2.0605,2.0605,2.0605,2.0605,2.1155,2.1924,0.0,0.0,0.0,0.0,0.0,0.0,0.0,0.0,0.0,0.0,0.0,0.0,0.0,0.0,0.0,0.0,0.0,0.0,0.0,0.0,0.0,0.0,0.0,0.0,0.0,0.0,0.0,0.0,0.0,0.0,0.0,0.0,0.0,0.0,0.0,0.0,0.0,0.0,0.0,0.0,0.0,0.0,0.0,0.0,0.0,0.0,0.0135,0.1478,0.3614,0.3748,0.4508,0.5581,0.5581,0.6204,0.7095,0.7095,0.7095,0.7095,0.7095,0.7095,0.7095,0.7095,0.7095,0.7095,0.7095,0.7095,0.7139,0.7272,0.8145,0.9104,0.9104,1.0697,1.2285,1.2285,1.3209,1.4088,1.4088,1.4088,1.4088,1.4088,1.4088,1.4088,1.4088,1.4088,1.4088,1.4088,1.4088,1.4088,1.4088,1.4088,1.4088,1.4088,1.4208,1.465,1.5621,1.5944,1.6919,1.8877,1.9116,1.9599,2.0566,2.0605,2.0605,2.0605,2.0605,2.0605,2.0605,2.0605,2.0605,2.0605,2.0712,2.1193,0.0,0.0,0.0,0.0,0.0,0.0,0.0,0.0,0.0,0.0,0.0,0.0,0.0,0.0,0.0,0.0,0.0,0.0,0.0,0.0,0.0,0.0,0.0,0.0,0.0,0.0,0.0,0.0,0.0,0.0,0.0,0.0,0.0,0.0,0.0,0.0,0.0,0.0,0.0,0.0,0.0,0.0,0.0,0.0,0.0,0.0045,0.1031,0.2281,0.3659,0.4641,0.5714,0.6782,0.6782,0.6918,0.7095,0.7095,0.7095,0.7095,0.7095,0.7095,0.7095,0.7095,0.7095,0.7095,0.7095,0.7095,0.7316,0.8277,0.9362,1.0269,1.0269,1.1295,1.2285,1.2285,1.3209,1.4088,1.4088,1.4088,1.4088,1.4088,1.4088,1.4088,1.4088,1.4088,1.4088,1.4088,1.4088,1.4088,1.4088,1.4088,1.4088,1.4088,1.4852,1.5455,1.5696,1.7326,1.855,1.8957,1.9795,2.0362,2.0605,2.0605,2.0605,2.0605,2.0605,2.0605,2.0605,2.0605,2.0605,2.0605,2.1375,2.1811,0.0,0.0,0.0,0.0,0.0,0.0,0.0,0.0,0.0,0.0,0.0,0.0,0.0,0.0,0.0,0.0,0.0,0.0,0.0,0.0,0.0,0.0,0.0,0.0,0.0,0.0,0.0,0.0,0.0,0.0,0.0,0.0,0.0,0.0,0.0,0.0,0.0,0.0,0.0,0.0,0.0,0.0,0.0,0.0,0.0,0.0045,0.0628,0.1924,0.3659,0.4239,0.5531,0.7095,0.7095,0.7095,0.7095,0.7095,0.7095,0.7095,0.7095,0.7095,0.7095,0.7095,0.7095,0.7095,0.7095,0.7536,0.8101,0.8715,1.0139,1.1338,1.074,1.1906,1.3069,1.2456,1.3209,1.4088,1.4088,1.4088,1.4088,1.4088,1.4088,1.4088,1.4088,1.4088,1.4088,1.4088,1.4088,1.4088,1.4088,1.4088,1.4292,1.4852,1.5379,1.615,1.7245,1.835,1.9244,1.9766,2.0284,2.0605,2.0605,2.0605,2.0605,2.0605,2.0605,2.0605,2.0605,2.0605,2.0605,2.0605,2.1078,2.142,0.0,0.0,0.0,0.0,0.0,0.0,0.0,0.0,0.0,0.0,0.0,0.0,0.0,0.0,0.0,0.0,0.0,0.0,0.0,0.0,0.0,0.0,0.0,0.0,0.0,0.0306,0.0266,0.0,0.0225,0.0225,0.0,0.0,0.0,0.0,0.0,0.0,0.0,0.0,0.0,0.0,0.0,0.0,0.0,0.0,0.0,0.0,0.0225,0.1567,0.3614,0.3838,0.5174,0.7095,0.7095,0.7095,0.7095,0.7095,0.7095,0.7095,0.7095,0.7095,0.7095,0.7095,0.7095,0.7139,0.736,0.8277,0.9279,0.9492,1.1042,1.2419,1.152,1.2693,1.3864,1.2893,1.3379,1.4088,1.4088,1.4088,1.4088,1.4088,1.4088,1.4088,1.4088,1.4088,1.4088,1.4088,1.4088,1.4088,1.4088,1.4088,1.4454,1.5296,1.5579,1.6429,1.8221,1.855,1.9155,2.0206,2.0284,2.0362,2.0605,2.0605,2.0605,2.0605,2.0605,2.0605,2.0605,2.0693,2.0693,2.0605,2.0693,2.0889,0.0,0.0,0.0,0.0,0.0,0.0,0.0,0.0,0.0,0.0,0.0,0.0,0.0,0.0,0.0,0.0,0.0,0.0,0.0,0.0,0.0,0.0,0.0,0.0,0.0,0.0,0.1137,0.0089,0.0986,0.1121,0.0045,0.0,0.0,0.0,0.0,0.0,0.0,0.0,0.0,0.0,0.0,0.0,0.0,0.0,0.0,0.0045,0.1121,0.237,0.3703,0.4732,0.5935,0.7095,0.7095,0.7095,0.7095,0.7095,0.7095,0.7095,0.7095,0.7095,0.7095,0.7095,0.7095,0.7316,0.8364,0.9492,1.0611,1.1638,1.2857,1.3864,1.3737,1.3913,1.4088,1.3913,1.3997,1.4088,1.4088,1.4088,1.4088,1.4088,1.4088,1.4088,1.4088,1.4088,1.4088,1.4088,1.4088,1.4088,1.4088,1.4088,1.413,1.425,1.5137,1.582,1.6067,1.6968,1.7989,1.9116,1.9195,1.9599,2.0566,2.0605,2.0605,2.0605,2.0605,2.0605,2.0605,2.0967,2.0957,2.0615,2.0977,2.1142,0.0,0.0,0.0,0.0,0.0,0.0,0.0,0.0,0.0118,0.0,0.0,0.0,0.0,0.0,0.0,0.0,0.0,0.0,0.0,0.0,0.0,0.0,0.0,0.0,0.0,0.0,0.0,0.0,0.0,0.0975,0.0042,0.0,0.0,0.0,0.0,0.0,0.0,0.0,0.0,0.0,0.0,0.0,0.0,0.0,0.0,0.0045,0.1254,0.2503,0.3703,0.491,0.6071,0.7095,0.7095,0.7095,0.7095,0.7095,0.7095,0.7095,0.7095,0.7095,0.7095,0.7095,0.7577,0.8237,0.8759,1.0183,1.1681,1.2157,1.316,1.4088,1.4088,1.4088,1.4088,1.4088,1.4088,1.4088,1.4088,1.4088,1.4088,1.4088,1.4088,1.4088,1.4088,1.4088,1.4088,1.4088,1.4088,1.4088,1.4088,1.4088,1.4328,1.4977,1.5413,1.5944,1.656,1.7658,1.847,1.8957,1.9559,2.0118,2.0566,2.0605,2.0605,2.0605,2.0605,2.0693,2.0957,2.1103,2.1269,2.1378,2.1523,2.1748,0.0,0.0,0.0,0.0,0.0,0.0,0.0,0.0,0.0,0.0,0.0,0.0,0.0,0.0,0.0,0.0,0.0,0.0,0.0,0.0,0.0,0.0,0.0,0.0,0.0,0.0,0.0,0.1959,0.1724,0.1217,0.0366,0.013,0.0,0.0,0.0,0.0,0.0,0.0,0.0,0.0,0.0,0.0,0.0,0.0,0.018,0.0539,0.1433,0.2681,0.415,0.5045,0.6071,0.7095,0.7095,0.7095,0.7095,0.7095,0.7095,0.7095,0.7095,0.7095,0.7139,0.7489,0.8189,0.9021,0.9623,1.0999,1.237,1.2717,1.3421,1.4088,1.4088,1.4088,1.4088,1.4088,1.4088,1.4088,1.4088,1.4088,1.4088,1.4088,1.4088,1.4088,1.4088,1.4088,1.4088,1.4088,1.4088,1.4088,1.4088,1.4088,1.4412,1.5179,1.5538,1.6026,1.6805,1.7908,1.8678,1.8997,2.0001,2.0605,2.0605,2.0605,2.0605,2.0605,2.0723,2.0908,2.119,2.1434,2.1748,2.206,2.206,2.2217,0.0,0.0,0.0,0.0,0.0,0.0,0.0,0.0,0.1421,0.0,0.0,0.0,0.0,0.0,0.0,0.2873,0.0,0.0,0.0,0.0,0.0,0.0,0.0,0.0,0.0,0.0,0.0,0.2293,0.2607,0.2307,0.1137,0.039,0.0,0.0,0.0,0.0,0.0,0.0,0.0,0.0,0.0,0.0,0.0,0.0,0.0628,0.1746,0.179,0.3129,0.5359,0.5403,0.6071,0.7095,0.7095,0.7095,0.7095,0.7095,0.7095,0.7095,0.7095,0.7095,0.7272,0.8452,0.8846,0.9323,1.1509,1.2242,1.2547,1.3688,1.4088,1.4088,1.4088,1.4088,1.4088,1.4088,1.4088,1.4088,1.4088,1.4088,1.4088,1.4088,1.4088,1.4088,1.4088,1.4088,1.4088,1.4088,1.4088,1.4088,1.4088,1.4088,1.413,1.413,1.5095,1.5696,1.5737,1.6723,1.7827,1.8917,2.0001,2.0605,2.0605,2.0605,2.0605,2.0605,2.0986,2.1181,2.119,2.207,2.248,2.249,2.249,2.25,0.0,0.0,0.0,0.0,0.0,0.0,0.0,0.0,0.0,0.0,0.0,0.0,0.0,0.0,0.3618,0.3618,0.3884,0.0,0.0,0.0,0.0,0.0,0.0,0.0,0.0,0.0,0.0,0.3465,0.2785,0.2063,0.0,0.0395,0.0,0.0,0.0,0.0,0.0,0.0,0.0,0.0,0.0,0.0,0.0,0.0,0.0673,0.1835,0.2637,0.3929,0.5447,0.6204,0.6738,0.7095,0.7095,0.7095,0.7095,0.7095,0.7095,0.7095,0.7095,0.7621,0.8364,0.8759,0.9923,1.1295,1.2072,1.2857,1.3561,1.3997,1.4088,1.4088,1.4088,1.4088,1.4088,1.4088,1.4088,1.4088,1.4088,1.4088,1.4088,1.4088,1.4088,1.4088,1.4088,1.4088,1.4088,1.4088,1.4088,1.4088,1.4088,1.4088,1.4088,1.4088,1.5054,1.5696,1.5696,1.7366,1.8877,2.0001,2.0401,2.0605,2.0605,2.0605,2.0605,2.0605,2.1006,2.1337,2.167,2.2236,2.2656,2.2886,2.2886,2.2886,0.0,0.0,0.0,0.0,0.0,0.0,0.0941,0.0,0.0,0.0,0.0,0.0,0.0,0.0,0.0,0.3965,0.3938,0.3958,0.0,0.3994,0.0,0.0,0.0,0.0,0.0,0.0,0.4416,0.3728,0.2774,0.1888,0.0,0.0,0.0,0.0,0.0,0.0,0.0,0.0,0.0,0.0,0.0,0.0,0.0,0.0449,0.1299,0.2503,0.3705,0.4907,0.6071,0.6786,0.7095,0.7095,0.7095,0.7095,0.7095,0.7095,0.7095,0.7139,0.7577,0.8233,0.9021,0.9836,1.108,1.237,1.2808,1.347,1.4088,1.4088,1.4088,1.4088,1.4088,1.4088,1.4088,1.4088,1.4088,1.4088,1.4088,1.4088,1.4088,1.4088,1.4088,1.4088,1.4088,1.4088,1.4088,1.4088,1.4088,1.4088,1.4088,1.4088,1.4088,1.4088,1.5387,1.6593,1.7398,1.8749,1.9844,2.0566,2.0605,2.0605,2.0605,2.0605,2.0674,2.0801,2.124,2.168,2.2109,2.2529,2.2838,2.3091,2.3091,2.3091]},{"header":{"parameterUnit":"m.s-1","parameterCategory":1,"la1":30.6,"la2":29.2853,"lo1":-89.7004,"lo2":-87.6739,"dy":0.0162,"dx":0.0183,"nx":112,"ny":82,"refTime":"2023-10-17T12:00:00:Z","depth":0,"parameterNumber":3,"parameterNumberName":"V-component_of_WINDS"},"data":[0.0,0.0,0.0,0.0,0.0,0.0,0.0,0.0,0.0,0.0,0.0,0.0,0.0,0.0,0.0,0.0,0.0,0.0,0.0,0.0,0.0,0.0,0.0,0.0,0.0,0.0,0.0,0.0,0.0,0.0,0.0,0.0,0.0,0.0,0.0,0.0,0.0,0.0,0.0,0.0,0.0,0.0,0.0,0.0,0.0,0.0,0.0,0.0,0.0,0.0,0.0,0.0,0.0,0.0,0.0,0.0,0.0,0.0,0.0,0.0,0.0,0.0,0.0,0.0,0.0,0.0,0.0,0.0,0.0,0.0,0.0,0.0,0.0,0.0,0.0,0.0,0.0,0.0,0.0,0.0,0.0,0.0,0.0,0.0,0.0,0.0,0.0,0.0,0.0,0.0,0.0,1.9551,2.4421,2.4715,1.7223,1.9186,2.1116,2.1841,0.0,0.0,0.0,0.0,0.0,0.0,0.0,0.0,0.0,0.0,0.0,0.0,0.0,0.0,0.0,0.0,0.0,0.0,0.0,0.0,0.0,0.0,0.0,0.0,0.0,0.0,0.0,0.0,0.0,0.0,0.0,0.0,0.0,0.0,0.0,0.0,0.0,0.0,0.0,0.0,0.0,0.0,0.0,0.0,0.0,0.0,0.0,0.0,0.0,0.0,0.0,0.0,0.0,0.0,0.0,0.0,0.0,0.0,0.0,0.0,0.0,0.0,0.0,0.0,0.0,0.0,0.0,0.0,0.0,0.0,0.0,0.0,0.0,0.0,0.0,0.0,0.0,0.0,0.0,0.0,0.0,0.0,0.0,0.0,0.0,0.0,0.0,0.0,0.0,0.0,0.0,0.0,0.0,0.0,0.0,0.0,0.0,0.0,0.0,0.0,0.0,0.0,0.0,0.0,3.1392,2.65,2.795,2.7281,2.2349,2.1782,2.1771,2.1888,0.0,0.0,0.0,0.0,0.0,0.0,0.0,0.0,0.0,0.0,0.0,0.0,0.0,0.0,0.0,0.0,0.0,0.0,0.0,0.0,0.0,0.0,0.0,0.0,0.0,0.0,0.0,0.0,0.0,0.0,0.0,0.0,0.0,0.0,0.0,0.0,0.0,0.0,0.0,0.0,0.0,0.0,0.0,0.0,0.0,0.0,0.0,0.0,0.0,0.0,0.0,0.0,0.0,0.0,0.0,0.0,0.0,0.0,0.0,0.0,0.0,0.0,0.0,0.0,0.0,0.0,0.0,0.0,0.0,0.0,0.0,0.0,0.0,0.0,0.0,0.0,0.0,0.0,0.0,0.0,0.0,0.0,0.0,0.0,0.0,0.0,0.0,0.0,0.0,0.0,0.0,0.0,0.0,0.0,0.0,0.0,0.0,0.0,0.0,0.0,0.0,0.0,0.0,3.1618,3.2723,2.4149,2.704,2.6987,2.0549,2.1156,2.1904,2.1905,2.0321,0.0,0.0,0.0,0.0,0.0,0.0,0.0,0.0,0.0,0.0,0.0,0.0,0.0,0.0,0.0,0.0,0.0,0.0,0.0,0.0,0.0,0.0,0.0,0.0,0.0,0.0,0.0,0.0,0.0,0.0,0.0,0.0,0.0,0.0,0.0,0.0,0.0,0.0,0.0,0.0,0.0,0.0,0.0,0.0,0.0,0.0,0.0,0.0,0.0,0.0,0.0,0.0,0.0,0.0,0.0,0.0,0.0,0.0,0.0,0.0,0.0,0.0,0.0,0.0,0.0,0.0,0.0,0.0,0.0,0.0,0.0,0.0,0.0,0.0,0.0,0.0,0.0,0.0,0.0,0.0,0.0,0.0,0.0,0.0,0.0,0.0,0.0,0.0,0.0,0.0,0.0,0.0,0.0,0.0,0.0,0.0,0.0,0.0,0.0,0.0,0.0,0.0,3.193,3.1516,2.2959,2.6254,2.6286,1.934,2.0856,2.2115,2.192,2.129,0.0,0.0,0.0,0.0,0.0,0.0,0.0,0.0,0.0,0.0,0.0,0.0,0.0,0.0,0.0,0.0,0.0,0.0,0.0,0.0,0.0,0.0,0.0,0.0,0.0,0.0,0.0,0.0,0.0,0.0,0.0,0.0,0.0,0.0,0.0,0.0,0.0,0.0,0.0,0.0,0.0,0.0,0.0,0.0,0.0,0.0,0.0,0.0,0.0,0.0,0.0,0.0,0.0,0.0,0.0,0.0,0.0,0.0,0.0,0.0,0.0,0.0,0.0,0.0,0.0,0.0,0.0,0.0,0.0,0.0,0.0,0.0,0.0,0.0,0.0,0.0,0.0,0.0,0.0,0.0,0.0,0.0,0.0,0.0,0.0,0.0,0.0,0.0,0.0,0.0,0.0,0.0,0.0,0.0,0.0,0.0,0.0,0.0,0.0,0.0,0.0,0.0,3.0386,3.0648,2.9078,2.8091,2.6251,2.2972,2.2889,2.269,2.1952,2.184,0.0,0.0,0.0,0.0,0.0,0.0,0.0,0.0,0.0,0.0,0.0,0.0,0.0,0.0,0.0,0.0,0.0,0.0,0.0,0.0,0.0,0.0,0.0,0.0,0.0,0.0,0.0,0.0,0.0,0.0,0.0,0.0,0.0,0.0,0.0,0.0,0.0,0.0,0.0,0.0,0.0,0.0,0.0,0.0,0.0,0.0,0.0,0.0,0.0,0.0,0.0,0.0,0.0,0.0,0.0,0.0,0.0,0.0,0.0,0.0,0.0,0.0,0.0,0.0,0.0,0.0,0.0,0.0,0.0,0.0,0.0,0.0,0.0,0.0,0.0,0.0,0.0,0.0,0.0,0.0,0.0,0.0,0.0,0.0,0.0,0.0,0.0,0.0,0.0,0.0,0.0,0.0,0.0,0.0,0.0,0.0,0.0,0.0,0.0,0.0,0.0,0.0,3.1222,3.3441,0.0,2.9902,2.7794,2.5374,2.3887,2.2755,2.1952,0.0,0.0,0.0,0.0,0.0,0.0,0.0,0.0,0.0,0.0,0.0,0.0,0.0,0.0,0.0,0.0,0.0,0.0,0.0,0.0,0.0,0.0,0.0,0.0,0.0,0.0,0.0,0.0,0.0,0.0,0.0,0.0,0.0,0.0,0.0,0.0,0.0,0.0,0.0,0.0,0.0,0.0,0.0,0.0,0.0,0.0,0.0,0.0,0.0,0.0,0.0,0.0,0.0,0.0,0.0,0.0,0.0,0.0,0.0,0.0,0.0,0.0,0.0,0.0,0.0,0.0,0.0,0.0,0.0,0.0,0.0,0.0,0.0,0.0,0.0,0.0,0.0,0.0,0.0,0.0,0.0,0.0,0.0,0.0,0.0,0.0,0.0,0.0,0.0,0.0,0.0,0.0,0.0,0.0,0.0,0.0,0.0,0.0,0.0,0.0,0.0,0.0,2.5709,3.1801,3.4923,0.0,3.0054,2.7929,2.5545,2.3975,2.2636,2.1566,0.0,0.0,0.0,0.0,0.0,0.0,0.0,0.0,0.0,0.0,0.0,0.0,0.0,0.0,0.0,0.0,0.0,0.0,0.0,0.0,0.0,0.0,0.0,0.0,0.0,0.0,0.0,0.0,0.0,0.0,0.0,0.0,0.0,0.0,0.0,0.0,0.0,0.0,0.0,0.0,0.0,0.0,0.0,0.0,0.0,0.0,0.0,0.0,0.0,0.0,0.0,0.0,0.0,0.0,0.0,0.0,0.0,0.0,0.0,0.0,0.0,0.0,0.0,0.0,0.0,0.0,0.0,0.0,0.0,0.0,0.0,0.0,0.0,0.0,0.0,0.0,0.0,0.0,0.0,0.0,0.0,0.0,0.0,0.0,0.0,0.0,0.0,0.0,0.0,0.0,0.0,0.0,0.0,0.0,0.0,0.0,0.0,0.0,0.0,0.0,0.0,0.0,2.5889,3.1819,3.437,3.0132,2.8343,2.6303,2.3428,2.316,2.2424,0.0,0.0,0.0,0.0,0.0,0.0,0.0,0.0,0.0,0.0,0.0,0.0,0.0,0.0,0.0,0.0,0.0,0.0,0.0,0.0,0.0,0.0,0.0,0.0,0.0,0.0,0.0,0.0,0.0,0.0,0.0,0.0,0.0,0.0,0.0,0.0,0.0,0.0,0.0,0.0,0.0,0.0,0.0,0.0,0.0,0.0,0.0,0.0,0.0,0.0,0.0,0.0,0.0,0.0,0.0,0.0,0.0,0.0,0.0,0.0,0.0,0.0,0.0,0.0,0.0,0.0,0.0,0.0,0.0,0.0,0.0,0.0,0.0,0.0,0.0,0.0,0.0,0.0,0.0,0.0,0.0,0.0,0.0,0.0,0.0,0.0,0.0,0.0,0.0,0.0,0.0,0.0,0.0,0.0,0.0,0.0,0.0,0.0,0.0,0.0,0.0,0.0,0.0,2.5889,3.1801,3.5515,3.4245,3.2368,3.0244,2.7888,2.715,2.5056,2.0856,0.0,0.0,0.0,0.0,0.0,0.0,0.0,0.0,0.0,0.0,0.0,0.0,0.0,0.0,0.0,0.0,0.0,0.0,0.0,0.0,0.0,0.0,0.0,0.0,0.0,0.0,0.0,0.0,0.0,0.0,0.0,0.0,0.0,0.0,0.0,0.0,0.0,0.0,0.0,0.0,0.0,0.0,0.0,0.0,0.0,0.0,0.0,0.0,0.0,0.0,0.0,0.0,0.0,0.0,0.0,0.0,0.0,0.0,0.0,0.0,0.0,0.0,0.0,0.0,0.0,0.0,0.0,0.0,0.0,0.0,0.0,0.0,0.0,0.0,0.0,0.0,0.0,0.0,0.0,0.0,0.0,0.0,0.0,0.0,0.0,0.0,0.0,0.0,0.0,0.0,0.0,0.0,0.0,0.0,0.0,0.0,0.0,0.0,0.0,0.0,0.0,0.0,2.7142,3.2376,3.5677,3.4809,3.3577,3.1921,2.9775,2.9161,2.7311,2.3658,0.0,0.0,0.0,0.0,0.0,0.0,0.0,0.0,0.0,0.0,0.0,0.0,0.0,0.0,0.0,0.0,0.0,0.0,0.0,0.0,0.0,0.0,0.0,0.0,0.0,0.0,0.0,0.0,0.0,0.0,0.0,0.0,0.0,0.0,0.0,0.0,0.0,0.0,0.0,0.0,0.0,0.0,0.0,0.0,0.0,0.0,0.0,0.0,0.0,0.0,0.0,0.0,0.0,0.0,0.0,0.0,0.0,0.0,0.0,0.0,0.0,0.0,0.0,0.0,0.0,0.0,0.0,0.0,0.0,0.0,0.0,0.0,0.0,0.0,0.0,0.0,0.0,0.0,0.0,0.0,0.0,0.0,0.0,0.0,0.0,0.0,0.0,0.0,0.0,0.0,0.0,0.0,0.0,0.0,0.0,0.0,0.0,0.0,0.0,0.0,0.0,0.0,2.8935,3.3226,3.5256,3.3308,3.3107,3.2228,3.0078,3.0016,2.9399,2.7785,0.0,0.0,0.0,0.0,0.0,0.0,0.0,0.0,0.0,0.0,0.0,0.0,0.0,0.0,0.0,0.0,0.0,0.0,0.0,0.0,0.0,0.0,0.0,0.0,0.0,0.0,0.0,0.0,0.0,0.0,0.0,0.0,0.0,0.0,0.0,0.0,0.0,0.0,0.0,0.0,0.0,0.0,0.0,0.0,0.0,0.0,0.0,0.0,0.0,0.0,0.0,0.0,0.0,0.0,0.0,0.0,0.0,0.0,0.0,0.0,1.8349,0.0,0.0,0.0,0.0,0.0,0.0,0.0,0.0,0.0,0.0,0.0,0.0,0.0,0.0,0.0,0.0,0.0,0.0,0.0,0.0,0.0,0.0,0.0,0.0,0.0,0.0,0.0,0.0,0.0,0.0,0.0,0.0,0.0,0.0,0.0,0.0,0.0,0.0,0.0,0.0,0.0,2.8422,3.3226,3.5818,3.5365,3.5321,3.4446,3.2291,3.3069,3.1941,2.7873,0.0,0.0,0.0,0.0,0.0,0.0,0.0,0.0,0.0,0.0,0.0,0.0,0.0,0.0,0.0,0.0,0.0,0.0,0.0,0.0,0.0,0.0,0.0,0.0,0.0,0.0,0.0,0.0,0.0,0.0,0.0,0.0,0.0,0.0,0.0,0.0,0.0,0.0,0.0,0.0,0.0,0.0,0.0,0.0,0.0,0.0,0.0,0.0,0.0,0.0,0.0,0.0,0.0,0.0,0.0,0.0,0.0,0.0,0.0,0.0,0.0,1.7572,0.0,0.0,0.0,0.0,0.0,0.0,0.0,0.0,0.0,0.0,0.0,0.0,0.0,0.0,0.0,0.0,0.0,0.0,0.0,0.0,0.0,0.0,0.0,0.0,0.0,0.0,0.0,0.0,0.0,0.0,0.0,0.0,0.0,0.0,0.0,0.0,0.0,0.0,0.0,0.0,2.7967,3.2947,3.5996,3.5996,3.5996,3.5553,3.4423,3.4617,3.382,3.1538,2.9799,0.0,0.0,0.0,0.0,0.0,0.0,0.0,0.0,0.0,0.0,0.0,0.0,0.0,0.0,0.0,0.0,0.0,0.0,0.0,0.0,0.0,0.0,0.0,0.0,0.0,0.0,0.0,0.0,0.0,0.0,0.0,0.0,0.0,0.0,0.0,0.0,0.0,0.0,0.0,0.0,0.0,0.0,0.0,0.0,0.0,0.0,0.0,0.0,0.0,0.0,0.0,0.0,0.0,1.7609,1.7525,1.7237,1.7237,1.7265,1.7448,1.8685,1.8835,1.8176,0.0,0.0,0.0,0.0,0.0,0.0,0.0,0.0,0.0,0.0,0.0,0.0,0.0,0.0,0.0,0.0,0.0,0.0,0.0,0.0,0.0,0.0,0.0,0.0,0.0,2.4388,2.4397,0.0,0.0,0.0,0.0,0.0,0.0,0.0,0.0,0.0,0.0,0.0,0.0,2.7661,3.2516,3.5794,3.5784,3.578,3.5843,3.5951,3.5316,3.5032,3.5349,3.1794,2.9532,0.0,0.0,0.0,0.0,0.0,0.0,0.0,0.0,0.0,0.0,0.0,0.0,0.0,0.0,0.0,0.0,0.0,0.0,0.0,0.0,0.0,0.0,0.0,0.0,0.0,0.0,0.0,0.0,0.0,0.0,0.0,0.0,1.8945,1.9801,0.0,0.0,0.0,0.0,0.0,0.0,0.0,0.0,0.0,0.0,0.0,0.0,0.0,1.7764,1.7705,1.8349,1.8636,1.8617,1.9188,1.9712,2.0151,2.0151,2.0402,2.0817,2.004,0.0,1.8215,1.851,0.0,0.0,0.0,0.0,0.0,0.0,0.0,0.0,0.0,0.0,0.0,0.0,0.0,0.0,0.0,0.0,0.0,0.0,0.0,0.0,0.0,0.0,2.703,2.7736,2.6756,2.641,0.0,2.5604,2.265,2.4938,2.3555,0.0,0.0,0.0,0.0,0.0,0.0,0.0,2.7706,3.2012,3.5013,3.4972,3.4959,3.52,3.5779,3.5511,3.5176,3.4832,3.4345,3.2455,2.8851,3.0942,0.0,0.0,0.0,0.0,0.0,0.0,0.0,0.0,0.0,0.0,0.0,0.0,0.0,0.0,0.0,0.0,0.0,0.0,0.0,0.0,0.0,0.0,0.0,0.0,0.0,0.0,0.0,0.0,0.0,2.0173,2.0309,2.0812,2.0449,1.9662,0.0,0.0,0.0,0.0,0.0,0.0,0.0,0.0,0.0,1.9092,1.9236,1.9389,1.9534,2.0059,2.0322,2.0322,2.062,2.0878,2.1157,2.1157,2.1282,2.1455,2.0966,2.0489,2.0025,1.9559,1.9256,1.9045,0.0,0.0,0.0,0.0,1.7536,1.7772,1.7881,1.8901,0.0,0.0,0.0,0.0,0.0,0.0,0.0,0.0,0.0,0.0,0.0,0.0,0.0,2.8823,2.8708,2.8862,3.0462,2.8065,2.6034,0.0,2.582,2.3272,2.0368,0.0,0.0,0.0,0.0,0.0,2.8956,3.3164,3.599,3.5427,3.5347,3.5493,3.5781,3.5287,3.4973,3.5043,3.4281,3.31,3.147,3.2345,3.0781,0.0,0.0,0.0,0.0,0.0,0.0,0.0,0.0,0.0,0.0,0.0,0.0,0.0,0.0,0.0,0.0,0.0,0.0,0.0,0.0,0.0,0.0,0.0,0.0,0.0,0.0,0.0,0.0,2.0906,2.1239,2.1882,2.1038,2.0145,0.0,0.0,0.0,0.0,0.0,0.0,1.9877,2.0021,2.0192,2.0454,2.0656,2.0836,2.1066,2.1353,2.1493,2.1493,2.1493,2.1556,2.1694,2.1694,2.1782,2.1907,2.1907,2.1907,2.182,2.069,2.0225,2.0213,2.0075,1.9535,1.8855,1.9003,1.9047,1.9032,1.8926,2.0104,2.1655,2.1812,0.0,2.3376,2.3848,0.0,0.0,0.0,0.0,2.6851,2.752,2.8152,2.8751,2.941,3.0015,3.0595,3.1133,2.9868,2.886,0.0,2.8255,2.5848,2.2585,0.0,0.0,0.0,0.0,3.084,2.9858,3.3731,3.6295,3.5583,3.5614,3.5707,3.5744,3.525,3.4982,3.5083,3.4041,3.3454,3.3442,3.3208,3.19,2.9399,0.0,0.0,0.0,0.0,0.0,0.0,0.0,0.0,0.0,0.0,0.0,0.0,0.0,0.0,0.0,0.0,0.0,0.0,0.0,0.0,0.0,0.0,0.0,0.0,0.0,0.0,0.0,0.0,0.0,2.2353,2.2409,0.0,0.0,0.0,0.0,1.951,1.9971,2.0358,2.045,2.1052,2.142,2.142,2.1438,2.1461,2.1476,2.1483,2.1493,2.1493,2.1493,2.1757,2.2272,2.2272,2.2531,2.302,2.302,2.302,2.2945,2.1857,2.1405,2.1355,2.0855,2.0616,2.0503,1.995,2.0427,2.1317,2.132,2.2531,2.4131,2.4121,2.4221,2.4277,2.4058,2.4481,0.0,0.0,2.597,2.7866,2.7288,2.8513,2.9922,2.9946,3.0429,3.0963,3.1316,3.0074,2.9425,0.0,3.0546,2.9215,2.7987,0.0,2.8694,2.494,2.8269,3.0804,2.9748,3.2667,3.4774,3.4681,3.5127,3.5474,3.5584,3.5752,3.5469,3.4585,3.4598,3.4144,3.3058,3.3371,3.2949,3.1671,2.8937,0.0,0.0,0.0,0.0,0.0,0.0,0.0,0.0,0.0,0.0,0.0,0.0,0.0,0.0,0.0,0.0,0.0,0.0,0.0,0.0,0.0,0.0,0.0,0.0,0.0,0.0,0.0,0.0,2.3772,2.3481,0.0,0.0,2.2498,2.2198,2.2142,2.2769,2.3335,2.377,2.3974,2.4294,2.4776,2.4286,2.4009,2.4009,2.3546,2.3029,2.2518,2.2518,2.2619,2.2807,2.2807,2.292,2.3108,2.3108,2.3108,2.307,2.2681,2.2518,2.2493,2.2334,2.2246,2.2234,2.1992,2.2512,2.3303,2.3303,2.405,2.5091,2.5563,2.6,2.6404,2.6782,2.7615,2.8395,2.8147,2.9057,3.0026,2.9648,3.0364,3.113,3.1047,3.1488,3.2022,3.2314,3.2118,3.2361,3.3841,3.2128,3.0294,2.9833,3.2102,3.2981,2.9983,3.3201,3.5616,3.4624,3.6028,3.6916,3.6331,3.6142,3.6049,3.6118,3.5864,3.5557,3.5238,3.4797,3.4394,3.3987,3.3646,3.3265,3.2845,3.2215,2.9667,0.0,0.0,0.0,0.0,0.0,0.0,0.0,0.0,0.0,0.0,0.0,0.0,0.0,0.0,0.0,0.0,0.0,0.0,0.0,0.0,0.0,0.0,0.0,0.0,0.0,0.0,2.4153,2.4832,2.4259,2.3923,2.4176,2.3623,2.3501,2.4152,2.4866,2.5314,2.5443,2.5593,2.5932,2.6428,2.5615,2.5461,2.6048,2.53,2.4771,2.4506,2.4244,2.4106,2.4093,2.3624,2.3304,2.3086,2.311,2.3001,2.2849,2.3034,2.3108,2.3108,2.3108,2.3108,2.3108,2.3108,2.3619,2.4379,2.4879,2.537,2.5919,2.6875,2.758,2.8211,2.8911,2.9805,3.0601,3.0601,3.0878,3.1235,3.1389,3.1738,3.2074,3.2238,3.2585,3.2961,3.3328,3.2982,3.3246,3.5353,3.4061,3.2314,3.1489,3.3602,3.4324,3.1063,3.3252,3.4873,3.381,3.5051,3.5825,3.5247,3.5913,3.6329,3.6139,3.4925,3.4472,3.5209,3.3989,3.3501,3.4153,3.285,3.2037,3.1917,3.1438,2.914,2.4974,0.0,0.0,0.0,0.0,0.0,0.0,0.0,0.0,0.0,0.0,0.0,0.0,0.0,0.0,0.0,0.0,0.0,0.0,0.0,0.0,0.0,0.0,0.0,2.3391,2.402,2.4815,2.5499,2.4888,2.4681,2.5398,2.4836,2.4736,2.5453,2.6133,2.6121,2.5296,2.5817,2.614,2.614,2.5338,2.5644,2.7273,2.6536,2.6533,2.724,2.6472,2.61,2.6056,2.465,2.3692,2.3178,2.3149,2.2843,2.2384,2.2908,2.3138,2.3138,2.3108,2.3108,2.3138,2.3138,2.3649,2.4567,2.5984,2.6493,2.6733,2.8036,2.8896,2.9518,3.0102,3.0699,3.119,3.119,3.119,3.1389,3.2265,3.2517,3.2692,3.3437,3.3663,3.382,3.4348,3.2598,3.2041,3.5854,3.6384,3.5532,3.3362,3.3674,3.2749,2.8412,2.8446,0.0,2.7191,2.9571,3.1385,3.1365,3.4297,3.6079,3.5588,3.2971,3.2276,3.4442,3.2193,3.1639,3.3449,3.1099,2.9554,2.9185,2.644,2.6115,2.8349,0.0,0.0,0.0,0.0,0.0,0.0,0.0,0.0,0.0,0.0,0.0,0.0,0.0,0.0,0.0,0.0,0.0,0.0,0.0,0.0,0.0,0.0,2.5571,2.501,2.5565,2.6273,2.695,2.6839,2.6771,2.6967,2.7249,2.7499,2.77,2.8355,2.8625,2.8361,2.7608,2.7188,2.7188,2.6958,2.6796,2.6728,2.74,2.7327,2.6425,2.6223,2.61,2.6069,2.5046,2.4604,2.4606,2.4566,2.3914,2.2921,2.3667,2.3972,2.3914,2.3335,2.3454,2.3972,2.3972,2.4781,2.5873,2.5862,2.648,2.7357,2.7735,2.8543,2.9429,2.9585,3.0356,3.119,3.119,3.119,3.1389,3.2265,3.2638,3.3012,3.3832,3.468,3.5388,3.5826,3.5848,3.635,3.8354,3.869,3.8372,3.7583,3.703,3.6506,3.591,3.5271,0.0,3.4356,3.5054,3.5355,3.48,3.3586,3.3295,3.4552,3.1852,3.1165,3.3693,3.3669,3.3763,3.4286,3.3556,3.3072,3.2916,2.9538,2.8274,0.0,0.0,0.0,0.0,0.0,0.0,0.0,0.0,0.0,0.0,0.0,0.0,0.0,0.0,0.0,0.0,0.0,0.0,0.0,0.0,0.0,0.0,2.5879,2.6803,2.6815,2.6922,2.7041,2.7133,2.7388,2.755,2.755,2.8139,2.8645,2.8984,2.9609,2.9816,2.9496,2.8996,2.8481,2.7909,2.8068,2.807,2.7791,2.8739,2.8911,2.8346,2.8014,2.7861,2.7817,2.672,2.6178,0.0,2.5774,2.507,2.4151,2.4588,2.4766,0.0,0.0,0.0,0.0,0.0,2.5755,2.6488,2.6446,2.7112,2.7959,2.7685,2.8575,2.9739,2.9473,2.9568,2.9805,2.9918,2.9292,2.8973,3.0818,3.1488,3.2221,3.44,3.5495,3.6272,3.7057,3.6739,3.6966,3.9177,3.8609,0.0,3.9409,3.7977,3.6156,3.4665,3.4039,3.3409,3.2501,3.3668,3.4185,3.3279,3.267,3.279,3.3917,3.1044,0.0,0.0,0.0,3.2649,3.2955,3.338,0.0,0.0,0.0,2.9302,3.0457,0.0,0.0,0.0,2.5798,2.3663,0.0,0.0,0.0,0.0,0.0,0.0,0.0,0.0,0.0,0.0,0.0,0.0,0.0,0.0,0.0,0.0,2.6889,2.7814,2.8422,2.804,2.7476,2.6796,2.7335,2.7726,2.7726,2.8262,2.8934,2.9657,3.0268,3.0301,2.958,0.0,0.0,0.0,0.0,2.9239,2.9594,3.0163,3.0748,3.1351,3.0644,3.0299,3.024,2.8912,2.8013,2.7522,2.6947,2.63,2.5595,2.5629,2.5605,2.5453,2.4794,2.4951,2.5605,2.627,2.6617,2.6797,2.7305,0.0,0.0,2.791,2.8865,3.0208,2.9651,2.8926,2.8303,2.8545,2.73,2.6548,2.9392,3.0443,3.1626,3.5195,3.634,3.6953,3.8111,3.6642,3.6043,3.9121,3.7594,3.6691,3.9634,3.7543,3.4045,2.9816,2.9442,2.897,2.7068,2.9513,3.0945,2.9738,0.0,0.0,3.336,3.0443,2.9707,3.2307,3.0957,3.0391,3.1104,3.2282,3.1321,2.7947,2.8999,3.0475,3.2313,3.21,3.259,3.3563,2.7127,2.484,0.0,0.0,0.0,0.0,0.0,0.0,0.0,0.0,0.0,0.0,0.0,0.0,0.0,0.0,0.0,2.6981,2.7702,2.8365,2.855,2.8475,2.8345,2.8215,2.8794,2.9181,2.9181,2.9731,3.0158,3.0328,3.0956,3.1244,3.1099,3.0208,0.0,2.9347,2.9431,2.9529,2.9579,3.0724,3.1029,3.0524,0.0,0.0,3.0269,2.9285,2.8914,2.8973,2.8828,2.7768,2.626,2.6845,2.6767,2.6256,2.6122,2.6149,2.6313,2.6455,2.7185,2.7981,2.7042,2.7802,2.9134,2.8535,2.9225,3.0272,3.0166,3.0552,0.0,3.1078,3.1533,3.2231,3.3206,3.4348,3.5533,3.661,3.7857,3.8899,3.925,3.9457,3.9765,4.0432,3.9841,3.9344,3.9663,3.8279,3.6827,3.5889,3.4934,3.4165,3.3734,3.4267,3.419,3.2866,3.1854,3.144,3.1866,2.9874,2.9483,3.1573,3.2416,3.3137,3.3822,3.5255,3.5562,3.4551,3.5609,3.6132,3.606,3.6216,3.633,3.6271,3.266,3.041,0.0,0.0,0.0,0.0,0.0,0.0,0.0,0.0,0.0,0.0,0.0,2.6906,0.0,0.0,2.7557,2.802,2.8509,2.9134,2.9904,3.0072,2.9856,2.9184,2.9654,3.0043,3.0043,3.0642,3.0987,3.0987,3.1615,3.1989,3.1989,3.1719,3.124,3.0582,3.0881,3.0731,3.0058,3.1002,3.1307,3.0896,3.0896,3.0896,3.0896,3.045,3.0335,3.044,3.0059,2.9171,2.7989,2.7676,2.7354,2.7086,2.7363,2.7515,2.75,2.7487,2.8116,2.8856,2.8169,2.8776,2.9761,2.915,2.9761,3.0699,3.0393,3.0511,3.0819,3.1113,3.1309,3.1806,3.3549,3.4618,3.5702,3.7555,3.8712,3.9552,4.0081,4.0514,4.0794,4.0799,4.0366,3.9824,3.9293,3.8211,3.7399,3.7399,3.6833,3.6084,3.5214,3.534,3.5015,3.3735,3.2433,3.1756,3.2025,3.0815,3.0616,3.1987,3.3024,3.3912,3.4576,3.6476,3.7353,3.6996,3.8546,3.8913,3.8051,3.8022,3.7614,3.6793,3.479,3.33,0.0,0.0,0.0,0.0,0.0,0.0,0.0,0.0,2.8211,2.7646,2.7787,2.7894,2.7606,2.7571,2.7993,2.9269,2.9573,3.0107,3.1451,3.1618,3.1255,3.0283,3.0471,3.0702,3.0702,3.1301,3.169,3.169,3.2303,3.2706,3.2706,3.3215,3.3006,3.1914,3.2392,3.2123,3.0911,3.1421,3.163,3.1511,3.1511,3.1511,3.1511,3.1511,3.1511,3.1466,3.0806,3.0231,2.9674,2.834,2.7795,2.7835,2.8295,2.8559,2.8701,2.8803,2.9157,2.9563,2.9563,2.9973,3.0377,2.9859,3.0547,3.1494,3.1093,3.0909,3.0969,3.1506,3.1237,3.1379,3.3875,3.4854,3.5862,3.8512,3.9422,3.9888,4.0636,4.0807,4.0776,4.0699,4.0173,3.9562,3.8956,3.7947,3.7154,3.7076,3.696,3.6388,3.4978,3.5159,3.5027,3.3896,3.3313,3.2895,3.2614,3.1923,3.1739,3.2355,3.3156,3.3836,3.4382,3.677,3.7908,3.7539,3.9613,4.0125,3.8954,3.8803,3.8105,3.6829,3.5758,3.4907,2.7561,2.6167,2.5291,2.5291,2.6556,2.7606,0.0,0.0,3.0425,2.9082,2.9844,3.0741,3.0702,3.07,3.0799,3.1082,3.1153,3.1456,3.2353,3.1958,3.1781,3.2199,3.1743,3.1391,3.1391,3.1989,3.2378,3.2378,3.3021,3.338,3.338,3.3455,3.3425,3.3275,3.335,3.3036,3.2273,3.2333,3.2079,3.1511,3.1511,3.1511,3.1511,3.1511,3.1511,3.1466,3.0806,3.0446,3.0289,2.9033,2.8455,2.8407,2.8463,2.8826,2.9361,2.9892,3.0145,3.0187,3.0187,3.058,3.1058,3.081,3.1715,3.2939,3.3231,3.4067,3.502,3.5377,3.6176,3.7063,3.7706,3.8638,3.9518,3.9948,4.0357,4.0678,4.0771,4.0792,4.0695,4.0338,3.9919,3.9503,3.9141,3.8038,3.7057,3.656,3.6075,3.5717,3.5515,3.5538,3.5299,3.4576,3.4431,3.3887,3.2695,3.1923,3.1539,3.1611,3.2879,3.3633,3.371,3.653,3.7834,3.725,3.9523,4.0046,3.8722,3.9358,3.8992,3.7733,3.7184,3.5959,2.869,2.8047,0.0,0.0,2.888,2.9702,2.9381,3.0294,3.1021,3.0415,3.0768,3.1326,3.1769,3.114,3.0993,0.0,3.1878,3.1896,3.3485,3.2834,3.2422,3.3098,3.1527,3.0537,3.0868,3.1898,3.2333,3.1944,3.326,3.4068,3.4068,3.4442,3.4666,3.4666,3.4277,3.3754,3.3095,3.2706,3.2153,3.1511,3.1511,3.1511,3.1511,3.1511,3.1739,3.2074,3.0988,3.0512,3.0479,2.9526,2.8876,2.8559,2.9271,2.9695,2.9935,3.0208,3.0518,3.0821,3.0821,3.1264,3.1896,3.2126,3.289,3.3813,3.4253,3.5286,3.639,3.6893,3.7941,3.9001,3.9481,3.9982,4.0351,4.0472,4.0654,4.0792,4.0797,4.0795,4.0731,4.0526,4.0014,3.9467,3.8997,3.8193,3.7341,3.6522,3.5941,3.56,3.56,3.56,3.5184,3.4137,3.4012,3.3453,3.2092,3.2064,3.1966,3.1524,3.3193,3.4012,3.3624,3.6511,3.782,3.721,3.9548,4.0192,3.9053,3.9603,3.9304,3.8235,3.7524,3.6361,2.8931,0.0,0.0,2.9625,3.0345,3.0954,3.114,3.119,3.1258,3.1464,3.1495,3.1735,3.2479,3.1732,0.0,3.3406,3.2859,3.2812,3.4558,3.3704,3.2924,3.3029,3.1142,2.9804,2.9699,3.124,3.2243,3.2303,3.4029,3.4979,3.4788,3.543,3.5701,3.5504,3.5026,3.4442,3.3769,3.311,3.2526,3.2053,3.1672,3.1611,3.1796,3.1796,3.2092,3.2555,3.1719,3.1263,3.104,3.0331,2.9634,2.9065,2.9957,3.0293,3.0314,3.0477,3.0821,3.1263,3.1606,3.2073,3.2652,3.3525,3.4303,3.4991,3.5469,3.6432,3.745,3.8037,3.8893,3.9746,4.0345,4.0534,4.0582,4.0707,4.0766,4.0793,4.0798,4.0794,4.0723,4.0565,4.0034,3.9449,3.896,3.8352,3.7649,3.6923,3.6249,3.5761,3.5622,3.56,3.5091,3.3735,3.3582,3.3024,3.1611,3.2176,3.2272,3.1568,3.3437,3.4309,3.3633,3.6511,3.782,3.721,3.9573,4.0242,3.9152,3.9519,3.9176,3.8125,3.7147,3.6052,0.0,0.0,2.7545,2.8744,2.9583,3.0328,3.1038,3.119,3.1393,3.2124,3.2276,3.2496,3.3237,3.3339,3.3558,3.4336,3.4438,3.467,3.5464,3.4406,3.3086,3.1823,3.0973,2.9729,0.0,3.0028,3.2318,3.4279,3.5722,3.6213,3.5507,3.615,3.6259,3.5537,3.5489,3.5145,3.4488,3.3784,3.3456,3.3432,3.2112,3.1881,3.2574,3.2574,3.2574,3.2641,3.3245,3.3055,3.2308,3.1692,3.0962,3.0251,3.0293,3.0293,3.0372,3.0975,3.119,3.139,3.2614,3.306,3.3347,3.4997,3.6069,3.6803,3.7287,3.7995,3.8766,3.937,3.958,3.9746,4.0345,4.0589,4.0713,4.0788,4.0799,4.0797,4.0789,4.0752,4.0591,4.0194,3.9829,3.9486,3.9147,3.8425,3.7876,3.7859,3.7002,3.6203,3.5667,3.56,3.5091,3.3735,3.3582,3.3024,3.1611,3.2176,3.2272,3.1568,3.3437,3.4309,3.3633,3.6511,3.782,3.721,3.9573,4.0112,3.8719,3.9063,3.8527,3.7211,3.6014,3.4808,0.0,0.0,2.8836,2.9557,3.0277,3.1021,3.1769,3.1938,3.2141,3.2882,3.2239,3.1802,3.2527,3.1867,3.1782,3.3491,3.2579,3.2567,3.5234,3.2705,3.1366,3.3338,3.1765,0.0,0.0,0.0,0.0,3.3253,3.5349,3.6707,3.7011,3.7249,3.7279,3.7041,3.7041,3.6697,3.6034,3.4869,3.4304,3.4275,3.3354,3.2799,3.2629,3.3066,3.3261,3.3261,3.3495,3.3169,3.2445,3.22,3.1395,3.0335,3.074,3.12,3.1661,3.184,3.2239,3.2693,3.3012,3.3737,3.476,3.6,3.6916,3.7633,3.8144,3.8608,3.9054,3.9481,3.9765,4.0013,4.0397,4.0596,4.0718,4.0773,4.0803,4.0795,4.0802,4.0742,4.0636,4.0403,3.9954,3.9564,3.9438,3.8886,3.8183,3.7542,3.6845,3.6203,3.5672,3.56,3.527,3.4358,3.3862,3.3401,3.2944,3.313,3.3156,3.2917,3.4717,3.5329,3.4309,3.7023,3.8224,3.747,3.9399,4.0034,3.9307,3.8933,3.8303,3.7434,3.6049,3.4745,2.8202,2.8876,2.9575,3.0321,3.1055,3.1718,3.2192,3.2513,3.2899,3.3643,3.3034,3.2425,3.2645,3.1918,3.1729,3.3186,3.2244,3.2333,3.52,3.2978,3.1767,3.3653,3.256,0.0,0.0,0.0,0.0,3.333,3.5127,3.6479,3.6985,3.7251,3.7548,3.7806,3.7793,3.7582,3.7146,3.577,3.481,3.4296,3.4062,3.3608,3.2986,3.3659,3.3533,3.283,3.386,3.3294,3.1698,3.2458,3.191,3.0675,3.1341,3.1887,3.2347,3.2804,3.3464,3.409,3.4109,3.475,3.576,3.7065,3.78,3.8251,3.8611,3.8898,3.916,3.9517,3.9829,4.0158,4.0441,4.0623,4.0742,4.0781,4.0805,4.0805,4.0808,4.0707,4.0603,4.0519,4.0014,3.9599,3.9599,3.9105,3.8368,3.7359,3.6921,3.6437,3.5694,3.56,3.5339,3.4688,3.4211,3.3761,3.3287,3.3684,3.3761,3.3261,3.5054,3.5671,3.4648,3.713,3.825,3.7605,3.9433,3.9974,3.9169,3.8654,3.7854,3.6777,3.5411,3.4203,2.8687,2.9386,2.978,3.0966,3.1785,3.2327,3.2395,3.2949,3.3643,3.4303,3.437,3.4083,0.0,0.0,3.3119,3.3271,3.3237,3.3711,3.5211,3.4851,3.3961,0.0,0.0,0.0,0.0,0.0,0.0,3.4585,0.0,3.5783,3.5838,3.6476,3.7202,3.7889,3.7937,3.7937,3.7937,3.6525,3.5096,3.3659,3.4333,3.4309,3.3659,3.4333,3.3495,3.1622,3.441,3.3571,3.0446,3.2544,3.256,3.1326,3.2039,3.2344,3.2557,3.38,3.4723,3.5444,3.5929,3.6095,3.6381,3.8145,3.8723,3.8719,3.8707,3.8909,3.9212,3.9529,3.984,4.0177,4.0422,4.0645,4.0797,4.0797,4.0801,4.0797,4.0797,4.0633,4.0496,4.0496,4.0014,3.9587,3.9564,3.9045,3.8318,3.7359,3.719,3.6766,3.5739,3.56,3.5362,3.4712,3.4624,3.4112,3.2868,3.3887,3.4087,3.2815,3.4592,3.5391,3.4719,3.6897,3.7972,3.7672,3.9555,3.9862,3.8456,3.822,3.7183,3.5374,3.417,3.3235,2.7898,2.923,3.0934,3.1805,3.2158,3.2598,3.3698,3.4066,3.4117,3.3744,3.2814,3.1667,0.0,0.0,0.0,3.1393,3.0835,0.0,3.2848,3.2521,0.0,0.0,0.0,3.5217,3.5406,3.7042,0.0,0.0,3.7313,3.8327,3.8929,3.9135,3.9319,3.9506,3.9506,3.9506,3.9506,3.807,3.6323,3.4358,3.5028,3.5005,3.4358,3.5052,3.4774,3.3825,3.5064,3.4433,3.2611,3.3186,3.2848,3.2039,3.2226,3.297,3.4033,3.4766,3.5483,3.6226,3.7112,3.7432,3.7554,3.8426,3.8844,3.8961,3.8762,3.9234,3.9808,3.9645,3.9984,4.0406,4.0481,4.0645,4.0797,4.0797,4.0801,4.0797,4.0797,4.0633,4.0496,4.0496,4.0014,3.9463,3.9013,3.8473,3.7894,3.7285,3.6862,3.6354,3.5694,3.56,3.5538,3.5362,3.4894,3.4664,3.4816,3.4688,3.4664,3.484,3.6071,3.6545,3.5959,3.7469,3.8375,3.8487,3.8428,3.8608,3.9077,3.7581,3.6457,3.5662,3.4267,3.3235,2.9145,3.0443,3.2044,3.2252,3.2801,3.3326,3.3495,3.3778,3.3711,3.2645,3.1782,0.0,0.0,0.0,0.0,0.0,0.0,0.0,3.253,3.2425,3.2324,0.0,3.4455,0.0,3.7119,3.8561,3.9087,0.0,3.8027,3.829,3.9099,3.9123,3.9411,4.0079,4.0096,3.9791,3.914,3.799,3.6626,3.5052,3.5407,3.5385,3.5052,3.5447,3.4847,3.3667,0.0,3.4382,3.251,3.3474,3.344,3.2797,3.3139,3.3783,3.4631,3.5737,3.6396,3.6884,3.7912,3.8251,3.83,3.8611,3.8884,3.9072,3.8923,3.9439,4.0071,3.988,4.0138,4.0496,4.0496,4.0645,4.0797,4.0797,4.0801,4.0797,4.0797,4.0633,4.0422,4.0157,3.9832,3.9414,3.8807,3.8449,3.8082,3.7578,3.7078,3.6563,3.6028,3.5739,3.56,3.56,3.5253,3.5075,3.5144,3.5075,3.5075,3.5161,3.6218,3.6704,3.6416,3.7698,3.8534,3.8782,3.8357,3.8354,3.8773,3.7005,3.569,3.4812,3.3682,3.2788,3.1054,3.1975,3.2848,3.2613,3.3537,3.4184,3.3021,3.3109,3.3066,3.1594,0.0,3.0575,2.9304,0.0,2.9484,3.0954,0.0,3.1529,3.2527,3.3102,3.3305,3.3,3.4433,3.609,3.7753,3.8979,3.9791,4.0079,3.827,3.7453,3.8145,3.8193,3.8768,4.0062,4.0011,3.9276,3.7922,3.7185,3.64,3.56,3.56,3.56,3.56,3.56,3.4556,3.2852,0.0,0.0,3.1782,3.3694,3.4117,3.3609,3.4252,3.4605,3.4951,3.6599,3.7229,3.7433,3.8366,3.8707,3.8707,3.8707,3.8909,3.9165,3.9107,3.958,4.0139,4.011,4.0285,4.0496,4.0496,4.0645,4.0797,4.0797,4.0801,4.0797,4.0797,4.0633,4.0328,3.9724,3.9599,3.9414,3.8807,3.8643,3.8449,3.7963,3.7451,3.6941,3.6457,3.5941,3.56,3.56,3.56,3.5362,3.4783,3.527,3.5362,3.4759,3.5834,3.6519,3.6519,3.7681,3.8494,3.8838,3.8665,3.8416,3.8028,3.6567,3.5104,3.3582,3.3013,3.2299,3.0665,3.1425,3.265,3.3564,3.4144,3.459,3.4962,3.4444,0.0,0.0,0.0,2.973,2.9455,2.9193,0.0,3.0954,0.0,0.0,0.0,0.0,3.273,0.0,0.0,0.0,0.0,0.0,0.0,0.0,0.0,3.9581,3.9698,3.9723,3.9842,4.0096,3.952,3.8768,3.7922,3.7185,3.64,3.56,3.56,3.56,3.56,3.56,3.538,3.5042,3.543,0.0,3.3947,3.4336,3.4421,3.432,3.4438,3.5147,3.616,3.6927,3.7451,3.7877,3.8499,3.8707,3.8707,3.8707,3.9078,3.945,3.9173,3.9719,4.0381,4.0158,4.0285,4.0496,4.0496,4.0645,4.0797,4.0797,4.0801,4.0797,4.0797,4.0633,4.0328,3.9724,3.9599,3.9414,3.8807,3.8316,3.8015,3.7911,3.7117,3.6498,3.6416,3.5941,3.56,3.56,3.56,3.5538,3.5447,3.5538,3.5538,3.543,3.6464,3.7058,3.7058,3.7667,3.8314,3.9043,3.8,3.7558,3.767,3.6747,3.5374,3.3582,3.3495,3.2745,3.118,3.2366,3.4142,3.4895,3.529,3.5238,3.4222,0.0,0.0,0.0,0.0,2.86,2.8393,0.0,0.0,0.0,0.0,0.0,0.0,0.0,0.0,0.0,0.0,0.0,0.0,0.0,0.0,0.0,0.0,3.9276,4.0062,4.0096,4.0096,4.0096,3.9005,3.8261,3.7905,3.6755,3.5994,3.56,3.56,3.56,3.56,3.56,3.56,3.56,3.56,0.0,3.3697,3.4677,3.4495,3.3734,3.4997,3.5855,3.6481,3.7285,3.7702,3.798,3.8512,3.8707,3.8707,3.8707,3.91,3.9576,3.9401,3.9886,4.0473,4.0347,4.045,4.0603,4.0603,4.0752,4.0908,4.0908,4.0856,4.0768,4.0668,4.057,4.0362,3.9953,3.9731,3.9445,3.899,3.8582,3.8334,3.8334,3.7451,3.6823,3.6823,3.6101,3.56,3.56,3.56,3.5717,3.5989,3.5761,3.5717,3.6006,3.6746,3.7209,3.7209,3.7929,3.8545,3.9099,3.7855,3.7344,3.7588,3.6167,3.4828,3.3582,3.3235,3.2516,3.2289,3.3693,3.5479,3.6025,3.6362,3.5948,3.3512,3.2511,0.0,0.0,2.8241,2.8014,2.8027,0.0,0.0,0.0,0.0,0.0,0.0,0.0,0.0,0.0,0.0,0.0,0.0,0.0,0.0,0.0,0.0,0.0,4.0045,4.0096,4.0028,3.9876,3.8582,3.7821,3.7669,3.6276,3.56,3.56,3.56,3.56,3.56,3.56,3.56,3.56,3.56,0.0,0.0,3.5006,3.4711,3.3298,3.5645,3.658,3.6684,3.756,3.798,3.8115,3.8546,3.8707,3.8707,3.8707,3.91,3.9599,3.9599,4.0024,4.0496,4.0496,4.0589,4.0697,4.0697,4.0856,4.0984,4.0968,4.089,4.0737,4.054,4.0496,4.0397,4.0062,3.9786,3.9481,3.9077,3.8844,3.8707,3.8707,3.7929,3.7304,3.721,3.6357,3.5717,3.5622,3.56,3.5827,3.6354,3.6011,3.5963,3.6374,3.6902,3.7152,3.702,3.7981,3.8631,3.8845,3.7856,3.7398,3.7504,3.5663,3.4374,3.3582,3.2922,3.2188,3.3998,3.4758,3.5154,3.6355,3.6881,3.6656,3.4906,0.0,0.0,3.0794,2.9341,2.8761,3.0137,3.0095,3.0411,0.0,0.0,0.0,0.0,0.0,0.0,0.0,0.0,0.0,0.0,0.0,0.0,0.0,0.0,0.0,4.0096,4.0096,3.9791,3.9106,3.8328,3.7584,3.6914,3.6045,3.56,3.56,3.56,3.56,3.56,3.56,3.56,3.56,3.56,0.0,0.0,3.5635,3.5359,3.4118,3.6289,3.7133,3.7192,3.7702,3.82,3.8627,3.8673,3.8707,3.8707,3.8707,3.91,3.9599,3.9599,4.0024,4.0496,4.0496,4.0589,4.0697,4.0697,4.0856,4.0965,4.0852,4.082,4.0737,4.054,4.0496,4.0336,3.9757,3.9622,3.9427,3.8833,3.8723,3.8707,3.8707,3.8218,3.7685,3.7248,3.6684,3.6139,3.5667,3.56,3.5827,3.6354,3.6354,3.6333,3.6412,3.6902,3.6981,3.6498,3.7451,3.7997,3.8012,3.7893,3.7649,3.723,3.595,3.4738,3.3582,3.2922,3.2188,3.2795,3.459,3.6662,3.766,3.7763,3.7021,3.4695,0.0,0.0,3.0153,2.9192,2.887,2.9255,2.9183,2.9501,0.0,0.0,0.0,0.0,0.0,0.0,0.0,0.0,0.0,0.0,0.0,0.0,0.0,0.0,0.0,3.8717,3.9191,3.9292,3.9005,3.7838,3.7117,3.6795,3.6011,3.56,3.56,3.56,3.56,3.56,3.56,3.56,3.5622,3.5941,0.0,0.0,3.5402,3.4955,3.2378,3.6149,3.7614,3.7685,3.8183,3.853,3.8719,3.8865,3.8844,3.8765,3.9127,3.9396,3.9599,3.9599,4.0024,4.0496,4.0496,4.0629,4.0767,4.0767,4.0939,4.1093,4.0947,4.086,4.0775,4.0655,4.0559,4.043,4.0184,3.9853,3.9517,3.9275,3.8946,3.8707,3.8707,3.8232,3.7825,3.7649,3.7192,3.6684,3.6139,3.5788,3.5963,3.6803,3.66,3.6664,3.7268,3.7488,3.7396,3.6902,3.7861,3.81,3.7488,3.7488,3.7229,3.6724,3.5916,3.5071,3.4186,3.3505,3.2841,3.221,3.4757,3.7694,3.8505,3.8068,3.678,0.0,0.0,3.1919,2.9496,2.9005,2.8917,2.8633,2.8577,2.9013,3.0292,0.0,3.1121,0.0,0.0,0.0,0.0,0.0,0.0,0.0,0.0,0.0,0.0,0.0,0.0,0.0,3.8193,3.8345,3.8345,3.7354,3.6694,3.6434,3.5893,3.56,3.56,3.5761,3.5589,3.5137,3.5623,3.5642,3.5364,0.0,0.0,0.0,3.5776,3.5325,3.2517,3.6546,3.8048,3.7963,3.8496,3.8707,3.875,3.9013,3.899,3.8898,3.942,3.9668,3.9754,3.9754,4.0101,4.0496,4.0496,4.0639,4.0813,4.0905,4.1055,4.1171,4.1026,4.0922,4.0828,4.0724,4.063,4.053,4.0406,4.0043,3.9679,3.9493,3.9095,3.8788,3.8704,3.8382,3.8082,3.7929,3.7614,3.721,3.6684,3.6312,3.6295,3.6921,3.662,3.6766,3.7649,3.7685,3.7542,3.721,3.7998,3.8133,3.7415,3.7267,3.7001,3.6623,3.5754,3.5075,3.4576,3.371,3.2933,3.3128,3.5601,3.7694,3.8505,3.7496,3.5862,0.0,0.0,3.0962,2.9335,2.9005,2.9005,2.8994,2.8994,2.9519,3.1127,3.1114,0.0,0.0,0.0,0.0,0.0,0.0,0.0,0.0,0.0,0.0,0.0,0.0,0.0,0.0,3.7235,3.6829,3.6829,3.6812,3.6417,3.5616,3.56,3.56,3.56,3.6139,3.5555,3.4056,3.5679,3.5787,0.0,0.0,0.0,0.0,3.7227,3.6938,3.5672,3.7841,3.8366,3.7963,3.8496,3.8707,3.875,3.9013,3.9099,3.9147,3.9486,3.9819,4.0091,4.0091,4.0276,4.0496,4.0496,4.0639,4.0864,4.1127,4.1191,4.1171,4.1026,4.0996,4.0942,4.0745,4.0697,4.0578,4.0176,4.0101,3.9891,3.9212,3.9112,3.9013,3.875,3.8692,3.8496,3.7963,3.7911,3.7702,3.7229,3.719,3.6962,3.6457,3.6395,3.6623,3.7154,3.7209,3.7209,3.7209,3.7649,3.7893,3.7876,3.7433,3.7209,3.7173,3.5453,3.46,3.4576,3.3235,3.2216,3.0454,3.2706,3.5018,3.5293,3.4963,3.4156,3.2522,0.0,3.0944,2.9335,2.9005,2.9005,2.9005,2.9005,2.9537,3.114,3.1309,0.0,0.0,0.0,0.0,0.0,0.0,0.0,0.0,0.0,0.0,0.0,0.0,0.0,0.0,3.6638,3.6762,3.7256,3.6435,3.6021,3.6139,3.5766,3.5766,3.6161,3.6312,3.5722,3.4527,3.6201,0.0,0.0,0.0,0.0,0.0,3.741,3.7153,3.5385,3.7766,3.8611,3.8465,3.8643,3.8707,3.8762,3.9275,3.9289,3.9225,3.9975,4.0157,4.0129,4.0321,4.0422,4.053,4.0668,4.0821,4.0986,4.115,4.1191,4.1191,4.1149,4.1076,4.0955,4.0796,4.0731,4.0636,4.043,4.0242,3.9972,3.9529,3.9251,3.9013,3.875,3.8707,3.8643,3.8465,3.8449,3.8251,3.772,3.7685,3.7488,3.6999,3.7248,3.7488,3.7667,3.8033,3.8066,3.7685,3.8167,3.7947,3.6904,3.7078,3.6845,3.6118,3.5549,3.48,3.3887,3.3013,3.2188,0.0,3.1586,3.3807,3.3807,3.333,0.0,0.0,0.0,3.021,2.9207,2.9482,2.9721,2.9115,2.95,3.0026,3.043,3.1513,0.0,0.0,0.0,0.0,0.0,0.0,0.0,0.0,0.0,0.0,0.0,0.0,0.0,0.0,3.6704,3.6993,3.7629,3.6724,3.6357,3.6704,3.6357,3.6357,3.6704,3.6884,3.6285,3.5046,3.6702,0.0,0.0,0.0,0.0,0.0,3.794,3.7774,3.6545,3.8102,3.8707,3.8707,3.8707,3.8762,3.8909,3.9439,3.9552,3.9592,4.0274,4.0381,4.0285,4.0503,4.0581,4.0604,4.0766,4.0905,4.1026,4.1171,4.1191,4.1191,4.1191,4.1148,4.1025,4.0847,4.0761,4.0688,4.053,4.0276,3.9992,3.9656,3.9314,3.9013,3.875,3.8707,3.8707,3.8707,3.8707,3.8562,3.8251,3.82,3.7998,3.7506,3.756,3.7632,3.7632,3.7947,3.7981,3.7649,3.7947,3.7667,3.6724,3.6843,3.6446,3.5537,3.5328,3.4657,3.3582,3.3156,3.2449,0.0,3.1751,0.0,0.0,0.0,0.0,0.0,0.0,0.0,2.9152,3.0356,3.0944,2.9445,3.0485,3.1035,2.9427,3.1788,0.0,0.0,0.0,0.0,0.0,0.0,0.0,0.0,0.0,0.0,0.0,0.0,0.0,0.0,3.7248,3.747,3.7946,3.7524,3.7303,3.7248,3.7228,3.7157,3.7088,3.7631,3.7009,3.5437,3.7169,0.0,0.0,0.0,0.0,0.0,3.8707,3.8707,3.8707,3.8707,3.8707,3.8707,3.8719,3.8898,3.9147,3.9498,3.9829,4.0139,4.0406,4.0496,4.0534,4.0649,4.0703,4.0729,4.08,4.0914,4.103,4.1171,4.1191,4.1191,4.1191,4.1191,4.1127,4.086,4.0797,4.0733,4.0533,4.0276,3.9992,3.9656,3.9314,3.9013,3.875,3.8707,3.8707,3.8707,3.8707,3.8707,3.8707,3.8707,3.8496,3.7997,3.756,3.7285,3.7248,3.7303,3.7303,3.7248,3.7248,3.7228,3.7135,3.662,3.6049,3.5402,3.4828,3.4211,3.3582,3.3495,3.2745,2.895,0.0,3.0124,3.0124,2.9831,0.0,0.0,0.0,0.0,0.0,0.0,0.0,0.0,3.2155,3.2706,3.1091,3.2504,0.0,0.0,0.0,0.0,0.0,0.0,0.0,0.0,0.0,0.0,0.0,0.0,0.0,0.0,3.7737,3.7963,3.8515,3.8401,3.8152,3.7737,3.7378,3.6755,3.5925,3.7265,3.6612,3.431,3.718,0.0,0.0,0.0,0.0,3.8707,3.8707,3.8707,3.8707,3.8707,3.8707,3.8719,3.8919,3.9049,3.9173,3.9775,4.0032,4.0139,4.0406,4.0496,4.0534,4.0649,4.0736,4.0805,4.0917,4.1052,4.1151,4.1191,4.1191,4.1191,4.1191,4.1191,4.1127,4.086,4.0797,4.0733,4.0533,4.0276,3.9992,3.9656,3.9314,3.9013,3.875,3.8707,3.8707,3.8707,3.8707,3.8707,3.8707,3.8707,3.8643,3.8512,3.8417,3.8185,3.7755,3.8117,3.815,3.7755,3.7737,3.736,3.6603,3.6054,3.5722,3.5549,3.4406,3.3761,3.3556,3.2489,3.1824,2.8801,2.9005,2.9189,2.9922,2.9537,2.9189,0.0,0.0,0.0,0.0,0.0,0.0,0.0,0.0,0.0,0.0,0.0,0.0,0.0,0.0,0.0,0.0,0.0,0.0,0.0,0.0,0.0,0.0,0.0,0.0,0.0,3.8267,3.8399,3.8692,3.8707,3.8562,3.8267,3.8016,3.722,3.5887,3.7503,3.7101,3.5018,3.7551,3.823,0.0,0.0,0.0,3.8652,3.79,3.8028,3.8707,3.8707,3.8777,3.8894,3.9049,3.9289,3.9611,3.9963,4.0177,4.0313,4.0457,4.0496,4.053,4.0699,4.077,4.0839,4.0959,4.1102,4.1191,4.1191,4.1191,4.1191,4.1191,4.1191,4.1127,4.086,4.0797,4.0733,4.0533,4.0276,3.9992,3.9656,3.9314,3.9013,3.875,3.8707,3.8707,3.8707,3.8707,3.8707,3.8707,3.8707,3.8707,3.8707,3.8707,3.8465,3.7928,3.8167,3.8117,3.7596,3.7342,3.6845,3.6054,3.5459,3.5276,3.56,3.4568,3.3912,3.3582,3.2826,3.2132,2.8931,2.9055,2.943,3.1011,3.0191,2.9427,3.1017,0.0,0.0,0.0,0.0,0.0,0.0,0.0,0.0,0.0,0.0,0.0,0.0,0.0,0.0,0.0,0.0,0.0,0.0,0.0,0.0,0.0,0.0,0.0,0.0,3.8707,3.8707,3.8707,3.8707,3.8707,3.8707,3.8707,3.79,3.6321,3.7936,3.7863,3.634,3.7973,3.8707,0.0,0.0,0.0,3.8597,3.7275,3.7518,3.8707,3.875,3.8894,3.9125,3.9212,3.9611,4.0101,4.0148,4.0313,4.0496,4.0496,4.0519,4.0568,4.0757,4.0809,4.086,4.0992,4.1105,4.1191,4.1191,4.1191,4.1191,4.1191,4.1172,4.1103,4.0857,4.0785,4.0728,4.0545,4.0276,4.0012,3.9731,3.9389,3.9077,3.8803,3.8762,3.875,3.8707,3.8707,3.8707,3.8707,3.8707,3.8676,3.8578,3.8578,3.835,3.7843,3.7859,3.7649,3.7097,3.6563,3.6054,3.5622,3.5052,3.5012,3.56,3.4918,3.4309,3.3735,3.3531,3.2826,2.9357,2.9341,2.9667,3.1054,3.0191,2.9427,0.0,0.0,0.0,0.0,0.0,0.0,0.0,0.0,0.0,0.0,0.0,0.0,0.0,0.0,0.0,0.0,0.0,0.0,0.0,0.0,0.0,0.0,0.0,0.0,0.0,3.8707,3.8707,3.8707,3.8707,3.8707,3.8707,3.8707,3.79,3.6321,3.7936,3.7863,3.634,3.7973,3.8707,0.0,0.0,3.8668,3.8701,3.8688,3.8687,3.8719,3.8947,3.9058,3.9178,3.9742,4.0012,4.0129,4.0364,4.0465,4.0496,4.0496,4.0588,4.0697,4.0779,4.0874,4.0994,4.1128,4.1172,4.1191,4.1191,4.1191,4.1191,4.1191,4.1106,4.099,4.0824,4.0757,4.066,4.0542,4.0276,4.0081,4.0022,3.9754,3.9401,3.909,3.9036,3.8961,3.8735,3.8707,3.8707,3.8707,3.8707,3.853,3.8065,3.8013,3.7825,3.7341,3.7685,3.7488,3.6563,3.6028,3.5672,3.56,3.5492,3.5492,3.56,3.4918,3.4552,3.4431,3.3287,3.2641,2.9474,2.9402,2.9925,3.2139,3.0834,2.9886,0.0,0.0,0.0,0.0,0.0,0.0,0.0,0.0,0.0,0.0,0.0,0.0,0.0,0.0,0.0,0.0,0.0,0.0,0.0,0.0,0.0,0.0,0.0,0.0,0.0,0.0,3.8707,3.8707,3.8707,3.8707,3.8707,3.8707,3.79,3.6321,3.7936,3.7863,3.634,3.7973,3.8773,3.8868,0.0,3.8324,3.9101,3.8193,3.8342,3.9176,3.9112,3.9314,3.969,4.0157,4.0321,4.0339,4.0465,4.0496,4.0512,4.0575,4.0655,4.0724,4.0873,4.0955,4.1025,4.1151,4.1191,4.1191,4.1191,4.1191,4.1191,4.1191,4.1102,4.0959,4.082,4.0742,4.0655,4.0534,4.0397,4.0258,4.012,3.9982,3.969,3.9192,3.9112,3.9013,3.8735,3.8707,3.8707,3.8707,3.8707,3.8611,3.8348,3.8065,3.7702,3.7229,3.7396,3.7192,3.6437,3.6161,3.5898,3.56,3.56,3.56,3.56,3.5276,3.4941,3.4576,3.3962,3.3287,2.9644,2.9504,3.0093,3.2681,3.1158,0.0,0.0,0.0,0.0,0.0,0.0,0.0,0.0,0.0,0.0,0.0,0.0,0.0,0.0,0.0,0.0,0.0,0.0,0.0,0.0,0.0,0.0,0.0,0.0,0.0,0.0,0.0,3.8707,3.8707,3.8762,3.8762,3.8707,3.8762,3.8136,3.6872,3.812,3.8046,3.6909,3.8191,3.8909,3.9037,3.7966,3.8291,3.9493,3.808,3.8341,3.9587,3.9401,3.969,4.0213,4.0414,4.0496,4.0496,4.0496,4.0527,4.0566,4.0681,4.0729,4.08,4.0947,4.1023,4.1077,4.1171,4.1191,4.1191,4.1191,4.1191,4.1191,4.1191,4.1078,4.0922,4.0816,4.0717,4.0623,4.0527,4.0496,4.0422,4.0223,4.0139,3.9901,3.9302,3.9147,3.9013,3.8735,3.8707,3.8707,3.8707,3.8707,3.8643,3.8512,3.8032,3.7524,3.7039,3.7229,3.702,3.6228,3.6333,3.6161,3.5622,3.56,3.56,3.56,3.56,3.5339,3.4847,3.4688,3.4062,3.004,2.9821,3.0048,3.1547,3.0457,0.0,3.5183,3.2522,0.0,0.0,0.0,0.0,0.0,0.0,0.0,0.0,0.0,0.0,0.0,0.0,0.0,0.0,0.0,0.0,0.0,0.0,0.0,0.0,0.0,0.0,0.0,0.0,0.0,3.8707,3.8933,3.8947,3.8707,3.8947,3.8892,3.8542,3.8652,3.8652,3.8539,3.8906,3.9085,3.912,3.9632,3.9756,3.9603,3.9779,3.9756,3.9634,3.9912,4.0213,4.0473,4.0489,4.0496,4.0496,4.0496,4.0568,4.0686,4.0692,4.0831,4.0986,4.0994,4.1081,4.1191,4.1191,4.1191,4.1191,4.1191,4.1191,4.1191,4.1191,4.0996,4.0809,4.0801,4.0639,4.0512,4.0496,4.0496,4.0489,4.0473,4.0258,3.9982,3.9622,3.9289,3.9013,3.8735,3.8707,3.8707,3.8707,3.8707,3.8496,3.7997,3.7524,3.702,3.6498,3.7323,3.7175,3.5717,3.6139,3.6161,3.5622,3.56,3.56,3.56,3.56,3.5577,3.5515,3.4894,3.4552,2.9927,2.9765,3.0237,3.2476,3.101,0.0,0.0,3.3293,3.188,0.0,0.0,0.0,0.0,0.0,0.0,0.0,0.0,0.0,0.0,0.0,0.0,0.0,0.0,0.0,0.0,0.0,0.0,0.0,0.0,0.0,0.0,0.0,0.0,3.9268,3.9358,3.9358,3.9268,3.9152,3.9152,3.9268,3.904,3.8947,3.8961,3.9269,3.951,3.9742,3.9992,4.012,4.0157,4.0129,4.012,4.0166,4.0294,4.0406,4.0496,4.0496,4.0552,4.063,4.063,4.0676,4.0785,4.0855,4.0936,4.1021,4.1103,4.1151,4.1191,4.1191,4.1191,4.1191,4.1191,4.1191,4.1191,4.1191,4.0994,4.0797,4.0797,4.0633,4.0496,4.0496,4.0496,4.0496,4.0496,4.0286,3.9992,3.9645,3.9314,3.9013,3.8735,3.8707,3.8707,3.8707,3.8707,3.8481,3.7946,3.7737,3.7285,3.6457,3.6746,3.6545,3.5644,3.5788,3.5805,3.56,3.56,3.56,3.56,3.56,3.56,3.56,3.5339,3.4776,2.9869,2.9756,3.0255,3.2593,0.0,0.0,3.5211,3.3752,3.2632,0.0,0.0,0.0,0.0,0.0,0.0,0.0,0.0,0.0,0.0,0.0,0.0,0.0,0.0,0.0,0.0,0.0,0.0,0.0,0.0,0.0,0.0,0.0,0.0,0.0,3.969,3.972,3.9599,3.9481,3.9481,3.9599,3.9462,3.9352,3.9264,3.9611,3.9891,4.0101,4.0186,4.033,4.0481,4.0313,4.0339,4.0496,4.0496,4.0496,4.0504,4.0545,4.0623,4.0703,4.0715,4.0794,4.0874,4.0964,4.1026,4.108,4.1171,4.1191,4.1191,4.1191,4.1191,4.1191,4.115,4.1148,4.1148,4.1148,4.0944,4.0766,4.0766,4.0636,4.0496,4.0496,4.0496,4.0473,4.0381,4.0129,3.9819,3.9486,3.9165,3.8909,3.8719,3.8707,3.8707,3.8707,3.8707,3.8546,3.8183,3.7997,3.7542,3.6704,3.6498,3.6161,3.5622,3.5761,3.5783,3.56,3.56,3.56,3.56,3.56,3.5492,3.5276,3.5276,3.4681,3.0025,2.9872,3.0038,0.0,0.0,0.0,3.5216,3.3747,0.0,0.0,0.0,0.0,0.0,0.0,0.0,0.0,0.0,0.0,0.0,0.0,0.0,0.0,0.0,0.0,0.0,0.0,0.0,0.0,0.0,0.0,0.0,0.0,0.0,0.0,3.9932,3.9943,3.9611,3.9932,3.9932,3.9611,3.9932,3.9922,3.9611,3.9943,4.0101,4.012,4.0381,4.0496,4.0496,4.0496,4.0496,4.0496,4.0496,4.0496,4.0519,4.0642,4.0697,4.0707,4.0779,4.088,4.0996,4.0996,4.1082,4.1191,4.1191,4.1191,4.1191,4.1191,4.1191,4.1171,4.1028,4.0994,4.0994,4.0994,4.0852,4.0697,4.0697,4.0589,4.0496,4.0496,4.0496,4.0406,4.0148,3.9819,3.9493,3.9147,3.8869,3.8707,3.8707,3.8707,3.8707,3.8707,3.8692,3.8692,3.8692,3.82,3.7685,3.721,3.6684,3.6161,3.5622,3.6118,3.6139,3.5622,3.56,3.56,3.56,3.56,3.5253,3.46,3.4576,3.4235,3.1546,3.0788,0.0,0.0,0.0,0.0,0.0,0.0,0.0,0.0,0.0,0.0,0.0,0.0,0.0,0.0,0.0,0.0,0.0,0.0,0.0,0.0,0.0,0.0,0.0,0.0,0.0,0.0,0.0,0.0,0.0,0.0,0.0,0.0,4.0328,4.0328,4.022,4.0139,4.0139,4.0239,4.0129,4.0061,3.9953,4.025,4.0381,4.0381,4.0465,4.0496,4.0496,4.0496,4.0496,4.0496,4.0496,4.0559,4.0655,4.068,4.0786,4.0919,4.0922,4.1026,4.1149,4.1149,4.1171,4.1191,4.1191,4.1191,4.1191,4.1191,4.1128,4.1052,4.1019,4.0903,4.0809,4.0847,4.0776,4.0697,4.0697,4.0589,4.0496,4.0496,4.0496,4.0406,4.0148,3.9819,3.9493,3.9147,3.8869,3.8707,3.8707,3.8707,3.8707,3.8707,3.8366,3.815,3.815,3.7342,3.6803,3.6661,3.6139,3.5761,3.56,3.5761,3.5761,3.56,3.56,3.56,3.56,3.5121,3.4783,3.4576,3.4112,3.3531,3.2065,0.0,0.0,0.0,0.0,0.0,0.0,0.0,0.0,0.0,0.0,0.0,0.0,0.0,0.0,0.0,0.0,0.0,0.0,0.0,0.0,0.0,0.0,0.0,0.0,0.0,0.0,0.0,0.0,0.0,0.0,0.0,0.0,0.0,4.0496,4.0496,4.0496,4.0339,4.0339,4.0496,4.0339,4.025,4.0258,4.0433,4.0496,4.0496,4.0496,4.0496,4.0496,4.0496,4.0523,4.0588,4.0588,4.0655,4.0752,4.0805,4.0903,4.1017,4.1055,4.1128,4.1191,4.1191,4.1191,4.1191,4.1191,4.1191,4.1191,4.1148,4.1055,4.0986,4.0906,4.0786,4.0701,4.0747,4.0682,4.0623,4.0623,4.0559,4.0496,4.0496,4.0406,4.025,3.9953,3.9622,3.9295,3.899,3.8803,3.8707,3.8707,3.8707,3.8707,3.8707,3.8399,3.8216,3.8216,3.747,3.7001,3.7001,3.6333,3.592,3.592,3.5717,3.56,3.56,3.56,3.56,3.56,3.5207,3.4871,3.4576,3.4186,3.3495,3.2146,0.0,0.0,0.0,0.0,0.0,0.0,0.0,0.0,0.0,0.0,0.0,0.0,0.0,0.0,0.0,0.0,0.0,0.0,0.0,0.0,0.0,0.0,0.0,0.0,0.0,0.0,0.0,0.0,0.0,0.0,0.0,0.0,4.0496,4.0496,4.0496,4.0496,4.0496,4.0496,0.0,4.0496,4.0496,4.0496,4.0496,4.0496,4.0496,4.0496,4.0496,4.0496,4.0512,4.0582,4.0697,4.0715,4.0747,4.0824,4.0957,4.1017,4.1048,4.1151,4.1191,4.1191,4.1191,4.1191,4.1191,4.1191,4.1171,4.115,4.1023,4.0983,4.0931,4.0751,4.0686,4.068,4.068,4.0582,4.0496,4.0496,4.0496,4.0496,4.0496,4.0294,4.0022,3.9656,3.9339,3.9036,3.8732,3.8707,3.8707,3.8707,3.8707,3.8707,3.8707,3.8676,3.8627,3.8627,3.815,3.7807,3.7772,3.6904,3.6374,3.6312,3.5854,3.56,3.56,3.56,3.56,3.56,3.5554,3.5207,3.46,3.4528,3.3862,0.0,3.3289,0.0,0.0,0.0,0.0,0.0,0.0,0.0,0.0,0.0,0.0,0.0,0.0,0.0,0.0,0.0,0.0,0.0,0.0,0.0,0.0,0.0,0.0,0.0,0.0,0.0,0.0,0.0,0.0,0.0,0.0,0.0,4.0496,4.0496,4.0496,4.0496,4.0496,4.0496,0.0,4.0496,4.0496,4.0496,4.0496,4.0496,4.0496,4.0496,4.0496,4.0504,4.0616,4.0667,4.0709,4.0762,4.0847,4.0959,4.0992,4.1076,4.1151,4.1191,4.1191,4.1191,4.1191,4.1191,4.1171,4.1078,4.103,4.1021,4.0877,4.0812,4.0742,4.0715,4.0623,4.0537,4.0537,4.0527,4.0496,4.0496,4.0496,4.0496,4.0496,4.0457,4.0239,3.9701,3.9552,3.9314,3.8777,3.8707,3.8707,3.8707,3.8707,3.8707,3.8707,3.8316,3.8065,3.8065,3.7614,3.7173,3.6746,3.6519,3.6224,3.5805,3.565,3.56,3.56,3.56,3.56,3.56,3.5075,3.4736,3.4576,3.4062,3.3659,0.0,0.0,0.0,0.0,0.0,0.0,0.0,0.0,0.0,0.0,0.0,0.0,0.0,0.0,0.0,0.0,0.0,0.0,0.0,0.0,0.0,0.0,0.0,0.0,0.0,0.0,0.0,0.0,0.0,0.0,0.0,4.0496,4.0496,4.0496,4.0496,4.0496,4.0496,4.0496,4.0496,4.0496,4.0566,4.0589,4.0589,4.0534,4.0496,4.0496,4.0496,4.0549,4.0596,4.0667,4.0761,4.0856,4.0887,4.0986,4.1102,4.1102,4.1149,4.1191,4.1191,4.1191,4.1191,4.1127,4.1104,4.108,4.0933,4.0908,4.0874,4.079,4.074,4.068,4.0623,4.0552,4.0496,4.0496,4.0496,4.0496,4.0496,4.0496,4.0496,4.0496,4.0389,4.0157,3.9679,3.9364,3.9064,3.875,3.8707,3.8707,3.8707,3.8707,3.8707,3.8707,3.8449,3.8283,3.8283,3.805,3.7685,3.7136,3.6904,3.6542,3.6006,3.5739,3.56,3.56,3.56,3.56,3.56,3.5253,3.5075,3.5075,3.4728,3.4399,0.0,0.0,0.0,0.0,0.0,0.0,0.0,0.0,0.0,0.0,0.0,0.0,0.0,0.0,0.0,0.0,0.0,0.0,0.0,0.0,0.0,0.0,0.0,0.0,0.0,0.0,0.0,0.0,0.0,0.0,4.0496,4.0496,4.0496,4.0496,4.0496,4.0496,4.0496,4.0527,4.0523,4.0549,4.0667,4.0707,4.0697,4.061,4.0559,4.0523,4.0523,4.059,4.0718,4.0745,4.0856,4.0996,4.1025,4.1103,4.1191,4.1191,4.1191,4.1191,4.1191,4.1172,4.1149,4.1048,4.099,4.095,4.0824,4.0788,4.0766,4.0684,4.0681,4.0649,4.0534,4.0496,4.0496,4.0496,4.0496,4.0496,4.0496,4.0496,4.0489,4.0449,4.0157,3.9829,3.9564,3.9064,3.8707,3.8707,3.8707,3.8707,3.8707,3.8707,3.8707,3.8707,3.8707,3.8707,3.8707,3.8627,3.835,3.7807,3.7323,3.6823,3.627,3.5849,3.56,3.56,3.56,3.56,3.56,3.56,3.56,3.56,3.56,3.5316,0.0,0.0,0.0,0.0,0.0,0.0,0.0,0.0,0.0,0.0,0.0,0.0,0.0,0.0,0.0,0.0,0.0,0.0,0.0,0.0,0.0,0.0,0.0,0.0,0.0,0.0,0.0,0.0,0.0,0.0,4.0496,4.0496,4.0496,4.0496,4.0496,4.0496,4.0496,4.0616,4.0667,4.0667,4.0757,4.0762,4.0703,4.0733,4.0732,4.0667,4.0667,4.0715,4.0805,4.0905,4.0981,4.1019,4.1128,4.1172,4.1191,4.1191,4.1191,4.1191,4.1191,4.1127,4.1025,4.1017,4.092,4.0821,4.0736,4.0707,4.0697,4.0566,4.0534,4.0527,4.0504,4.0496,4.0496,4.0496,4.0496,4.0496,4.0496,4.0496,4.0422,4.0195,3.9656,3.9212,3.916,3.8913,3.8707,3.8707,3.8707,3.8707,3.8707,3.8707,3.8707,3.8707,3.8707,3.8707,3.8707,3.8283,3.779,3.7323,3.6803,3.6266,3.5739,3.5644,3.56,3.56,3.56,3.56,3.56,3.56,3.56,3.56,3.56,3.5538,0.0,0.0,0.0,0.0,0.0,0.0,0.0,0.0,0.0,0.0,0.0,0.0,0.0,0.0,0.0,0.0,0.0,0.0,0.0,0.0,0.0,0.0,0.0,0.0,0.0,0.0,0.0,0.0,0.0,4.0588,4.0504,4.0574,4.0588,4.0496,4.0496,4.0496,4.0496,4.0636,4.0761,4.0875,4.0896,4.0896,4.0878,4.0899,4.0836,4.0703,4.0747,4.0828,4.0917,4.0986,4.1031,4.1126,4.1171,4.1191,4.1191,4.1191,4.115,4.1081,4.1081,4.0996,4.0874,4.0836,4.0781,4.0712,4.0617,4.0602,4.0581,4.0519,4.0496,4.0496,4.0496,4.0496,4.0496,4.0496,4.0381,4.0286,4.0286,4.0286,4.0195,3.9872,3.9426,3.9112,3.9112,3.8884,3.8707,3.8707,3.8707,3.8707,3.8707,3.8707,3.8707,3.8707,3.8433,3.8251,3.8251,3.779,3.7285,3.6783,3.6539,3.6161,3.5622,3.56,3.56,3.56,3.56,3.56,3.56,3.56,3.56,3.56,3.56,3.56,0.0,0.0,0.0,0.0,0.0,0.0,0.0,0.0,0.0,0.0,0.0,0.0,0.0,0.0,0.0,0.0,0.0,0.0,0.0,0.0,0.0,0.0,0.0,0.0,0.0,0.0,0.0,0.0,0.0,4.069,4.059,4.0678,4.069,4.0584,4.0584,4.0584,4.0584,4.0704,4.0871,4.1052,4.1052,4.1026,4.0996,4.1048,4.0959,4.0777,4.0824,4.0922,4.1052,4.1052,4.1105,4.1191,4.1191,4.1191,4.1191,4.1151,4.1081,4.0994,4.0959,4.0864,4.0781,4.0718,4.0674,4.0636,4.0523,4.0496,4.0496,4.0496,4.0496,4.0496,4.0496,4.0496,4.0481,4.0406,4.026,4.0081,3.9992,3.9901,3.9775,3.9529,3.9223,3.8999,3.8999,3.8829,3.8707,3.8707,3.8707,3.8707,3.8707,3.8707,3.8643,3.8496,3.815,3.7842,3.7737,3.7285,3.6823,3.6416,3.6266,3.6028,3.5622,3.56,3.56,3.56,3.56,3.56,3.56,3.56,3.56,3.56,3.56,3.56,0.0,0.0,0.0,0.0,0.0,0.0,0.0,0.0,0.0,0.0,0.0,0.0,0.0,0.0,0.0,0.0,0.0,0.0,0.0,0.0,0.0,0.0,0.0,0.0,0.0,0.0,0.0,0.0,0.0,4.0789,4.0781,4.0785,4.0789,4.0781,4.0781,4.0781,4.0781,4.0914,4.1052,4.1191,4.1191,4.1127,4.0998,4.1128,4.1105,4.0988,4.099,4.1076,4.1191,4.1191,4.1191,4.1191,4.1191,4.1191,4.1172,4.1054,4.1017,4.0988,4.0857,4.0752,4.0709,4.0703,4.0616,4.0512,4.0496,4.0496,4.0496,4.0496,4.0496,4.0496,4.0496,4.0496,4.0441,4.0177,4.011,4.0012,3.969,3.9377,3.9152,3.9139,3.8909,3.8719,3.8719,3.8723,3.8707,3.8707,3.8707,3.8707,3.8707,3.8707,3.8515,3.7997,3.7929,3.772,3.7267,3.6744,3.6416,3.6395,3.592,3.5644,3.56,3.56,3.56,3.56,3.56,3.56,3.56,3.56,3.56,3.56,3.56,3.56,0.0,0.0,0.0,0.0,0.0,0.0,0.0,0.0,0.0,0.0,0.0,0.0,0.0,0.0,0.0,0.0,0.0,0.0,0.0,0.0,0.0,0.0,0.0,0.0,0.0,0.0,0.0,0.0,0.0,0.0,4.0704,3.9289,3.9159,4.0743,4.0797,4.085,4.0922,4.0986,4.1076,4.1191,4.1191,4.1171,4.1128,4.1171,4.1171,4.1128,4.1128,4.115,4.1191,4.1191,4.1191,4.1191,4.1191,4.1149,4.1076,4.1021,4.0922,4.0805,4.0757,4.066,4.0581,4.0581,4.053,4.0496,4.0496,4.0496,4.0496,4.0496,4.0496,4.0496,4.0496,4.0372,4.011,3.9569,3.945,3.9371,3.9091,3.9068,3.9049,3.8884,3.8777,3.8707,3.8707,3.8707,3.8707,3.8707,3.8707,3.8707,3.8707,3.8707,3.8627,3.843,3.7843,3.7378,3.721,3.6378,3.5876,3.5876,3.5694,3.56,3.56,3.56,3.56,3.56,3.56,3.56,3.56,3.56,3.56,3.56,3.56,3.56,0.0,0.0,0.0,0.0,0.0,0.0,0.0,0.0,0.0,0.0,0.0,0.0,0.0,0.0,0.0,0.0,0.0,0.0,0.0,0.0,0.0,0.0,0.0,0.0,0.0,0.0,0.0,0.0,0.0,0.0,4.085,3.9361,3.9226,4.0889,4.0925,4.0986,4.1076,4.1076,4.1105,4.1191,4.1191,4.1191,4.1191,4.1191,4.1191,4.1191,4.1191,4.1191,4.1191,4.1191,4.1171,4.1129,4.1129,4.1052,4.0922,4.0916,4.0818,4.0692,4.0655,4.0561,4.0496,4.0496,4.0496,4.0496,4.0496,4.0496,4.0496,4.0496,4.0496,4.0496,4.0496,4.0212,3.9786,3.9225,3.9036,3.8923,3.875,3.8844,3.8909,3.8735,3.8707,3.8707,3.8707,3.8707,3.8707,3.8707,3.8707,3.8707,3.8707,3.8707,3.8627,3.8449,3.7825,3.736,3.721,3.6542,3.6054,3.5876,3.5876,3.5805,3.56,3.56,3.56,3.56,3.56,3.56,3.56,3.56,3.56,3.56,3.56,3.547,0.0,0.0,0.0,0.0,0.0,0.0,0.0,0.0,0.0,0.0,0.0,0.0,0.0,0.0,0.0,0.0,0.0,0.0,0.0,0.0,0.0,0.0,0.0,0.0,0.0,0.0,0.0,0.0,0.0,4.1113,4.1191,4.1191,4.1191,4.1191,4.1191,4.1191,4.1191,4.1191,4.1191,4.1191,4.1191,4.1191,4.1191,4.1191,4.1191,4.1191,4.1191,4.1191,4.1191,4.1191,4.1126,4.0994,4.0994,4.0914,4.0781,4.0715,4.0697,4.0687,4.0545,4.0496,4.0496,4.0496,4.0496,4.0496,4.0496,4.0496,4.0496,4.0496,4.0496,4.0496,4.0489,4.0043,3.9529,3.9173,3.8913,3.8707,3.8707,3.8707,3.8707,3.8707,3.8707,3.8707,3.8707,3.8707,3.8707,3.8707,3.8707,3.8707,3.8707,3.8707,3.8496,3.798,3.7893,3.772,3.7248,3.7192,3.6943,3.6437,3.6392,3.6139,3.5622,3.56,3.56,3.56,3.56,3.56,3.56,3.56,3.56,3.56,3.5577,3.5207,2.6595,0.0,0.0,0.0,0.0,0.0,2.5992,0.0,0.0,0.0,0.0,0.0,0.0,0.0,0.0,0.0,0.0,0.0,0.0,0.0,0.0,0.0,0.0,0.0,0.0,0.0,0.0,0.0,3.9453,3.9199,4.1094,4.1191,4.1191,4.1191,4.1191,4.1191,4.1191,4.1191,4.1191,4.1191,4.1191,4.1191,4.1191,4.1191,4.1191,4.1191,4.1191,4.1149,4.1054,4.1054,4.0986,4.086,4.086,4.0796,4.0735,4.0715,4.0643,4.0545,4.0512,4.0496,4.0496,4.0496,4.0496,4.0496,4.0496,4.0496,4.0496,4.0496,4.0496,4.0457,4.025,3.9903,3.9529,3.9173,3.8913,3.8707,3.8707,3.8707,3.8707,3.8707,3.8707,3.8707,3.8707,3.8707,3.8707,3.8707,3.8707,3.8707,3.8707,3.8707,3.8643,3.8496,3.8115,3.7842,3.772,3.7039,3.656,3.6395,3.6049,3.5761,3.56,3.56,3.56,3.56,3.56,3.56,3.56,3.56,3.56,3.56,3.5098,3.452,0.0,0.0,0.0,0.0,0.0,0.0,2.5636,2.8489,0.0,0.0,0.0,0.0,0.0,0.0,0.0,0.0,0.0,0.0,0.0,0.0,0.0,0.0,0.0,0.0,0.0,0.0,0.0,4.1191,3.9785,3.959,4.1113,4.1191,4.1191,4.1191,4.1191,4.1191,4.1191,4.1191,4.1191,4.1191,4.1191,4.1191,4.1191,4.1191,4.1191,4.1191,4.1191,4.1082,4.0917,4.0917,4.0847,4.0767,4.0767,4.0699,4.0616,4.0616,4.0574,4.0496,4.0496,4.0496,4.0496,4.0496,4.0496,4.0496,4.0496,4.0496,4.0496,4.0496,4.0414,4.0304,4.0139,3.9754,3.9339,3.9152,3.8913,3.8707,3.8707,3.8707,3.8707,3.8707,3.8707,3.8707,3.8707,3.8707,3.8707,3.8707,3.8707,3.8707,3.8707,3.8707,3.8707,3.8707,3.8415,3.8132,3.7929,3.736,3.6845,3.6416,3.6097,3.5832,3.5622,3.56,3.56,3.56,3.56,3.56,3.56,3.56,3.56,3.56,3.5207,3.4664,0.0,0.0,0.0,0.0,0.0,0.0,2.5723,2.9258,3.2637,0.0,0.0,0.0,0.0,0.0,0.0,0.0,0.0,0.0,0.0,0.0,0.0,0.0,0.0,0.0,0.0,4.1191,4.1191,4.1191,4.1191,4.1191,4.1191,4.1191,4.1191,4.1191,4.1191,4.1191,4.1191,4.1191,4.1191,4.1191,4.1191,4.1191,4.1191,4.1191,4.1191,4.1191,4.1172,4.1028,4.0797,4.0785,4.0747,4.0674,4.0674,4.0603,4.0496,4.0496,4.0496,4.0496,4.0496,4.0496,4.0496,4.0496,4.0496,4.0496,4.0496,4.0496,4.0489,4.0465,4.0258,4.0032,4.0032,3.9576,3.9112,3.9112,3.8913,3.8707,3.8707,3.8707,3.8707,3.8707,3.8707,3.8707,3.8707,3.8707,3.8707,3.8707,3.8707,3.8707,3.8707,3.8707,3.8707,3.8707,3.8643,3.8415,3.7946,3.779,3.7342,3.6457,3.6333,3.6097,3.5622,3.56,3.56,3.56,3.56,3.56,3.56,3.56,3.56,3.56,3.5515,3.5184,0.0,0.0,0.0,0.0,0.0,0.0,2.5859,2.6484,2.7793,0.0,0.0,0.0,0.0,0.0,0.0,0.0,0.0,0.0,0.0,0.0,0.0,0.0,0.0,0.0,0.0,4.1191,4.1191,4.1191,4.1191,4.1191,4.1191,4.1191,4.1191,4.1191,4.1191,4.1191,4.1191,4.1191,4.1191,4.1191,4.1191,4.1191,4.1191,4.1191,4.1191,4.1191,4.1081,4.0952,4.0793,4.0732,4.0655,4.053,4.053,4.0527,4.0496,4.0496,4.0496,4.0496,4.0496,4.0496,4.0496,4.0496,4.0496,4.0496,4.0496,4.0496,4.0457,4.0232,3.9953,3.9709,3.9709,3.9389,3.9112,3.9112,3.8913,3.8707,3.8707,3.8707,3.8707,3.8707,3.8707,3.8707,3.8707,3.8707,3.8707,3.8707,3.8707,3.8707,3.8707,3.8707,3.8707,3.8707,3.8316,3.8013,3.7893,3.7155,3.6603,3.6416,3.5989,3.5717,3.56,3.56,3.56,3.56,3.56,3.56,3.56,3.56,3.56,3.56,3.5052,3.4736,0.0,0.0,0.0,2.7871,0.0,0.0,0.0,2.7012,2.8027,2.9336,0.0,0.0,0.0,0.0,0.0,0.0,0.0,0.0,0.0,0.0,0.0,0.0,0.0,0.0,0.0,4.1191,4.1191,4.1191,4.1191,4.1191,4.1191,4.1191,4.1191,4.1191,4.1191,4.1191,4.1191,4.1191,4.1191,4.1191,4.1191,4.1191,4.1191,4.1191,4.1191,4.1191,4.1128,4.099,4.0793,4.0757,4.0641,4.0496,4.0496,4.0496,4.0496,4.0496,4.0496,4.0496,4.0496,4.0496,4.0496,4.0496,4.0496,4.0496,4.0496,4.0417,4.0267,4.0139,3.9742,3.9377,3.9564,3.9249,3.8919,3.9058,3.8913,3.8707,3.8707,3.8707,3.8707,3.8707,3.8707,3.8707,3.8707,3.8707,3.8707,3.8707,3.8707,3.8707,3.8707,3.8707,3.8611,3.8316,3.8065,3.7702,3.7193,3.6704,3.6287,3.6028,3.5761,3.56,3.56,3.56,3.56,3.56,3.56,3.56,3.56,3.56,3.56,3.56,3.5253,3.5298,0.0,0.0,0.0,0.0,0.0,2.7461,0.0,0.0,0.0,2.9101,0.0,0.0,0.0,0.0,0.0,0.0,0.0,0.0,0.0,0.0,0.0,0.0,0.0,0.0,0.0,4.0116,4.0624,4.1152,4.1171,4.1171,4.1191,4.1191,4.1191,4.1191,4.1191,4.1191,4.1191,4.1191,4.1191,4.1191,4.1191,4.1191,4.1191,4.1191,4.1191,4.1191,4.1171,4.1025,4.0797,4.0796,4.0668,4.0496,4.0496,4.0496,4.0496,4.0496,4.0496,4.0496,4.0496,4.0496,4.0496,4.0496,4.0496,4.0489,4.0449,4.0232,3.9992,3.9922,3.9481,3.909,3.9364,3.9064,3.8747,3.8957,3.8855,3.8707,3.8707,3.8707,3.8707,3.8707,3.8707,3.8707,3.8707,3.8707,3.8707,3.8707,3.8707,3.8707,3.8707,3.8707,3.853,3.8099,3.7963,3.756,3.6746,3.6603,3.6312,3.5805,3.5761,3.5717,3.56,3.56,3.56,3.56,3.56,3.56,3.56,3.5752,3.5752,3.56,3.5752,3.618,0.0,0.0,0.0,0.0,2.9375,0.0,0.0,0.0,2.7305,2.7305,0.0,0.0,0.0,0.0,0.0,0.0,0.0,0.0,0.0,0.0,0.0,0.0,0.0,0.0,0.0,0.0,3.8577,4.1015,4.1082,4.1078,4.1191,4.1191,4.1191,4.1191,4.1191,4.1191,4.1191,4.1191,4.1191,4.1191,4.1191,4.1191,4.1191,4.1191,4.1191,4.1191,4.1078,4.0947,4.0789,4.0742,4.0623,4.0496,4.0496,4.0496,4.0496,4.0496,4.0496,4.0496,4.0496,4.0496,4.0496,4.0496,4.0496,4.0457,4.0213,3.9922,3.9599,3.9289,3.899,3.8747,3.8792,3.875,3.8707,3.875,3.8719,3.8707,3.8707,3.8707,3.8707,3.8707,3.8707,3.8707,3.8707,3.8707,3.8707,3.8707,3.8707,3.8707,3.8707,3.8707,3.8692,3.8627,3.8183,3.7842,3.7737,3.7341,3.6882,3.6333,3.6291,3.6097,3.5622,3.56,3.56,3.56,3.56,3.56,3.56,3.6315,3.6299,3.5616,3.6332,3.6711,0.0,0.0,0.0,0.0,0.0,0.0,0.0,0.0,2.6992,0.0,0.0,0.0,0.0,0.0,0.0,0.0,0.0,0.0,0.0,0.0,0.0,0.0,0.0,0.0,0.0,0.0,0.0,0.0,0.0,3.8835,3.8926,4.0371,4.1191,4.1191,4.1191,4.1191,4.1191,4.1191,4.1191,4.1191,4.1191,4.1191,4.1191,4.1191,4.1191,4.1191,4.1055,4.092,4.0789,4.0721,4.0623,4.0496,4.0496,4.0496,4.0496,4.0496,4.0496,4.0496,4.0496,4.0496,4.0496,4.0496,4.0389,4.026,4.0129,3.9731,3.9276,3.9152,3.8909,3.8707,3.8707,3.8707,3.8707,3.8707,3.8707,3.8707,3.8707,3.8707,3.8707,3.8707,3.8707,3.8707,3.8707,3.8707,3.8707,3.8707,3.8707,3.8707,3.8707,3.8707,3.8578,3.8267,3.803,3.779,3.7524,3.702,3.6643,3.6416,3.6118,3.5832,3.5622,3.56,3.56,3.56,3.56,3.5842,3.6299,3.6643,3.684,3.6935,3.728,3.7669,3.5273,0.0,0.0,0.0,0.0,0.0,0.0,0.0,0.0,0.0,0.0,0.0,0.0,0.0,0.0,0.0,0.0,0.0,0.0,0.0,0.0,0.0,0.0,0.0,0.0,0.0,0.0,3.5884,3.6717,3.7187,3.7264,3.9765,4.1191,4.1191,4.1191,4.1191,4.1191,4.1191,4.1191,4.1191,4.1191,4.1191,4.1191,4.1191,4.1171,4.1149,4.1049,4.0908,4.0766,4.0724,4.0623,4.0496,4.0496,4.0496,4.0496,4.0496,4.0496,4.0496,4.0496,4.0496,4.0489,4.0406,4.025,4.0071,3.9891,3.9493,3.9085,3.8994,3.884,3.8707,3.8707,3.8707,3.8707,3.8707,3.8707,3.8707,3.8707,3.8707,3.8707,3.8707,3.8707,3.8707,3.8707,3.8707,3.8707,3.8707,3.8707,3.8707,3.8707,3.8707,3.8546,3.8167,3.798,3.7755,3.7415,3.6921,3.656,3.6395,3.5898,3.56,3.56,3.56,3.56,3.56,3.5802,3.6214,3.6795,3.7218,3.7669,3.821,3.821,3.8481,0.0,0.0,0.0,3.5332,0.0,0.0,0.0,0.0,2.893,0.0,0.0,0.0,0.0,0.0,0.0,2.2985,0.0,0.0,0.0,0.0,0.0,0.0,0.0,0.0,0.0,0.0,0.0,3.332,3.5608,3.7057,3.7209,3.9744,4.1191,4.1191,4.1191,4.1191,4.1191,4.1191,4.1191,4.1191,4.1191,4.1191,4.1191,4.1191,4.1128,4.1017,4.0996,4.0896,4.0703,4.0697,4.0623,4.0496,4.0496,4.0496,4.0496,4.0496,4.0496,4.0496,4.0496,4.0496,4.0465,4.0195,4.011,3.9982,3.9327,3.9125,3.9049,3.8788,3.8707,3.8707,3.8707,3.8707,3.8707,3.8707,3.8707,3.8707,3.8707,3.8707,3.8707,3.8707,3.8707,3.8707,3.8707,3.8707,3.8707,3.8707,3.8707,3.8707,3.8707,3.8707,3.8692,3.8692,3.82,3.7893,3.7876,3.7451,3.696,3.6437,3.5898,3.56,3.56,3.56,3.56,3.56,3.6349,3.6778,3.6795,3.8227,3.8937,3.8954,3.8954,3.8971,0.0,0.0,4.0898,4.0019,0.0,0.0,0.0,0.0,0.0,0.0,0.0,0.0,0.0,0.0,2.284,2.284,2.3054,0.0,0.0,0.0,0.0,0.0,0.0,0.0,0.0,0.0,0.0,3.0409,3.1439,3.2004,0.0,3.6248,3.8613,3.8613,4.0293,4.1191,4.1191,4.1191,4.1191,4.1191,4.1191,4.1191,4.1191,4.1191,4.1127,4.0994,4.0911,4.0807,4.0692,4.0603,4.0537,4.0496,4.0496,4.0496,4.0496,4.0496,4.0496,4.0496,4.0496,4.0381,4.0213,4.0129,3.9797,3.9389,3.9178,3.899,3.8833,3.8719,3.8707,3.8707,3.8707,3.8707,3.8707,3.8707,3.8707,3.8707,3.8707,3.8707,3.8707,3.8707,3.8707,3.8707,3.8707,3.8707,3.8707,3.8707,3.8707,3.8707,3.8707,3.8707,3.8707,3.8707,3.8216,3.7893,3.7893,3.7136,3.6457,3.5898,3.5694,3.56,3.56,3.56,3.56,3.56,3.6383,3.7049,3.7533,3.8514,3.9242,3.974,3.974,3.974,4.334,4.3789,0.0,4.2637,4.0742,0.0,3.7488,0.0,0.0,0.0,0.0,0.0,0.0,0.0,0.0,2.2485,2.2331,2.2447,0.0,2.2797,0.0,0.0,0.0,0.0,0.0,0.0,2.6747,2.695,2.8478,2.9295,0.0,0.0,3.7305,3.7305,3.9844,4.1191,4.1191,4.1191,4.1191,4.1191,4.1191,4.1191,4.1191,4.115,4.1054,4.092,4.0809,4.0701,4.0623,4.0549,4.0496,4.0496,4.0496,4.0496,4.0496,4.0496,4.0496,4.0489,4.0389,4.0241,4.0071,3.9819,3.945,3.9085,3.8985,3.8844,3.8707,3.8707,3.8707,3.8707,3.8707,3.8707,3.8707,3.8707,3.8707,3.8707,3.8707,3.8707,3.8707,3.8707,3.8707,3.8707,3.8707,3.8707,3.8707,3.8707,3.8707,3.8707,3.8707,3.8707,3.8707,3.8707,3.8083,3.7488,3.7099,3.6501,3.5985,3.5622,3.56,3.56,3.56,3.56,3.5718,3.6028,3.6789,3.755,3.8294,3.9022,3.9656,4.0096,4.0096,4.0096]}]]